<?xml version="1.0" encoding="UTF-8" standalone="no" ?>
<gpx xmlns="http://www.topografix.com/GPX/1/1" xmlns:xsi="http://www.w3.org/2001/XMLSchema-instance" xsi:schemaLocation="http://www.topografix.com/GPX/1/1 http://www.topografix.com/GPX/1/1/gpx.xsd" version="1.1" creator="VisuGPX - https://www.visugpx.com">
  <metadata>
    <name>La Joncynoise</name>
    <desc><![CDATA[Sortie VTT du 17 Juillet 2012 - 27 kms - ]]></desc>
  </metadata>
  <trk>
    <name><![CDATA[runtastic_20120715_0925_VTT]]></name>
    <trkseg>
      <trkpt lat="46.60635" lon="4.56054">
        <ele>226</ele>
        <time>2012-07-15T07:25:42.000Z</time>
      </trkpt>
      <trkpt lat="46.60635" lon="4.56056">
        <ele>226</ele>
        <time>2012-07-15T07:25:47.000Z</time>
      </trkpt>
      <trkpt lat="46.60636" lon="4.56055">
        <ele>226</ele>
        <time>2012-07-15T07:25:56.000Z</time>
      </trkpt>
      <trkpt lat="46.60636" lon="4.56053">
        <ele>226</ele>
        <time>2012-07-15T07:25:59.000Z</time>
      </trkpt>
      <trkpt lat="46.6064" lon="4.5605">
        <ele>226</ele>
        <time>2012-07-15T07:26:14.000Z</time>
      </trkpt>
      <trkpt lat="46.60641" lon="4.5605">
        <ele>226</ele>
        <time>2012-07-15T07:26:18.000Z</time>
      </trkpt>
      <trkpt lat="46.60642" lon="4.56049">
        <ele>226</ele>
        <time>2012-07-15T07:26:24.000Z</time>
      </trkpt>
      <trkpt lat="46.6064" lon="4.56047">
        <ele>226</ele>
        <time>2012-07-15T07:27:14.000Z</time>
      </trkpt>
      <trkpt lat="46.60638" lon="4.56046">
        <ele>226</ele>
        <time>2012-07-15T07:27:17.000Z</time>
      </trkpt>
      <trkpt lat="46.60638" lon="4.56046">
        <ele>226</ele>
        <time>2012-07-15T07:27:19.000Z</time>
      </trkpt>
      <trkpt lat="46.60636" lon="4.56045">
        <ele>226</ele>
        <time>2012-07-15T07:27:23.000Z</time>
      </trkpt>
      <trkpt lat="46.60637" lon="4.56044">
        <ele>226</ele>
        <time>2012-07-15T07:27:26.000Z</time>
      </trkpt>
      <trkpt lat="46.60639" lon="4.56038">
        <ele>226</ele>
        <time>2012-07-15T07:27:31.000Z</time>
      </trkpt>
      <trkpt lat="46.60635" lon="4.56027">
        <ele>226</ele>
        <time>2012-07-15T07:27:34.000Z</time>
      </trkpt>
      <trkpt lat="46.6063" lon="4.5602">
        <ele>226</ele>
        <time>2012-07-15T07:27:36.000Z</time>
      </trkpt>
      <trkpt lat="46.60626" lon="4.56018">
        <ele>226</ele>
        <time>2012-07-15T07:27:39.000Z</time>
      </trkpt>
      <trkpt lat="46.60618" lon="4.56005">
        <ele>226</ele>
        <time>2012-07-15T07:27:45.000Z</time>
      </trkpt>
      <trkpt lat="46.6062" lon="4.55991">
        <ele>226</ele>
        <time>2012-07-15T07:27:48.000Z</time>
      </trkpt>
      <trkpt lat="46.60626" lon="4.55977">
        <ele>227</ele>
        <time>2012-07-15T07:27:50.000Z</time>
      </trkpt>
      <trkpt lat="46.60644" lon="4.55918">
        <ele>227</ele>
        <time>2012-07-15T07:28:05.000Z</time>
      </trkpt>
      <trkpt lat="46.60645" lon="4.55904">
        <ele>227</ele>
        <time>2012-07-15T07:28:08.000Z</time>
      </trkpt>
      <trkpt lat="46.60647" lon="4.55866">
        <ele>228</ele>
        <time>2012-07-15T07:28:16.000Z</time>
      </trkpt>
      <trkpt lat="46.60656" lon="4.55795">
        <ele>228</ele>
        <time>2012-07-15T07:28:30.000Z</time>
      </trkpt>
      <trkpt lat="46.60658" lon="4.55781">
        <ele>229</ele>
        <time>2012-07-15T07:28:33.000Z</time>
      </trkpt>
      <trkpt lat="46.60654" lon="4.55759">
        <ele>229</ele>
        <time>2012-07-15T07:28:38.000Z</time>
      </trkpt>
      <trkpt lat="46.60648" lon="4.55756">
        <ele>229</ele>
        <time>2012-07-15T07:28:41.000Z</time>
      </trkpt>
      <trkpt lat="46.60635" lon="4.55756">
        <ele>229</ele>
        <time>2012-07-15T07:28:43.000Z</time>
      </trkpt>
      <trkpt lat="46.60625" lon="4.55759">
        <ele>229</ele>
        <time>2012-07-15T07:28:46.000Z</time>
      </trkpt>
      <trkpt lat="46.60603" lon="4.55762">
        <ele>229</ele>
        <time>2012-07-15T07:28:51.000Z</time>
      </trkpt>
      <trkpt lat="46.60592" lon="4.5576">
        <ele>230</ele>
        <time>2012-07-15T07:28:53.000Z</time>
      </trkpt>
      <trkpt lat="46.60543" lon="4.55755">
        <ele>230</ele>
        <time>2012-07-15T07:29:08.000Z</time>
      </trkpt>
      <trkpt lat="46.60536" lon="4.55751">
        <ele>230</ele>
        <time>2012-07-15T07:29:11.000Z</time>
      </trkpt>
      <trkpt lat="46.60492" lon="4.55729">
        <ele>230</ele>
        <time>2012-07-15T07:29:23.000Z</time>
      </trkpt>
      <trkpt lat="46.60476" lon="4.55726">
        <ele>231</ele>
        <time>2012-07-15T07:29:26.000Z</time>
      </trkpt>
      <trkpt lat="46.60451" lon="4.55714">
        <ele>231</ele>
        <time>2012-07-15T07:29:31.000Z</time>
      </trkpt>
      <trkpt lat="46.60437" lon="4.5571">
        <ele>231</ele>
        <time>2012-07-15T07:29:34.000Z</time>
      </trkpt>
      <trkpt lat="46.60428" lon="4.55707">
        <ele>232</ele>
        <time>2012-07-15T07:29:36.000Z</time>
      </trkpt>
      <trkpt lat="46.60419" lon="4.55705">
        <ele>232</ele>
        <time>2012-07-15T07:29:39.000Z</time>
      </trkpt>
      <trkpt lat="46.60408" lon="4.55705">
        <ele>232</ele>
        <time>2012-07-15T07:29:41.000Z</time>
      </trkpt>
      <trkpt lat="46.60395" lon="4.55704">
        <ele>232</ele>
        <time>2012-07-15T07:29:47.000Z</time>
      </trkpt>
      <trkpt lat="46.60387" lon="4.55701">
        <ele>232</ele>
        <time>2012-07-15T07:29:50.000Z</time>
      </trkpt>
      <trkpt lat="46.60366" lon="4.55688">
        <ele>233</ele>
        <time>2012-07-15T07:29:55.000Z</time>
      </trkpt>
      <trkpt lat="46.60359" lon="4.55682">
        <ele>233</ele>
        <time>2012-07-15T07:29:58.000Z</time>
      </trkpt>
      <trkpt lat="46.60352" lon="4.55676">
        <ele>233</ele>
        <time>2012-07-15T07:30:00.000Z</time>
      </trkpt>
      <trkpt lat="46.60341" lon="4.55669">
        <ele>234</ele>
        <time>2012-07-15T07:30:03.000Z</time>
      </trkpt>
      <trkpt lat="46.6033" lon="4.55664">
        <ele>234</ele>
        <time>2012-07-15T07:30:06.000Z</time>
      </trkpt>
      <trkpt lat="46.60308" lon="4.55664">
        <ele>234</ele>
        <time>2012-07-15T07:30:09.000Z</time>
      </trkpt>
      <trkpt lat="46.60304" lon="4.55666">
        <ele>235</ele>
        <time>2012-07-15T07:30:11.000Z</time>
      </trkpt>
      <trkpt lat="46.60294" lon="4.55658">
        <ele>235</ele>
        <time>2012-07-15T07:30:13.000Z</time>
      </trkpt>
      <trkpt lat="46.60287" lon="4.55659">
        <ele>235</ele>
        <time>2012-07-15T07:30:16.000Z</time>
      </trkpt>
      <trkpt lat="46.60276" lon="4.55657">
        <ele>235</ele>
        <time>2012-07-15T07:30:19.000Z</time>
      </trkpt>
      <trkpt lat="46.60221" lon="4.55643">
        <ele>234</ele>
        <time>2012-07-15T07:30:30.000Z</time>
      </trkpt>
      <trkpt lat="46.60209" lon="4.55645">
        <ele>234</ele>
        <time>2012-07-15T07:30:32.000Z</time>
      </trkpt>
      <trkpt lat="46.60192" lon="4.55644">
        <ele>233</ele>
        <time>2012-07-15T07:30:35.000Z</time>
      </trkpt>
      <trkpt lat="46.60174" lon="4.5564">
        <ele>233</ele>
        <time>2012-07-15T07:30:38.000Z</time>
      </trkpt>
      <trkpt lat="46.60154" lon="4.55618">
        <ele>232</ele>
        <time>2012-07-15T07:30:40.000Z</time>
      </trkpt>
      <trkpt lat="46.60107" lon="4.55586">
        <ele>232</ele>
        <time>2012-07-15T07:30:49.000Z</time>
      </trkpt>
      <trkpt lat="46.6007" lon="4.55593">
        <ele>232</ele>
        <time>2012-07-15T07:30:55.000Z</time>
      </trkpt>
      <trkpt lat="46.60059" lon="4.55606">
        <ele>232</ele>
        <time>2012-07-15T07:30:57.000Z</time>
      </trkpt>
      <trkpt lat="46.6005" lon="4.55627">
        <ele>231</ele>
        <time>2012-07-15T07:30:59.000Z</time>
      </trkpt>
      <trkpt lat="46.60043" lon="4.55649">
        <ele>231</ele>
        <time>2012-07-15T07:31:01.000Z</time>
      </trkpt>
      <trkpt lat="46.60036" lon="4.55672">
        <ele>230</ele>
        <time>2012-07-15T07:31:03.000Z</time>
      </trkpt>
      <trkpt lat="46.60024" lon="4.55705">
        <ele>229</ele>
        <time>2012-07-15T07:31:06.000Z</time>
      </trkpt>
      <trkpt lat="46.60011" lon="4.55725">
        <ele>228</ele>
        <time>2012-07-15T07:31:08.000Z</time>
      </trkpt>
      <trkpt lat="46.59991" lon="4.5575">
        <ele>227</ele>
        <time>2012-07-15T07:31:11.000Z</time>
      </trkpt>
      <trkpt lat="46.59971" lon="4.55772">
        <ele>226</ele>
        <time>2012-07-15T07:31:13.000Z</time>
      </trkpt>
      <trkpt lat="46.59958" lon="4.55782">
        <ele>226</ele>
        <time>2012-07-15T07:31:16.000Z</time>
      </trkpt>
      <trkpt lat="46.59946" lon="4.55791">
        <ele>225</ele>
        <time>2012-07-15T07:31:18.000Z</time>
      </trkpt>
      <trkpt lat="46.59896" lon="4.55827">
        <ele>225</ele>
        <time>2012-07-15T07:31:26.000Z</time>
      </trkpt>
      <trkpt lat="46.59845" lon="4.5586">
        <ele>225</ele>
        <time>2012-07-15T07:31:34.000Z</time>
      </trkpt>
      <trkpt lat="46.59828" lon="4.55868">
        <ele>225</ele>
        <time>2012-07-15T07:31:37.000Z</time>
      </trkpt>
      <trkpt lat="46.59813" lon="4.55873">
        <ele>226</ele>
        <time>2012-07-15T07:31:40.000Z</time>
      </trkpt>
      <trkpt lat="46.59793" lon="4.55883">
        <ele>226</ele>
        <time>2012-07-15T07:31:45.000Z</time>
      </trkpt>
      <trkpt lat="46.59792" lon="4.55901">
        <ele>226</ele>
        <time>2012-07-15T07:31:48.000Z</time>
      </trkpt>
      <trkpt lat="46.59793" lon="4.55931">
        <ele>226</ele>
        <time>2012-07-15T07:31:53.000Z</time>
      </trkpt>
      <trkpt lat="46.59797" lon="4.55951">
        <ele>226</ele>
        <time>2012-07-15T07:31:55.000Z</time>
      </trkpt>
      <trkpt lat="46.59797" lon="4.55963">
        <ele>226</ele>
        <time>2012-07-15T07:31:58.000Z</time>
      </trkpt>
      <trkpt lat="46.59798" lon="4.55976">
        <ele>225</ele>
        <time>2012-07-15T07:32:00.000Z</time>
      </trkpt>
      <trkpt lat="46.59805" lon="4.56052">
        <ele>224</ele>
        <time>2012-07-15T07:32:11.000Z</time>
      </trkpt>
      <trkpt lat="46.59807" lon="4.56125">
        <ele>224</ele>
        <time>2012-07-15T07:32:22.000Z</time>
      </trkpt>
      <trkpt lat="46.59803" lon="4.5614">
        <ele>224</ele>
        <time>2012-07-15T07:32:24.000Z</time>
      </trkpt>
      <trkpt lat="46.59785" lon="4.56203">
        <ele>224</ele>
        <time>2012-07-15T07:32:33.000Z</time>
      </trkpt>
      <trkpt lat="46.59783" lon="4.56224">
        <ele>224</ele>
        <time>2012-07-15T07:32:36.000Z</time>
      </trkpt>
      <trkpt lat="46.59783" lon="4.56242">
        <ele>224</ele>
        <time>2012-07-15T07:32:39.000Z</time>
      </trkpt>
      <trkpt lat="46.59781" lon="4.56262">
        <ele>223</ele>
        <time>2012-07-15T07:32:42.000Z</time>
      </trkpt>
      <trkpt lat="46.59772" lon="4.56327">
        <ele>223</ele>
        <time>2012-07-15T07:32:51.000Z</time>
      </trkpt>
      <trkpt lat="46.59772" lon="4.56346">
        <ele>223</ele>
        <time>2012-07-15T07:32:54.000Z</time>
      </trkpt>
      <trkpt lat="46.59774" lon="4.56358">
        <ele>223</ele>
        <time>2012-07-15T07:32:56.000Z</time>
      </trkpt>
      <trkpt lat="46.59788" lon="4.56432">
        <ele>223</ele>
        <time>2012-07-15T07:33:06.000Z</time>
      </trkpt>
      <trkpt lat="46.59784" lon="4.56468">
        <ele>223</ele>
        <time>2012-07-15T07:33:12.000Z</time>
      </trkpt>
      <trkpt lat="46.59785" lon="4.56486">
        <ele>223</ele>
        <time>2012-07-15T07:33:15.000Z</time>
      </trkpt>
      <trkpt lat="46.59791" lon="4.56543">
        <ele>222</ele>
        <time>2012-07-15T07:33:25.000Z</time>
      </trkpt>
      <trkpt lat="46.59799" lon="4.5661">
        <ele>222</ele>
        <time>2012-07-15T07:33:37.000Z</time>
      </trkpt>
      <trkpt lat="46.59807" lon="4.56671">
        <ele>223</ele>
        <time>2012-07-15T07:33:49.000Z</time>
      </trkpt>
      <trkpt lat="46.59819" lon="4.56725">
        <ele>224</ele>
        <time>2012-07-15T07:34:00.000Z</time>
      </trkpt>
      <trkpt lat="46.5983" lon="4.56726">
        <ele>224</ele>
        <time>2012-07-15T07:34:03.000Z</time>
      </trkpt>
      <trkpt lat="46.59842" lon="4.56724">
        <ele>224</ele>
        <time>2012-07-15T07:34:06.000Z</time>
      </trkpt>
      <trkpt lat="46.59849" lon="4.56723">
        <ele>224</ele>
        <time>2012-07-15T07:34:08.000Z</time>
      </trkpt>
      <trkpt lat="46.59877" lon="4.56722">
        <ele>225</ele>
        <time>2012-07-15T07:34:16.000Z</time>
      </trkpt>
      <trkpt lat="46.59915" lon="4.56725">
        <ele>225</ele>
        <time>2012-07-15T07:34:27.000Z</time>
      </trkpt>
      <trkpt lat="46.59964" lon="4.5673">
        <ele>226</ele>
        <time>2012-07-15T07:34:41.000Z</time>
      </trkpt>
      <trkpt lat="46.5997" lon="4.56728">
        <ele>226</ele>
        <time>2012-07-15T07:34:44.000Z</time>
      </trkpt>
      <trkpt lat="46.59978" lon="4.56728">
        <ele>226</ele>
        <time>2012-07-15T07:34:47.000Z</time>
      </trkpt>
      <trkpt lat="46.60002" lon="4.56731">
        <ele>226</ele>
        <time>2012-07-15T07:34:54.000Z</time>
      </trkpt>
      <trkpt lat="46.60011" lon="4.56734">
        <ele>226</ele>
        <time>2012-07-15T07:34:57.000Z</time>
      </trkpt>
      <trkpt lat="46.60017" lon="4.56736">
        <ele>227</ele>
        <time>2012-07-15T07:34:59.000Z</time>
      </trkpt>
      <trkpt lat="46.6004" lon="4.5674">
        <ele>227</ele>
        <time>2012-07-15T07:35:07.000Z</time>
      </trkpt>
      <trkpt lat="46.60048" lon="4.5674">
        <ele>228</ele>
        <time>2012-07-15T07:35:10.000Z</time>
      </trkpt>
      <trkpt lat="46.60054" lon="4.56741">
        <ele>228</ele>
        <time>2012-07-15T07:35:12.000Z</time>
      </trkpt>
      <trkpt lat="46.60063" lon="4.56744">
        <ele>228</ele>
        <time>2012-07-15T07:35:15.000Z</time>
      </trkpt>
      <trkpt lat="46.60068" lon="4.56747">
        <ele>228</ele>
        <time>2012-07-15T07:35:17.000Z</time>
      </trkpt>
      <trkpt lat="46.6007" lon="4.56759">
        <ele>228</ele>
        <time>2012-07-15T07:35:20.000Z</time>
      </trkpt>
      <trkpt lat="46.60069" lon="4.56773">
        <ele>229</ele>
        <time>2012-07-15T07:35:22.000Z</time>
      </trkpt>
      <trkpt lat="46.60064" lon="4.56825">
        <ele>230</ele>
        <time>2012-07-15T07:35:36.000Z</time>
      </trkpt>
      <trkpt lat="46.60064" lon="4.56848">
        <ele>230</ele>
        <time>2012-07-15T07:35:42.000Z</time>
      </trkpt>
      <trkpt lat="46.60062" lon="4.56886">
        <ele>231</ele>
        <time>2012-07-15T07:35:54.000Z</time>
      </trkpt>
      <trkpt lat="46.60062" lon="4.56893">
        <ele>231</ele>
        <time>2012-07-15T07:35:56.000Z</time>
      </trkpt>
      <trkpt lat="46.60061" lon="4.56946">
        <ele>232</ele>
        <time>2012-07-15T07:36:10.000Z</time>
      </trkpt>
      <trkpt lat="46.60059" lon="4.56977">
        <ele>233</ele>
        <time>2012-07-15T07:36:19.000Z</time>
      </trkpt>
      <trkpt lat="46.60057" lon="4.56988">
        <ele>233</ele>
        <time>2012-07-15T07:36:22.000Z</time>
      </trkpt>
      <trkpt lat="46.60054" lon="4.5702">
        <ele>234</ele>
        <time>2012-07-15T07:36:30.000Z</time>
      </trkpt>
      <trkpt lat="46.60053" lon="4.57049">
        <ele>235</ele>
        <time>2012-07-15T07:36:38.000Z</time>
      </trkpt>
      <trkpt lat="46.60048" lon="4.57089">
        <ele>236</ele>
        <time>2012-07-15T07:36:48.000Z</time>
      </trkpt>
      <trkpt lat="46.60046" lon="4.57126">
        <ele>237</ele>
        <time>2012-07-15T07:36:57.000Z</time>
      </trkpt>
      <trkpt lat="46.6004" lon="4.57165">
        <ele>238</ele>
        <time>2012-07-15T07:37:05.000Z</time>
      </trkpt>
      <trkpt lat="46.6004" lon="4.57173">
        <ele>238</ele>
        <time>2012-07-15T07:37:07.000Z</time>
      </trkpt>
      <trkpt lat="46.6004" lon="4.57187">
        <ele>239</ele>
        <time>2012-07-15T07:37:12.000Z</time>
      </trkpt>
      <trkpt lat="46.60036" lon="4.57254">
        <ele>239</ele>
        <time>2012-07-15T07:37:31.000Z</time>
      </trkpt>
      <trkpt lat="46.60035" lon="4.57265">
        <ele>240</ele>
        <time>2012-07-15T07:37:34.000Z</time>
      </trkpt>
      <trkpt lat="46.60028" lon="4.57303">
        <ele>241</ele>
        <time>2012-07-15T07:37:44.000Z</time>
      </trkpt>
      <trkpt lat="46.60025" lon="4.57345">
        <ele>242</ele>
        <time>2012-07-15T07:37:55.000Z</time>
      </trkpt>
      <trkpt lat="46.60025" lon="4.57357">
        <ele>242</ele>
        <time>2012-07-15T07:37:58.000Z</time>
      </trkpt>
      <trkpt lat="46.60025" lon="4.57379">
        <ele>243</ele>
        <time>2012-07-15T07:38:03.000Z</time>
      </trkpt>
      <trkpt lat="46.60027" lon="4.57387">
        <ele>243</ele>
        <time>2012-07-15T07:38:05.000Z</time>
      </trkpt>
      <trkpt lat="46.60032" lon="4.57399">
        <ele>243</ele>
        <time>2012-07-15T07:38:07.000Z</time>
      </trkpt>
      <trkpt lat="46.60035" lon="4.57408">
        <ele>244</ele>
        <time>2012-07-15T07:38:10.000Z</time>
      </trkpt>
      <trkpt lat="46.60037" lon="4.57415">
        <ele>244</ele>
        <time>2012-07-15T07:38:12.000Z</time>
      </trkpt>
      <trkpt lat="46.60044" lon="4.57448">
        <ele>245</ele>
        <time>2012-07-15T07:38:20.000Z</time>
      </trkpt>
      <trkpt lat="46.60045" lon="4.5746">
        <ele>245</ele>
        <time>2012-07-15T07:38:23.000Z</time>
      </trkpt>
      <trkpt lat="46.60047" lon="4.57481">
        <ele>246</ele>
        <time>2012-07-15T07:38:28.000Z</time>
      </trkpt>
      <trkpt lat="46.6005" lon="4.57524">
        <ele>247</ele>
        <time>2012-07-15T07:38:39.000Z</time>
      </trkpt>
      <trkpt lat="46.60049" lon="4.57537">
        <ele>247</ele>
        <time>2012-07-15T07:38:42.000Z</time>
      </trkpt>
      <trkpt lat="46.60045" lon="4.57545">
        <ele>247</ele>
        <time>2012-07-15T07:38:44.000Z</time>
      </trkpt>
      <trkpt lat="46.60035" lon="4.57551">
        <ele>247</ele>
        <time>2012-07-15T07:38:47.000Z</time>
      </trkpt>
      <trkpt lat="46.60025" lon="4.57555">
        <ele>247</ele>
        <time>2012-07-15T07:38:50.000Z</time>
      </trkpt>
      <trkpt lat="46.60001" lon="4.57562">
        <ele>247</ele>
        <time>2012-07-15T07:38:56.000Z</time>
      </trkpt>
      <trkpt lat="46.5996" lon="4.57575">
        <ele>246</ele>
        <time>2012-07-15T07:39:04.000Z</time>
      </trkpt>
      <trkpt lat="46.59947" lon="4.57582">
        <ele>246</ele>
        <time>2012-07-15T07:39:07.000Z</time>
      </trkpt>
      <trkpt lat="46.59934" lon="4.57585">
        <ele>246</ele>
        <time>2012-07-15T07:39:10.000Z</time>
      </trkpt>
      <trkpt lat="46.59921" lon="4.57591">
        <ele>246</ele>
        <time>2012-07-15T07:39:13.000Z</time>
      </trkpt>
      <trkpt lat="46.59913" lon="4.57593">
        <ele>246</ele>
        <time>2012-07-15T07:39:15.000Z</time>
      </trkpt>
      <trkpt lat="46.59875" lon="4.57604">
        <ele>247</ele>
        <time>2012-07-15T07:39:26.000Z</time>
      </trkpt>
      <trkpt lat="46.59856" lon="4.57611">
        <ele>248</ele>
        <time>2012-07-15T07:39:30.000Z</time>
      </trkpt>
      <trkpt lat="46.59851" lon="4.57614">
        <ele>248</ele>
        <time>2012-07-15T07:39:32.000Z</time>
      </trkpt>
      <trkpt lat="46.59842" lon="4.5762">
        <ele>249</ele>
        <time>2012-07-15T07:39:35.000Z</time>
      </trkpt>
      <trkpt lat="46.59834" lon="4.57624">
        <ele>249</ele>
        <time>2012-07-15T07:39:38.000Z</time>
      </trkpt>
      <trkpt lat="46.59824" lon="4.57629">
        <ele>250</ele>
        <time>2012-07-15T07:39:41.000Z</time>
      </trkpt>
      <trkpt lat="46.59812" lon="4.57638">
        <ele>251</ele>
        <time>2012-07-15T07:39:45.000Z</time>
      </trkpt>
      <trkpt lat="46.59804" lon="4.57644">
        <ele>251</ele>
        <time>2012-07-15T07:39:47.000Z</time>
      </trkpt>
      <trkpt lat="46.598" lon="4.57649">
        <ele>252</ele>
        <time>2012-07-15T07:39:50.000Z</time>
      </trkpt>
      <trkpt lat="46.59796" lon="4.57654">
        <ele>252</ele>
        <time>2012-07-15T07:39:52.000Z</time>
      </trkpt>
      <trkpt lat="46.59787" lon="4.57671">
        <ele>253</ele>
        <time>2012-07-15T07:39:57.000Z</time>
      </trkpt>
      <trkpt lat="46.59785" lon="4.57679">
        <ele>253</ele>
        <time>2012-07-15T07:39:59.000Z</time>
      </trkpt>
      <trkpt lat="46.59777" lon="4.5771">
        <ele>254</ele>
        <time>2012-07-15T07:40:07.000Z</time>
      </trkpt>
      <trkpt lat="46.59768" lon="4.5774">
        <ele>255</ele>
        <time>2012-07-15T07:40:15.000Z</time>
      </trkpt>
      <trkpt lat="46.5976" lon="4.57779">
        <ele>256</ele>
        <time>2012-07-15T07:40:25.000Z</time>
      </trkpt>
      <trkpt lat="46.59755" lon="4.5781">
        <ele>257</ele>
        <time>2012-07-15T07:40:33.000Z</time>
      </trkpt>
      <trkpt lat="46.59753" lon="4.57815">
        <ele>257</ele>
        <time>2012-07-15T07:40:35.000Z</time>
      </trkpt>
      <trkpt lat="46.59743" lon="4.57842">
        <ele>258</ele>
        <time>2012-07-15T07:40:43.000Z</time>
      </trkpt>
      <trkpt lat="46.59736" lon="4.5785">
        <ele>258</ele>
        <time>2012-07-15T07:40:46.000Z</time>
      </trkpt>
      <trkpt lat="46.59728" lon="4.57849">
        <ele>257</ele>
        <time>2012-07-15T07:40:48.000Z</time>
      </trkpt>
      <trkpt lat="46.59715" lon="4.5784">
        <ele>257</ele>
        <time>2012-07-15T07:40:51.000Z</time>
      </trkpt>
      <trkpt lat="46.59689" lon="4.57804">
        <ele>256</ele>
        <time>2012-07-15T07:40:54.000Z</time>
      </trkpt>
      <trkpt lat="46.59679" lon="4.57794">
        <ele>256</ele>
        <time>2012-07-15T07:40:57.000Z</time>
      </trkpt>
      <trkpt lat="46.5966" lon="4.57776">
        <ele>255</ele>
        <time>2012-07-15T07:40:59.000Z</time>
      </trkpt>
      <trkpt lat="46.59642" lon="4.57753">
        <ele>253</ele>
        <time>2012-07-15T07:41:02.000Z</time>
      </trkpt>
      <trkpt lat="46.59631" lon="4.57738">
        <ele>252</ele>
        <time>2012-07-15T07:41:05.000Z</time>
      </trkpt>
      <trkpt lat="46.59612" lon="4.57719">
        <ele>251</ele>
        <time>2012-07-15T07:41:07.000Z</time>
      </trkpt>
      <trkpt lat="46.59591" lon="4.57696">
        <ele>250</ele>
        <time>2012-07-15T07:41:11.000Z</time>
      </trkpt>
      <trkpt lat="46.59576" lon="4.5769">
        <ele>249</ele>
        <time>2012-07-15T07:41:13.000Z</time>
      </trkpt>
      <trkpt lat="46.59554" lon="4.57682">
        <ele>248</ele>
        <time>2012-07-15T07:41:16.000Z</time>
      </trkpt>
      <trkpt lat="46.59529" lon="4.57671">
        <ele>247</ele>
        <time>2012-07-15T07:41:18.000Z</time>
      </trkpt>
      <trkpt lat="46.59516" lon="4.57664">
        <ele>246</ele>
        <time>2012-07-15T07:41:20.000Z</time>
      </trkpt>
      <trkpt lat="46.59503" lon="4.57661">
        <ele>245</ele>
        <time>2012-07-15T07:41:22.000Z</time>
      </trkpt>
      <trkpt lat="46.59488" lon="4.57657">
        <ele>244</ele>
        <time>2012-07-15T07:41:25.000Z</time>
      </trkpt>
      <trkpt lat="46.59463" lon="4.57653">
        <ele>243</ele>
        <time>2012-07-15T07:41:27.000Z</time>
      </trkpt>
      <trkpt lat="46.59447" lon="4.5765">
        <ele>242</ele>
        <time>2012-07-15T07:41:30.000Z</time>
      </trkpt>
      <trkpt lat="46.59403" lon="4.57643">
        <ele>241</ele>
        <time>2012-07-15T07:41:36.000Z</time>
      </trkpt>
      <trkpt lat="46.59386" lon="4.57639">
        <ele>240</ele>
        <time>2012-07-15T07:41:38.000Z</time>
      </trkpt>
      <trkpt lat="46.59358" lon="4.5763">
        <ele>239</ele>
        <time>2012-07-15T07:41:41.000Z</time>
      </trkpt>
      <trkpt lat="46.59331" lon="4.57614">
        <ele>238</ele>
        <time>2012-07-15T07:41:44.000Z</time>
      </trkpt>
      <trkpt lat="46.59312" lon="4.57604">
        <ele>237</ele>
        <time>2012-07-15T07:41:46.000Z</time>
      </trkpt>
      <trkpt lat="46.59289" lon="4.57596">
        <ele>235</ele>
        <time>2012-07-15T07:41:48.000Z</time>
      </trkpt>
      <trkpt lat="46.59257" lon="4.57581">
        <ele>234</ele>
        <time>2012-07-15T07:41:50.000Z</time>
      </trkpt>
      <trkpt lat="46.59238" lon="4.57565">
        <ele>232</ele>
        <time>2012-07-15T07:41:53.000Z</time>
      </trkpt>
      <trkpt lat="46.59209" lon="4.57545">
        <ele>231</ele>
        <time>2012-07-15T07:41:56.000Z</time>
      </trkpt>
      <trkpt lat="46.59182" lon="4.5755">
        <ele>229</ele>
        <time>2012-07-15T07:41:59.000Z</time>
      </trkpt>
      <trkpt lat="46.59172" lon="4.57546">
        <ele>228</ele>
        <time>2012-07-15T07:42:01.000Z</time>
      </trkpt>
      <trkpt lat="46.59164" lon="4.57527">
        <ele>228</ele>
        <time>2012-07-15T07:42:04.000Z</time>
      </trkpt>
      <trkpt lat="46.59172" lon="4.57497">
        <ele>227</ele>
        <time>2012-07-15T07:42:07.000Z</time>
      </trkpt>
      <trkpt lat="46.59174" lon="4.57478">
        <ele>227</ele>
        <time>2012-07-15T07:42:09.000Z</time>
      </trkpt>
      <trkpt lat="46.59177" lon="4.57464">
        <ele>226</ele>
        <time>2012-07-15T07:42:11.000Z</time>
      </trkpt>
      <trkpt lat="46.59176" lon="4.5745">
        <ele>226</ele>
        <time>2012-07-15T07:42:14.000Z</time>
      </trkpt>
      <trkpt lat="46.59171" lon="4.57432">
        <ele>225</ele>
        <time>2012-07-15T07:42:16.000Z</time>
      </trkpt>
      <trkpt lat="46.59163" lon="4.57419">
        <ele>225</ele>
        <time>2012-07-15T07:42:19.000Z</time>
      </trkpt>
      <trkpt lat="46.59158" lon="4.57403">
        <ele>225</ele>
        <time>2012-07-15T07:42:21.000Z</time>
      </trkpt>
      <trkpt lat="46.59145" lon="4.57364">
        <ele>224</ele>
        <time>2012-07-15T07:42:26.000Z</time>
      </trkpt>
      <trkpt lat="46.59141" lon="4.57347">
        <ele>224</ele>
        <time>2012-07-15T07:42:29.000Z</time>
      </trkpt>
      <trkpt lat="46.59139" lon="4.5733">
        <ele>223</ele>
        <time>2012-07-15T07:42:31.000Z</time>
      </trkpt>
      <trkpt lat="46.59135" lon="4.57318">
        <ele>223</ele>
        <time>2012-07-15T07:42:33.000Z</time>
      </trkpt>
      <trkpt lat="46.59129" lon="4.5728">
        <ele>223</ele>
        <time>2012-07-15T07:42:37.000Z</time>
      </trkpt>
      <trkpt lat="46.59126" lon="4.57264">
        <ele>222</ele>
        <time>2012-07-15T07:42:39.000Z</time>
      </trkpt>
      <trkpt lat="46.59122" lon="4.57249">
        <ele>222</ele>
        <time>2012-07-15T07:42:42.000Z</time>
      </trkpt>
      <trkpt lat="46.59116" lon="4.57222">
        <ele>222</ele>
        <time>2012-07-15T07:42:44.000Z</time>
      </trkpt>
      <trkpt lat="46.59114" lon="4.57151">
        <ele>222</ele>
        <time>2012-07-15T07:42:54.000Z</time>
      </trkpt>
      <trkpt lat="46.59116" lon="4.57136">
        <ele>222</ele>
        <time>2012-07-15T07:42:57.000Z</time>
      </trkpt>
      <trkpt lat="46.59132" lon="4.57068">
        <ele>222</ele>
        <time>2012-07-15T07:43:05.000Z</time>
      </trkpt>
      <trkpt lat="46.59135" lon="4.57033">
        <ele>222</ele>
        <time>2012-07-15T07:43:09.000Z</time>
      </trkpt>
      <trkpt lat="46.59132" lon="4.57024">
        <ele>222</ele>
        <time>2012-07-15T07:43:12.000Z</time>
      </trkpt>
      <trkpt lat="46.59117" lon="4.57012">
        <ele>221</ele>
        <time>2012-07-15T07:43:15.000Z</time>
      </trkpt>
      <trkpt lat="46.59101" lon="4.57009">
        <ele>221</ele>
        <time>2012-07-15T07:43:18.000Z</time>
      </trkpt>
      <trkpt lat="46.59086" lon="4.57001">
        <ele>221</ele>
        <time>2012-07-15T07:43:20.000Z</time>
      </trkpt>
      <trkpt lat="46.59082" lon="4.56994">
        <ele>221</ele>
        <time>2012-07-15T07:43:23.000Z</time>
      </trkpt>
      <trkpt lat="46.59068" lon="4.56983">
        <ele>220</ele>
        <time>2012-07-15T07:43:26.000Z</time>
      </trkpt>
      <trkpt lat="46.59054" lon="4.56976">
        <ele>220</ele>
        <time>2012-07-15T07:43:28.000Z</time>
      </trkpt>
      <trkpt lat="46.59045" lon="4.56968">
        <ele>220</ele>
        <time>2012-07-15T07:43:31.000Z</time>
      </trkpt>
      <trkpt lat="46.59032" lon="4.56943">
        <ele>220</ele>
        <time>2012-07-15T07:43:35.000Z</time>
      </trkpt>
      <trkpt lat="46.59027" lon="4.56931">
        <ele>221</ele>
        <time>2012-07-15T07:43:37.000Z</time>
      </trkpt>
      <trkpt lat="46.59018" lon="4.5692">
        <ele>221</ele>
        <time>2012-07-15T07:43:40.000Z</time>
      </trkpt>
      <trkpt lat="46.59011" lon="4.56903">
        <ele>221</ele>
        <time>2012-07-15T07:43:43.000Z</time>
      </trkpt>
      <trkpt lat="46.59007" lon="4.56889">
        <ele>221</ele>
        <time>2012-07-15T07:43:45.000Z</time>
      </trkpt>
      <trkpt lat="46.59002" lon="4.56878">
        <ele>221</ele>
        <time>2012-07-15T07:43:48.000Z</time>
      </trkpt>
      <trkpt lat="46.58993" lon="4.56864">
        <ele>221</ele>
        <time>2012-07-15T07:43:50.000Z</time>
      </trkpt>
      <trkpt lat="46.58989" lon="4.56853">
        <ele>221</ele>
        <time>2012-07-15T07:43:52.000Z</time>
      </trkpt>
      <trkpt lat="46.5896" lon="4.56798">
        <ele>221</ele>
        <time>2012-07-15T07:44:03.000Z</time>
      </trkpt>
      <trkpt lat="46.58953" lon="4.56784">
        <ele>220</ele>
        <time>2012-07-15T07:44:05.000Z</time>
      </trkpt>
      <trkpt lat="46.58928" lon="4.56716">
        <ele>220</ele>
        <time>2012-07-15T07:44:18.000Z</time>
      </trkpt>
      <trkpt lat="46.58921" lon="4.56708">
        <ele>220</ele>
        <time>2012-07-15T07:44:21.000Z</time>
      </trkpt>
      <trkpt lat="46.58916" lon="4.56705">
        <ele>220</ele>
        <time>2012-07-15T07:44:24.000Z</time>
      </trkpt>
      <trkpt lat="46.58904" lon="4.56693">
        <ele>220</ele>
        <time>2012-07-15T07:44:29.000Z</time>
      </trkpt>
      <trkpt lat="46.58894" lon="4.56689">
        <ele>220</ele>
        <time>2012-07-15T07:44:32.000Z</time>
      </trkpt>
      <trkpt lat="46.58886" lon="4.5669">
        <ele>220</ele>
        <time>2012-07-15T07:44:34.000Z</time>
      </trkpt>
      <trkpt lat="46.58842" lon="4.56692">
        <ele>220</ele>
        <time>2012-07-15T07:44:47.000Z</time>
      </trkpt>
      <trkpt lat="46.58834" lon="4.5669">
        <ele>221</ele>
        <time>2012-07-15T07:44:49.000Z</time>
      </trkpt>
      <trkpt lat="46.58808" lon="4.5669">
        <ele>221</ele>
        <time>2012-07-15T07:44:56.000Z</time>
      </trkpt>
      <trkpt lat="46.58803" lon="4.5669">
        <ele>221</ele>
        <time>2012-07-15T07:44:58.000Z</time>
      </trkpt>
      <trkpt lat="46.58797" lon="4.56691">
        <ele>221</ele>
        <time>2012-07-15T07:45:01.000Z</time>
      </trkpt>
      <trkpt lat="46.5876" lon="4.56696">
        <ele>221</ele>
        <time>2012-07-15T07:45:08.000Z</time>
      </trkpt>
      <trkpt lat="46.58744" lon="4.567">
        <ele>221</ele>
        <time>2012-07-15T07:45:13.000Z</time>
      </trkpt>
      <trkpt lat="46.58736" lon="4.56705">
        <ele>221</ele>
        <time>2012-07-15T07:45:17.000Z</time>
      </trkpt>
      <trkpt lat="46.58682" lon="4.56725">
        <ele>221</ele>
        <time>2012-07-15T07:45:32.000Z</time>
      </trkpt>
      <trkpt lat="46.58675" lon="4.56725">
        <ele>221</ele>
        <time>2012-07-15T07:45:35.000Z</time>
      </trkpt>
      <trkpt lat="46.58621" lon="4.56728">
        <ele>222</ele>
        <time>2012-07-15T07:45:48.000Z</time>
      </trkpt>
      <trkpt lat="46.58616" lon="4.5673">
        <ele>222</ele>
        <time>2012-07-15T07:45:50.000Z</time>
      </trkpt>
      <trkpt lat="46.58576" lon="4.5674">
        <ele>222</ele>
        <time>2012-07-15T07:46:03.000Z</time>
      </trkpt>
      <trkpt lat="46.58569" lon="4.56739">
        <ele>222</ele>
        <time>2012-07-15T07:46:06.000Z</time>
      </trkpt>
      <trkpt lat="46.58563" lon="4.56739">
        <ele>222</ele>
        <time>2012-07-15T07:46:09.000Z</time>
      </trkpt>
      <trkpt lat="46.58554" lon="4.56737">
        <ele>222</ele>
        <time>2012-07-15T07:46:14.000Z</time>
      </trkpt>
      <trkpt lat="46.58551" lon="4.56733">
        <ele>222</ele>
        <time>2012-07-15T07:46:16.000Z</time>
      </trkpt>
      <trkpt lat="46.58548" lon="4.56731">
        <ele>222</ele>
        <time>2012-07-15T07:46:18.000Z</time>
      </trkpt>
      <trkpt lat="46.58546" lon="4.56734">
        <ele>222</ele>
        <time>2012-07-15T07:46:21.000Z</time>
      </trkpt>
      <trkpt lat="46.58545" lon="4.56736">
        <ele>222</ele>
        <time>2012-07-15T07:46:24.000Z</time>
      </trkpt>
      <trkpt lat="46.58544" lon="4.5674">
        <ele>222</ele>
        <time>2012-07-15T07:46:29.000Z</time>
      </trkpt>
      <trkpt lat="46.58543" lon="4.56743">
        <ele>222</ele>
        <time>2012-07-15T07:46:32.000Z</time>
      </trkpt>
      <trkpt lat="46.58541" lon="4.56744">
        <ele>222</ele>
        <time>2012-07-15T07:46:34.000Z</time>
      </trkpt>
      <trkpt lat="46.5853" lon="4.56748">
        <ele>222</ele>
        <time>2012-07-15T07:46:41.000Z</time>
      </trkpt>
      <trkpt lat="46.5853" lon="4.56746">
        <ele>222</ele>
        <time>2012-07-15T07:46:44.000Z</time>
      </trkpt>
      <trkpt lat="46.58525" lon="4.56739">
        <ele>222</ele>
        <time>2012-07-15T07:46:49.000Z</time>
      </trkpt>
      <trkpt lat="46.58523" lon="4.56737">
        <ele>222</ele>
        <time>2012-07-15T07:46:51.000Z</time>
      </trkpt>
      <trkpt lat="46.5852" lon="4.56736">
        <ele>222</ele>
        <time>2012-07-15T07:46:53.000Z</time>
      </trkpt>
      <trkpt lat="46.58504" lon="4.56731">
        <ele>222</ele>
        <time>2012-07-15T07:47:02.000Z</time>
      </trkpt>
      <trkpt lat="46.58498" lon="4.5673">
        <ele>221</ele>
        <time>2012-07-15T07:47:05.000Z</time>
      </trkpt>
      <trkpt lat="46.5849" lon="4.56731">
        <ele>221</ele>
        <time>2012-07-15T07:47:08.000Z</time>
      </trkpt>
      <trkpt lat="46.58483" lon="4.56733">
        <ele>221</ele>
        <time>2012-07-15T07:47:13.000Z</time>
      </trkpt>
      <trkpt lat="46.58482" lon="4.56735">
        <ele>221</ele>
        <time>2012-07-15T07:47:15.000Z</time>
      </trkpt>
      <trkpt lat="46.5848" lon="4.56737">
        <ele>221</ele>
        <time>2012-07-15T07:47:17.000Z</time>
      </trkpt>
      <trkpt lat="46.58476" lon="4.56739">
        <ele>221</ele>
        <time>2012-07-15T07:47:20.000Z</time>
      </trkpt>
      <trkpt lat="46.58461" lon="4.56742">
        <ele>221</ele>
        <time>2012-07-15T07:47:24.000Z</time>
      </trkpt>
      <trkpt lat="46.58449" lon="4.56742">
        <ele>221</ele>
        <time>2012-07-15T07:47:27.000Z</time>
      </trkpt>
      <trkpt lat="46.58439" lon="4.56739">
        <ele>220</ele>
        <time>2012-07-15T07:47:30.000Z</time>
      </trkpt>
      <trkpt lat="46.58401" lon="4.56725">
        <ele>219</ele>
        <time>2012-07-15T07:47:40.000Z</time>
      </trkpt>
      <trkpt lat="46.58372" lon="4.56719">
        <ele>219</ele>
        <time>2012-07-15T07:47:48.000Z</time>
      </trkpt>
      <trkpt lat="46.5836" lon="4.5672">
        <ele>219</ele>
        <time>2012-07-15T07:47:51.000Z</time>
      </trkpt>
      <trkpt lat="46.58345" lon="4.56724">
        <ele>219</ele>
        <time>2012-07-15T07:47:56.000Z</time>
      </trkpt>
      <trkpt lat="46.58339" lon="4.56727">
        <ele>219</ele>
        <time>2012-07-15T07:47:59.000Z</time>
      </trkpt>
      <trkpt lat="46.58332" lon="4.56732">
        <ele>219</ele>
        <time>2012-07-15T07:48:02.000Z</time>
      </trkpt>
      <trkpt lat="46.58326" lon="4.56739">
        <ele>219</ele>
        <time>2012-07-15T07:48:05.000Z</time>
      </trkpt>
      <trkpt lat="46.58313" lon="4.56752">
        <ele>219</ele>
        <time>2012-07-15T07:48:10.000Z</time>
      </trkpt>
      <trkpt lat="46.58307" lon="4.56757">
        <ele>219</ele>
        <time>2012-07-15T07:48:12.000Z</time>
      </trkpt>
      <trkpt lat="46.583" lon="4.56764">
        <ele>219</ele>
        <time>2012-07-15T07:48:15.000Z</time>
      </trkpt>
      <trkpt lat="46.58273" lon="4.56798">
        <ele>220</ele>
        <time>2012-07-15T07:48:28.000Z</time>
      </trkpt>
      <trkpt lat="46.58263" lon="4.56807">
        <ele>220</ele>
        <time>2012-07-15T07:48:33.000Z</time>
      </trkpt>
      <trkpt lat="46.58259" lon="4.56808">
        <ele>220</ele>
        <time>2012-07-15T07:48:35.000Z</time>
      </trkpt>
      <trkpt lat="46.58254" lon="4.56815">
        <ele>220</ele>
        <time>2012-07-15T07:48:37.000Z</time>
      </trkpt>
      <trkpt lat="46.5825" lon="4.56817">
        <ele>220</ele>
        <time>2012-07-15T07:48:40.000Z</time>
      </trkpt>
      <trkpt lat="46.58243" lon="4.56818">
        <ele>220</ele>
        <time>2012-07-15T07:48:42.000Z</time>
      </trkpt>
      <trkpt lat="46.58234" lon="4.56819">
        <ele>221</ele>
        <time>2012-07-15T07:48:45.000Z</time>
      </trkpt>
      <trkpt lat="46.5823" lon="4.56823">
        <ele>221</ele>
        <time>2012-07-15T07:48:47.000Z</time>
      </trkpt>
      <trkpt lat="46.58225" lon="4.56833">
        <ele>221</ele>
        <time>2012-07-15T07:48:50.000Z</time>
      </trkpt>
      <trkpt lat="46.58212" lon="4.56852">
        <ele>222</ele>
        <time>2012-07-15T07:48:55.000Z</time>
      </trkpt>
      <trkpt lat="46.58208" lon="4.56857">
        <ele>222</ele>
        <time>2012-07-15T07:48:57.000Z</time>
      </trkpt>
      <trkpt lat="46.58203" lon="4.5686">
        <ele>223</ele>
        <time>2012-07-15T07:49:00.000Z</time>
      </trkpt>
      <trkpt lat="46.58201" lon="4.56859">
        <ele>223</ele>
        <time>2012-07-15T07:49:02.000Z</time>
      </trkpt>
      <trkpt lat="46.58199" lon="4.56857">
        <ele>224</ele>
        <time>2012-07-15T07:49:04.000Z</time>
      </trkpt>
      <trkpt lat="46.58193" lon="4.56854">
        <ele>224</ele>
        <time>2012-07-15T07:49:07.000Z</time>
      </trkpt>
      <trkpt lat="46.58185" lon="4.56852">
        <ele>224</ele>
        <time>2012-07-15T07:49:09.000Z</time>
      </trkpt>
      <trkpt lat="46.58179" lon="4.56853">
        <ele>224</ele>
        <time>2012-07-15T07:49:12.000Z</time>
      </trkpt>
      <trkpt lat="46.5816" lon="4.56853">
        <ele>225</ele>
        <time>2012-07-15T07:49:20.000Z</time>
      </trkpt>
      <trkpt lat="46.58141" lon="4.56855">
        <ele>226</ele>
        <time>2012-07-15T07:49:27.000Z</time>
      </trkpt>
      <trkpt lat="46.5813" lon="4.56853">
        <ele>227</ele>
        <time>2012-07-15T07:49:32.000Z</time>
      </trkpt>
      <trkpt lat="46.58126" lon="4.56852">
        <ele>227</ele>
        <time>2012-07-15T07:49:34.000Z</time>
      </trkpt>
      <trkpt lat="46.5812" lon="4.56851">
        <ele>228</ele>
        <time>2012-07-15T07:49:36.000Z</time>
      </trkpt>
      <trkpt lat="46.58116" lon="4.5685">
        <ele>228</ele>
        <time>2012-07-15T07:49:39.000Z</time>
      </trkpt>
      <trkpt lat="46.58112" lon="4.56851">
        <ele>228</ele>
        <time>2012-07-15T07:49:42.000Z</time>
      </trkpt>
      <trkpt lat="46.58107" lon="4.56852">
        <ele>228</ele>
        <time>2012-07-15T07:49:44.000Z</time>
      </trkpt>
      <trkpt lat="46.58104" lon="4.56853">
        <ele>229</ele>
        <time>2012-07-15T07:49:47.000Z</time>
      </trkpt>
      <trkpt lat="46.5811" lon="4.56864">
        <ele>229</ele>
        <time>2012-07-15T07:49:50.000Z</time>
      </trkpt>
      <trkpt lat="46.58105" lon="4.56861">
        <ele>230</ele>
        <time>2012-07-15T07:49:53.000Z</time>
      </trkpt>
      <trkpt lat="46.58093" lon="4.56853">
        <ele>230</ele>
        <time>2012-07-15T07:49:55.000Z</time>
      </trkpt>
      <trkpt lat="46.58061" lon="4.56838">
        <ele>231</ele>
        <time>2012-07-15T07:50:06.000Z</time>
      </trkpt>
      <trkpt lat="46.58053" lon="4.56835">
        <ele>231</ele>
        <time>2012-07-15T07:50:09.000Z</time>
      </trkpt>
      <trkpt lat="46.58047" lon="4.56834">
        <ele>231</ele>
        <time>2012-07-15T07:50:12.000Z</time>
      </trkpt>
      <trkpt lat="46.58042" lon="4.56835">
        <ele>231</ele>
        <time>2012-07-15T07:50:14.000Z</time>
      </trkpt>
      <trkpt lat="46.58037" lon="4.56837">
        <ele>231</ele>
        <time>2012-07-15T07:50:16.000Z</time>
      </trkpt>
      <trkpt lat="46.5803" lon="4.56841">
        <ele>232</ele>
        <time>2012-07-15T07:50:19.000Z</time>
      </trkpt>
      <trkpt lat="46.58027" lon="4.56846">
        <ele>232</ele>
        <time>2012-07-15T07:50:22.000Z</time>
      </trkpt>
      <trkpt lat="46.58026" lon="4.56849">
        <ele>232</ele>
        <time>2012-07-15T07:50:24.000Z</time>
      </trkpt>
      <trkpt lat="46.5803" lon="4.56854">
        <ele>233</ele>
        <time>2012-07-15T07:50:26.000Z</time>
      </trkpt>
      <trkpt lat="46.58031" lon="4.56858">
        <ele>233</ele>
        <time>2012-07-15T07:50:29.000Z</time>
      </trkpt>
      <trkpt lat="46.58034" lon="4.56861">
        <ele>233</ele>
        <time>2012-07-15T07:50:31.000Z</time>
      </trkpt>
      <trkpt lat="46.58037" lon="4.56865">
        <ele>233</ele>
        <time>2012-07-15T07:50:34.000Z</time>
      </trkpt>
      <trkpt lat="46.5804" lon="4.56867">
        <ele>233</ele>
        <time>2012-07-15T07:50:37.000Z</time>
      </trkpt>
      <trkpt lat="46.58043" lon="4.56869">
        <ele>233</ele>
        <time>2012-07-15T07:50:39.000Z</time>
      </trkpt>
      <trkpt lat="46.58047" lon="4.56873">
        <ele>234</ele>
        <time>2012-07-15T07:50:42.000Z</time>
      </trkpt>
      <trkpt lat="46.5805" lon="4.56875">
        <ele>234</ele>
        <time>2012-07-15T07:50:44.000Z</time>
      </trkpt>
      <trkpt lat="46.58054" lon="4.56877">
        <ele>234</ele>
        <time>2012-07-15T07:50:47.000Z</time>
      </trkpt>
      <trkpt lat="46.58059" lon="4.56881">
        <ele>234</ele>
        <time>2012-07-15T07:50:49.000Z</time>
      </trkpt>
      <trkpt lat="46.58061" lon="4.56885">
        <ele>234</ele>
        <time>2012-07-15T07:50:52.000Z</time>
      </trkpt>
      <trkpt lat="46.58067" lon="4.56893">
        <ele>235</ele>
        <time>2012-07-15T07:50:57.000Z</time>
      </trkpt>
      <trkpt lat="46.58072" lon="4.56895">
        <ele>235</ele>
        <time>2012-07-15T07:51:00.000Z</time>
      </trkpt>
      <trkpt lat="46.58076" lon="4.56893">
        <ele>235</ele>
        <time>2012-07-15T07:51:02.000Z</time>
      </trkpt>
      <trkpt lat="46.58081" lon="4.56893">
        <ele>235</ele>
        <time>2012-07-15T07:51:05.000Z</time>
      </trkpt>
      <trkpt lat="46.58084" lon="4.56896">
        <ele>235</ele>
        <time>2012-07-15T07:51:07.000Z</time>
      </trkpt>
      <trkpt lat="46.58088" lon="4.56901">
        <ele>236</ele>
        <time>2012-07-15T07:51:10.000Z</time>
      </trkpt>
      <trkpt lat="46.58089" lon="4.56911">
        <ele>236</ele>
        <time>2012-07-15T07:51:13.000Z</time>
      </trkpt>
      <trkpt lat="46.58091" lon="4.56915">
        <ele>236</ele>
        <time>2012-07-15T07:51:15.000Z</time>
      </trkpt>
      <trkpt lat="46.58093" lon="4.56923">
        <ele>237</ele>
        <time>2012-07-15T07:51:17.000Z</time>
      </trkpt>
      <trkpt lat="46.58096" lon="4.5693">
        <ele>237</ele>
        <time>2012-07-15T07:51:19.000Z</time>
      </trkpt>
      <trkpt lat="46.58099" lon="4.56935">
        <ele>237</ele>
        <time>2012-07-15T07:51:22.000Z</time>
      </trkpt>
      <trkpt lat="46.58103" lon="4.56941">
        <ele>238</ele>
        <time>2012-07-15T07:51:25.000Z</time>
      </trkpt>
      <trkpt lat="46.58121" lon="4.56968">
        <ele>239</ele>
        <time>2012-07-15T07:51:40.000Z</time>
      </trkpt>
      <trkpt lat="46.58134" lon="4.56993">
        <ele>240</ele>
        <time>2012-07-15T07:51:49.000Z</time>
      </trkpt>
      <trkpt lat="46.58144" lon="4.57013">
        <ele>241</ele>
        <time>2012-07-15T07:51:55.000Z</time>
      </trkpt>
      <trkpt lat="46.58152" lon="4.57037">
        <ele>242</ele>
        <time>2012-07-15T07:52:03.000Z</time>
      </trkpt>
      <trkpt lat="46.58161" lon="4.57058">
        <ele>243</ele>
        <time>2012-07-15T07:52:10.000Z</time>
      </trkpt>
      <trkpt lat="46.58171" lon="4.5708">
        <ele>244</ele>
        <time>2012-07-15T07:52:18.000Z</time>
      </trkpt>
      <trkpt lat="46.58181" lon="4.57097">
        <ele>245</ele>
        <time>2012-07-15T07:52:25.000Z</time>
      </trkpt>
      <trkpt lat="46.58186" lon="4.57108">
        <ele>245</ele>
        <time>2012-07-15T07:52:30.000Z</time>
      </trkpt>
      <trkpt lat="46.58186" lon="4.57108">
        <ele>245</ele>
        <time>2012-07-15T07:52:50.000Z</time>
      </trkpt>
      <trkpt lat="46.58184" lon="4.57105">
        <ele>245</ele>
        <time>2012-07-15T07:53:11.000Z</time>
      </trkpt>
      <trkpt lat="46.58184" lon="4.57105">
        <ele>245</ele>
        <time>2012-07-15T07:53:31.000Z</time>
      </trkpt>
      <trkpt lat="46.58187" lon="4.57108">
        <ele>245</ele>
        <time>2012-07-15T07:54:01.000Z</time>
      </trkpt>
      <trkpt lat="46.58189" lon="4.57113">
        <ele>245</ele>
        <time>2012-07-15T07:54:04.000Z</time>
      </trkpt>
      <trkpt lat="46.58191" lon="4.57117">
        <ele>245</ele>
        <time>2012-07-15T07:54:06.000Z</time>
      </trkpt>
      <trkpt lat="46.58194" lon="4.57124">
        <ele>245</ele>
        <time>2012-07-15T07:54:08.000Z</time>
      </trkpt>
      <trkpt lat="46.58224" lon="4.57197">
        <ele>245</ele>
        <time>2012-07-15T07:54:23.000Z</time>
      </trkpt>
      <trkpt lat="46.58228" lon="4.57218">
        <ele>245</ele>
        <time>2012-07-15T07:54:26.000Z</time>
      </trkpt>
      <trkpt lat="46.58239" lon="4.57257">
        <ele>246</ele>
        <time>2012-07-15T07:54:33.000Z</time>
      </trkpt>
      <trkpt lat="46.5825" lon="4.57334">
        <ele>246</ele>
        <time>2012-07-15T07:54:46.000Z</time>
      </trkpt>
      <trkpt lat="46.58268" lon="4.57414">
        <ele>247</ele>
        <time>2012-07-15T07:54:59.000Z</time>
      </trkpt>
      <trkpt lat="46.58276" lon="4.57432">
        <ele>247</ele>
        <time>2012-07-15T07:55:02.000Z</time>
      </trkpt>
      <trkpt lat="46.58301" lon="4.57486">
        <ele>247</ele>
        <time>2012-07-15T07:55:12.000Z</time>
      </trkpt>
      <trkpt lat="46.58309" lon="4.57499">
        <ele>248</ele>
        <time>2012-07-15T07:55:15.000Z</time>
      </trkpt>
      <trkpt lat="46.58327" lon="4.57528">
        <ele>249</ele>
        <time>2012-07-15T07:55:21.000Z</time>
      </trkpt>
      <trkpt lat="46.58342" lon="4.57552">
        <ele>250</ele>
        <time>2012-07-15T07:55:27.000Z</time>
      </trkpt>
      <trkpt lat="46.58348" lon="4.57562">
        <ele>251</ele>
        <time>2012-07-15T07:55:30.000Z</time>
      </trkpt>
      <trkpt lat="46.58357" lon="4.5758">
        <ele>252</ele>
        <time>2012-07-15T07:55:34.000Z</time>
      </trkpt>
      <trkpt lat="46.5836" lon="4.57587">
        <ele>253</ele>
        <time>2012-07-15T07:55:37.000Z</time>
      </trkpt>
      <trkpt lat="46.58361" lon="4.57594">
        <ele>253</ele>
        <time>2012-07-15T07:55:39.000Z</time>
      </trkpt>
      <trkpt lat="46.58363" lon="4.57605">
        <ele>254</ele>
        <time>2012-07-15T07:55:42.000Z</time>
      </trkpt>
      <trkpt lat="46.58364" lon="4.57612">
        <ele>255</ele>
        <time>2012-07-15T07:55:44.000Z</time>
      </trkpt>
      <trkpt lat="46.5837" lon="4.57634">
        <ele>256</ele>
        <time>2012-07-15T07:55:50.000Z</time>
      </trkpt>
      <trkpt lat="46.58372" lon="4.57649">
        <ele>257</ele>
        <time>2012-07-15T07:55:55.000Z</time>
      </trkpt>
      <trkpt lat="46.58372" lon="4.57661">
        <ele>257</ele>
        <time>2012-07-15T07:55:58.000Z</time>
      </trkpt>
      <trkpt lat="46.58372" lon="4.57669">
        <ele>258</ele>
        <time>2012-07-15T07:56:00.000Z</time>
      </trkpt>
      <trkpt lat="46.58374" lon="4.5768">
        <ele>258</ele>
        <time>2012-07-15T07:56:03.000Z</time>
      </trkpt>
      <trkpt lat="46.58377" lon="4.57691">
        <ele>259</ele>
        <time>2012-07-15T07:56:06.000Z</time>
      </trkpt>
      <trkpt lat="46.58376" lon="4.57699">
        <ele>259</ele>
        <time>2012-07-15T07:56:08.000Z</time>
      </trkpt>
      <trkpt lat="46.58377" lon="4.57708">
        <ele>260</ele>
        <time>2012-07-15T07:56:11.000Z</time>
      </trkpt>
      <trkpt lat="46.58379" lon="4.57711">
        <ele>260</ele>
        <time>2012-07-15T07:56:13.000Z</time>
      </trkpt>
      <trkpt lat="46.58382" lon="4.57717">
        <ele>261</ele>
        <time>2012-07-15T07:56:16.000Z</time>
      </trkpt>
      <trkpt lat="46.58384" lon="4.57723">
        <ele>261</ele>
        <time>2012-07-15T07:56:18.000Z</time>
      </trkpt>
      <trkpt lat="46.58387" lon="4.57732">
        <ele>262</ele>
        <time>2012-07-15T07:56:21.000Z</time>
      </trkpt>
      <trkpt lat="46.58395" lon="4.5775">
        <ele>263</ele>
        <time>2012-07-15T07:56:28.000Z</time>
      </trkpt>
      <trkpt lat="46.584" lon="4.5776">
        <ele>264</ele>
        <time>2012-07-15T07:56:33.000Z</time>
      </trkpt>
      <trkpt lat="46.58405" lon="4.57767">
        <ele>265</ele>
        <time>2012-07-15T07:56:38.000Z</time>
      </trkpt>
      <trkpt lat="46.58408" lon="4.5777">
        <ele>265</ele>
        <time>2012-07-15T07:56:40.000Z</time>
      </trkpt>
      <trkpt lat="46.58416" lon="4.57777">
        <ele>266</ele>
        <time>2012-07-15T07:56:45.000Z</time>
      </trkpt>
      <trkpt lat="46.58434" lon="4.57793">
        <ele>267</ele>
        <time>2012-07-15T07:56:56.000Z</time>
      </trkpt>
      <trkpt lat="46.58459" lon="4.57814">
        <ele>268</ele>
        <time>2012-07-15T07:57:12.000Z</time>
      </trkpt>
      <trkpt lat="46.58481" lon="4.57836">
        <ele>269</ele>
        <time>2012-07-15T07:57:25.000Z</time>
      </trkpt>
      <trkpt lat="46.5852" lon="4.57873">
        <ele>269</ele>
        <time>2012-07-15T07:57:48.000Z</time>
      </trkpt>
      <trkpt lat="46.5856" lon="4.57907">
        <ele>269</ele>
        <time>2012-07-15T07:58:03.000Z</time>
      </trkpt>
      <trkpt lat="46.58569" lon="4.57911">
        <ele>269</ele>
        <time>2012-07-15T07:58:05.000Z</time>
      </trkpt>
      <trkpt lat="46.58622" lon="4.57937">
        <ele>269</ele>
        <time>2012-07-15T07:58:23.000Z</time>
      </trkpt>
      <trkpt lat="46.58628" lon="4.5794">
        <ele>268</ele>
        <time>2012-07-15T07:58:25.000Z</time>
      </trkpt>
      <trkpt lat="46.5866" lon="4.57971">
        <ele>268</ele>
        <time>2012-07-15T07:58:36.000Z</time>
      </trkpt>
      <trkpt lat="46.58664" lon="4.57985">
        <ele>267</ele>
        <time>2012-07-15T07:58:39.000Z</time>
      </trkpt>
      <trkpt lat="46.58667" lon="4.57998">
        <ele>268</ele>
        <time>2012-07-15T07:58:41.000Z</time>
      </trkpt>
      <trkpt lat="46.58676" lon="4.58019">
        <ele>267</ele>
        <time>2012-07-15T07:58:47.000Z</time>
      </trkpt>
      <trkpt lat="46.58689" lon="4.58057">
        <ele>266</ele>
        <time>2012-07-15T07:58:54.000Z</time>
      </trkpt>
      <trkpt lat="46.58696" lon="4.58077">
        <ele>265</ele>
        <time>2012-07-15T07:59:00.000Z</time>
      </trkpt>
      <trkpt lat="46.58698" lon="4.5809">
        <ele>265</ele>
        <time>2012-07-15T07:59:03.000Z</time>
      </trkpt>
      <trkpt lat="46.587" lon="4.58102">
        <ele>264</ele>
        <time>2012-07-15T07:59:06.000Z</time>
      </trkpt>
      <trkpt lat="46.58702" lon="4.58109">
        <ele>264</ele>
        <time>2012-07-15T07:59:08.000Z</time>
      </trkpt>
      <trkpt lat="46.58708" lon="4.58135">
        <ele>264</ele>
        <time>2012-07-15T07:59:14.000Z</time>
      </trkpt>
      <trkpt lat="46.58712" lon="4.58156">
        <ele>265</ele>
        <time>2012-07-15T07:59:19.000Z</time>
      </trkpt>
      <trkpt lat="46.58718" lon="4.58177">
        <ele>265</ele>
        <time>2012-07-15T07:59:24.000Z</time>
      </trkpt>
      <trkpt lat="46.5872" lon="4.58188">
        <ele>265</ele>
        <time>2012-07-15T07:59:27.000Z</time>
      </trkpt>
      <trkpt lat="46.58737" lon="4.58256">
        <ele>265</ele>
        <time>2012-07-15T07:59:46.000Z</time>
      </trkpt>
      <trkpt lat="46.5875" lon="4.58287">
        <ele>265</ele>
        <time>2012-07-15T07:59:57.000Z</time>
      </trkpt>
      <trkpt lat="46.58756" lon="4.58289">
        <ele>265</ele>
        <time>2012-07-15T08:00:00.000Z</time>
      </trkpt>
      <trkpt lat="46.58763" lon="4.58293">
        <ele>265</ele>
        <time>2012-07-15T08:00:03.000Z</time>
      </trkpt>
      <trkpt lat="46.58766" lon="4.58298">
        <ele>265</ele>
        <time>2012-07-15T08:00:06.000Z</time>
      </trkpt>
      <trkpt lat="46.58765" lon="4.5831">
        <ele>265</ele>
        <time>2012-07-15T08:00:09.000Z</time>
      </trkpt>
      <trkpt lat="46.58763" lon="4.58318">
        <ele>265</ele>
        <time>2012-07-15T08:00:11.000Z</time>
      </trkpt>
      <trkpt lat="46.5876" lon="4.58321">
        <ele>266</ele>
        <time>2012-07-15T08:00:14.000Z</time>
      </trkpt>
      <trkpt lat="46.58756" lon="4.5833">
        <ele>267</ele>
        <time>2012-07-15T08:00:19.000Z</time>
      </trkpt>
      <trkpt lat="46.58754" lon="4.58334">
        <ele>268</ele>
        <time>2012-07-15T08:00:21.000Z</time>
      </trkpt>
      <trkpt lat="46.58752" lon="4.5834">
        <ele>269</ele>
        <time>2012-07-15T08:00:26.000Z</time>
      </trkpt>
      <trkpt lat="46.58751" lon="4.58342">
        <ele>269</ele>
        <time>2012-07-15T08:00:28.000Z</time>
      </trkpt>
      <trkpt lat="46.58749" lon="4.58342">
        <ele>269</ele>
        <time>2012-07-15T08:00:31.000Z</time>
      </trkpt>
      <trkpt lat="46.58748" lon="4.58342">
        <ele>270</ele>
        <time>2012-07-15T08:00:33.000Z</time>
      </trkpt>
      <trkpt lat="46.58747" lon="4.58339">
        <ele>270</ele>
        <time>2012-07-15T08:00:36.000Z</time>
      </trkpt>
      <trkpt lat="46.58747" lon="4.58341">
        <ele>270</ele>
        <time>2012-07-15T08:00:48.000Z</time>
      </trkpt>
      <trkpt lat="46.58747" lon="4.58344">
        <ele>270</ele>
        <time>2012-07-15T08:00:52.000Z</time>
      </trkpt>
      <trkpt lat="46.58748" lon="4.58349">
        <ele>270</ele>
        <time>2012-07-15T08:00:54.000Z</time>
      </trkpt>
      <trkpt lat="46.5875" lon="4.58353">
        <ele>270</ele>
        <time>2012-07-15T08:00:57.000Z</time>
      </trkpt>
      <trkpt lat="46.58751" lon="4.58357">
        <ele>271</ele>
        <time>2012-07-15T08:00:59.000Z</time>
      </trkpt>
      <trkpt lat="46.5875" lon="4.58363">
        <ele>271</ele>
        <time>2012-07-15T08:01:02.000Z</time>
      </trkpt>
      <trkpt lat="46.58751" lon="4.58365">
        <ele>271</ele>
        <time>2012-07-15T08:01:04.000Z</time>
      </trkpt>
      <trkpt lat="46.58751" lon="4.58366">
        <ele>272</ele>
        <time>2012-07-15T08:01:06.000Z</time>
      </trkpt>
      <trkpt lat="46.58752" lon="4.58369">
        <ele>272</ele>
        <time>2012-07-15T08:01:09.000Z</time>
      </trkpt>
      <trkpt lat="46.58752" lon="4.58372">
        <ele>272</ele>
        <time>2012-07-15T08:01:11.000Z</time>
      </trkpt>
      <trkpt lat="46.58751" lon="4.58383">
        <ele>273</ele>
        <time>2012-07-15T08:01:17.000Z</time>
      </trkpt>
      <trkpt lat="46.5875" lon="4.58389">
        <ele>274</ele>
        <time>2012-07-15T08:01:22.000Z</time>
      </trkpt>
      <trkpt lat="46.58748" lon="4.58398">
        <ele>275</ele>
        <time>2012-07-15T08:01:30.000Z</time>
      </trkpt>
      <trkpt lat="46.58747" lon="4.58399">
        <ele>275</ele>
        <time>2012-07-15T08:01:32.000Z</time>
      </trkpt>
      <trkpt lat="46.58746" lon="4.58399">
        <ele>275</ele>
        <time>2012-07-15T08:01:38.000Z</time>
      </trkpt>
      <trkpt lat="46.58746" lon="4.58401">
        <ele>276</ele>
        <time>2012-07-15T08:01:40.000Z</time>
      </trkpt>
      <trkpt lat="46.58743" lon="4.58419">
        <ele>276</ele>
        <time>2012-07-15T08:01:49.000Z</time>
      </trkpt>
      <trkpt lat="46.58742" lon="4.58425">
        <ele>277</ele>
        <time>2012-07-15T08:01:52.000Z</time>
      </trkpt>
      <trkpt lat="46.58739" lon="4.58434">
        <ele>278</ele>
        <time>2012-07-15T08:01:57.000Z</time>
      </trkpt>
      <trkpt lat="46.58737" lon="4.58438">
        <ele>278</ele>
        <time>2012-07-15T08:01:59.000Z</time>
      </trkpt>
      <trkpt lat="46.58733" lon="4.58447">
        <ele>279</ele>
        <time>2012-07-15T08:02:04.000Z</time>
      </trkpt>
      <trkpt lat="46.5873" lon="4.5846">
        <ele>280</ele>
        <time>2012-07-15T08:02:11.000Z</time>
      </trkpt>
      <trkpt lat="46.58727" lon="4.58483">
        <ele>281</ele>
        <time>2012-07-15T08:02:23.000Z</time>
      </trkpt>
      <trkpt lat="46.58726" lon="4.58495">
        <ele>282</ele>
        <time>2012-07-15T08:02:28.000Z</time>
      </trkpt>
      <trkpt lat="46.58725" lon="4.58501">
        <ele>282</ele>
        <time>2012-07-15T08:02:30.000Z</time>
      </trkpt>
      <trkpt lat="46.58723" lon="4.58513">
        <ele>283</ele>
        <time>2012-07-15T08:02:34.000Z</time>
      </trkpt>
      <trkpt lat="46.5872" lon="4.58534">
        <ele>284</ele>
        <time>2012-07-15T08:02:44.000Z</time>
      </trkpt>
      <trkpt lat="46.58716" lon="4.5855">
        <ele>285</ele>
        <time>2012-07-15T08:02:52.000Z</time>
      </trkpt>
      <trkpt lat="46.58709" lon="4.58573">
        <ele>286</ele>
        <time>2012-07-15T08:03:02.000Z</time>
      </trkpt>
      <trkpt lat="46.58704" lon="4.58592">
        <ele>287</ele>
        <time>2012-07-15T08:03:10.000Z</time>
      </trkpt>
      <trkpt lat="46.58701" lon="4.58609">
        <ele>288</ele>
        <time>2012-07-15T08:03:17.000Z</time>
      </trkpt>
      <trkpt lat="46.58701" lon="4.58618">
        <ele>288</ele>
        <time>2012-07-15T08:03:29.000Z</time>
      </trkpt>
      <trkpt lat="46.58698" lon="4.5862">
        <ele>288</ele>
        <time>2012-07-15T08:03:48.000Z</time>
      </trkpt>
      <trkpt lat="46.58696" lon="4.5862">
        <ele>289</ele>
        <time>2012-07-15T08:03:50.000Z</time>
      </trkpt>
      <trkpt lat="46.58694" lon="4.58619">
        <ele>289</ele>
        <time>2012-07-15T08:03:53.000Z</time>
      </trkpt>
      <trkpt lat="46.58694" lon="4.58619">
        <ele>289</ele>
        <time>2012-07-15T08:04:13.000Z</time>
      </trkpt>
      <trkpt lat="46.5869" lon="4.58623">
        <ele>289</ele>
        <time>2012-07-15T08:04:22.000Z</time>
      </trkpt>
      <trkpt lat="46.5869" lon="4.58623">
        <ele>289</ele>
        <time>2012-07-15T08:04:42.000Z</time>
      </trkpt>
      <trkpt lat="46.58691" lon="4.58623">
        <ele>289</ele>
        <time>2012-07-15T08:04:50.000Z</time>
      </trkpt>
      <trkpt lat="46.58689" lon="4.5862">
        <ele>289</ele>
        <time>2012-07-15T08:04:57.000Z</time>
      </trkpt>
      <trkpt lat="46.5869" lon="4.58622">
        <ele>289</ele>
        <time>2012-07-15T08:05:03.000Z</time>
      </trkpt>
      <trkpt lat="46.58692" lon="4.5862">
        <ele>289</ele>
        <time>2012-07-15T08:05:07.000Z</time>
      </trkpt>
      <trkpt lat="46.58692" lon="4.5862">
        <ele>289</ele>
        <time>2012-07-15T08:05:27.000Z</time>
      </trkpt>
      <trkpt lat="46.58694" lon="4.5862">
        <ele>289</ele>
        <time>2012-07-15T08:06:06.000Z</time>
      </trkpt>
      <trkpt lat="46.58695" lon="4.58621">
        <ele>289</ele>
        <time>2012-07-15T08:06:08.000Z</time>
      </trkpt>
      <trkpt lat="46.58714" lon="4.58632">
        <ele>289</ele>
        <time>2012-07-15T08:06:16.000Z</time>
      </trkpt>
      <trkpt lat="46.58751" lon="4.58653">
        <ele>288</ele>
        <time>2012-07-15T08:06:27.000Z</time>
      </trkpt>
      <trkpt lat="46.58759" lon="4.58658">
        <ele>289</ele>
        <time>2012-07-15T08:06:30.000Z</time>
      </trkpt>
      <trkpt lat="46.58765" lon="4.5866">
        <ele>289</ele>
        <time>2012-07-15T08:06:32.000Z</time>
      </trkpt>
      <trkpt lat="46.58778" lon="4.5866">
        <ele>289</ele>
        <time>2012-07-15T08:06:35.000Z</time>
      </trkpt>
      <trkpt lat="46.58787" lon="4.58658">
        <ele>290</ele>
        <time>2012-07-15T08:06:37.000Z</time>
      </trkpt>
      <trkpt lat="46.58805" lon="4.58652">
        <ele>291</ele>
        <time>2012-07-15T08:06:42.000Z</time>
      </trkpt>
      <trkpt lat="46.58814" lon="4.5865">
        <ele>291</ele>
        <time>2012-07-15T08:06:45.000Z</time>
      </trkpt>
      <trkpt lat="46.58819" lon="4.5865">
        <ele>292</ele>
        <time>2012-07-15T08:06:47.000Z</time>
      </trkpt>
      <trkpt lat="46.58825" lon="4.5865">
        <ele>292</ele>
        <time>2012-07-15T08:06:50.000Z</time>
      </trkpt>
      <trkpt lat="46.58833" lon="4.58647">
        <ele>292</ele>
        <time>2012-07-15T08:06:53.000Z</time>
      </trkpt>
      <trkpt lat="46.5884" lon="4.58644">
        <ele>293</ele>
        <time>2012-07-15T08:06:56.000Z</time>
      </trkpt>
      <trkpt lat="46.58846" lon="4.58643">
        <ele>293</ele>
        <time>2012-07-15T08:06:59.000Z</time>
      </trkpt>
      <trkpt lat="46.58852" lon="4.58645">
        <ele>293</ele>
        <time>2012-07-15T08:07:02.000Z</time>
      </trkpt>
      <trkpt lat="46.5886" lon="4.58647">
        <ele>294</ele>
        <time>2012-07-15T08:07:05.000Z</time>
      </trkpt>
      <trkpt lat="46.58867" lon="4.58647">
        <ele>294</ele>
        <time>2012-07-15T08:07:08.000Z</time>
      </trkpt>
      <trkpt lat="46.58871" lon="4.58645">
        <ele>294</ele>
        <time>2012-07-15T08:07:10.000Z</time>
      </trkpt>
      <trkpt lat="46.5888" lon="4.58646">
        <ele>295</ele>
        <time>2012-07-15T08:07:13.000Z</time>
      </trkpt>
      <trkpt lat="46.589" lon="4.58648">
        <ele>296</ele>
        <time>2012-07-15T08:07:19.000Z</time>
      </trkpt>
      <trkpt lat="46.58916" lon="4.5865">
        <ele>297</ele>
        <time>2012-07-15T08:07:24.000Z</time>
      </trkpt>
      <trkpt lat="46.58927" lon="4.58656">
        <ele>297</ele>
        <time>2012-07-15T08:07:27.000Z</time>
      </trkpt>
      <trkpt lat="46.58944" lon="4.58666">
        <ele>298</ele>
        <time>2012-07-15T08:07:32.000Z</time>
      </trkpt>
      <trkpt lat="46.5897" lon="4.58676">
        <ele>298</ele>
        <time>2012-07-15T08:07:40.000Z</time>
      </trkpt>
      <trkpt lat="46.58974" lon="4.58675">
        <ele>298</ele>
        <time>2012-07-15T08:07:42.000Z</time>
      </trkpt>
      <trkpt lat="46.5898" lon="4.58676">
        <ele>298</ele>
        <time>2012-07-15T08:07:45.000Z</time>
      </trkpt>
      <trkpt lat="46.5898" lon="4.58682">
        <ele>298</ele>
        <time>2012-07-15T08:07:47.000Z</time>
      </trkpt>
      <trkpt lat="46.58977" lon="4.58704">
        <ele>298</ele>
        <time>2012-07-15T08:07:52.000Z</time>
      </trkpt>
      <trkpt lat="46.58975" lon="4.58712">
        <ele>299</ele>
        <time>2012-07-15T08:07:54.000Z</time>
      </trkpt>
      <trkpt lat="46.58976" lon="4.58719">
        <ele>299</ele>
        <time>2012-07-15T08:07:56.000Z</time>
      </trkpt>
      <trkpt lat="46.58979" lon="4.58728">
        <ele>299</ele>
        <time>2012-07-15T08:07:59.000Z</time>
      </trkpt>
      <trkpt lat="46.58984" lon="4.58737">
        <ele>300</ele>
        <time>2012-07-15T08:08:02.000Z</time>
      </trkpt>
      <trkpt lat="46.58989" lon="4.58744">
        <ele>300</ele>
        <time>2012-07-15T08:08:05.000Z</time>
      </trkpt>
      <trkpt lat="46.58992" lon="4.58752">
        <ele>301</ele>
        <time>2012-07-15T08:08:08.000Z</time>
      </trkpt>
      <trkpt lat="46.58995" lon="4.58762">
        <ele>301</ele>
        <time>2012-07-15T08:08:12.000Z</time>
      </trkpt>
      <trkpt lat="46.59" lon="4.58786">
        <ele>302</ele>
        <time>2012-07-15T08:08:20.000Z</time>
      </trkpt>
      <trkpt lat="46.59001" lon="4.588">
        <ele>302</ele>
        <time>2012-07-15T08:08:23.000Z</time>
      </trkpt>
      <trkpt lat="46.58999" lon="4.58844">
        <ele>303</ele>
        <time>2012-07-15T08:08:34.000Z</time>
      </trkpt>
      <trkpt lat="46.58998" lon="4.58854">
        <ele>303</ele>
        <time>2012-07-15T08:08:37.000Z</time>
      </trkpt>
      <trkpt lat="46.58996" lon="4.5886">
        <ele>303</ele>
        <time>2012-07-15T08:08:39.000Z</time>
      </trkpt>
      <trkpt lat="46.58995" lon="4.58866">
        <ele>304</ele>
        <time>2012-07-15T08:08:41.000Z</time>
      </trkpt>
      <trkpt lat="46.58989" lon="4.58892">
        <ele>305</ele>
        <time>2012-07-15T08:08:49.000Z</time>
      </trkpt>
      <trkpt lat="46.58988" lon="4.58898">
        <ele>305</ele>
        <time>2012-07-15T08:08:51.000Z</time>
      </trkpt>
      <trkpt lat="46.58987" lon="4.58913">
        <ele>306</ele>
        <time>2012-07-15T08:08:56.000Z</time>
      </trkpt>
      <trkpt lat="46.58989" lon="4.58921">
        <ele>306</ele>
        <time>2012-07-15T08:08:59.000Z</time>
      </trkpt>
      <trkpt lat="46.58988" lon="4.5893">
        <ele>306</ele>
        <time>2012-07-15T08:09:02.000Z</time>
      </trkpt>
      <trkpt lat="46.58988" lon="4.58937">
        <ele>307</ele>
        <time>2012-07-15T08:09:04.000Z</time>
      </trkpt>
      <trkpt lat="46.58986" lon="4.5895">
        <ele>307</ele>
        <time>2012-07-15T08:09:07.000Z</time>
      </trkpt>
      <trkpt lat="46.58984" lon="4.58973">
        <ele>308</ele>
        <time>2012-07-15T08:09:13.000Z</time>
      </trkpt>
      <trkpt lat="46.58982" lon="4.5898">
        <ele>308</ele>
        <time>2012-07-15T08:09:15.000Z</time>
      </trkpt>
      <trkpt lat="46.58976" lon="4.58987">
        <ele>309</ele>
        <time>2012-07-15T08:09:18.000Z</time>
      </trkpt>
      <trkpt lat="46.58971" lon="4.58991">
        <ele>309</ele>
        <time>2012-07-15T08:09:21.000Z</time>
      </trkpt>
      <trkpt lat="46.58969" lon="4.58998">
        <ele>310</ele>
        <time>2012-07-15T08:09:24.000Z</time>
      </trkpt>
      <trkpt lat="46.58969" lon="4.59003">
        <ele>310</ele>
        <time>2012-07-15T08:09:26.000Z</time>
      </trkpt>
      <trkpt lat="46.58968" lon="4.59008">
        <ele>311</ele>
        <time>2012-07-15T08:09:28.000Z</time>
      </trkpt>
      <trkpt lat="46.58967" lon="4.59026">
        <ele>311</ele>
        <time>2012-07-15T08:09:34.000Z</time>
      </trkpt>
      <trkpt lat="46.58969" lon="4.5903">
        <ele>312</ele>
        <time>2012-07-15T08:09:36.000Z</time>
      </trkpt>
      <trkpt lat="46.58971" lon="4.59037">
        <ele>312</ele>
        <time>2012-07-15T08:09:39.000Z</time>
      </trkpt>
      <trkpt lat="46.5897" lon="4.59045">
        <ele>312</ele>
        <time>2012-07-15T08:09:42.000Z</time>
      </trkpt>
      <trkpt lat="46.58969" lon="4.59051">
        <ele>312</ele>
        <time>2012-07-15T08:09:44.000Z</time>
      </trkpt>
      <trkpt lat="46.58966" lon="4.59059">
        <ele>313</ele>
        <time>2012-07-15T08:09:47.000Z</time>
      </trkpt>
      <trkpt lat="46.58962" lon="4.59063">
        <ele>313</ele>
        <time>2012-07-15T08:09:50.000Z</time>
      </trkpt>
      <trkpt lat="46.58952" lon="4.59074">
        <ele>314</ele>
        <time>2012-07-15T08:09:55.000Z</time>
      </trkpt>
      <trkpt lat="46.58949" lon="4.59084">
        <ele>314</ele>
        <time>2012-07-15T08:09:58.000Z</time>
      </trkpt>
      <trkpt lat="46.58949" lon="4.59096">
        <ele>314</ele>
        <time>2012-07-15T08:10:01.000Z</time>
      </trkpt>
      <trkpt lat="46.58952" lon="4.59112">
        <ele>315</ele>
        <time>2012-07-15T08:10:04.000Z</time>
      </trkpt>
      <trkpt lat="46.58956" lon="4.59134">
        <ele>316</ele>
        <time>2012-07-15T08:10:09.000Z</time>
      </trkpt>
      <trkpt lat="46.58958" lon="4.59147">
        <ele>317</ele>
        <time>2012-07-15T08:10:12.000Z</time>
      </trkpt>
      <trkpt lat="46.58958" lon="4.59154">
        <ele>318</ele>
        <time>2012-07-15T08:10:14.000Z</time>
      </trkpt>
      <trkpt lat="46.58962" lon="4.59161">
        <ele>318</ele>
        <time>2012-07-15T08:10:17.000Z</time>
      </trkpt>
      <trkpt lat="46.58968" lon="4.59166">
        <ele>319</ele>
        <time>2012-07-15T08:10:20.000Z</time>
      </trkpt>
      <trkpt lat="46.5897" lon="4.59169">
        <ele>319</ele>
        <time>2012-07-15T08:10:22.000Z</time>
      </trkpt>
      <trkpt lat="46.58972" lon="4.59173">
        <ele>320</ele>
        <time>2012-07-15T08:10:25.000Z</time>
      </trkpt>
      <trkpt lat="46.58974" lon="4.59174">
        <ele>320</ele>
        <time>2012-07-15T08:10:28.000Z</time>
      </trkpt>
      <trkpt lat="46.5898" lon="4.59178">
        <ele>321</ele>
        <time>2012-07-15T08:10:33.000Z</time>
      </trkpt>
      <trkpt lat="46.58986" lon="4.59179">
        <ele>321</ele>
        <time>2012-07-15T08:10:37.000Z</time>
      </trkpt>
      <trkpt lat="46.58991" lon="4.59179">
        <ele>321</ele>
        <time>2012-07-15T08:10:40.000Z</time>
      </trkpt>
      <trkpt lat="46.58995" lon="4.5918">
        <ele>322</ele>
        <time>2012-07-15T08:10:42.000Z</time>
      </trkpt>
      <trkpt lat="46.59002" lon="4.5918">
        <ele>322</ele>
        <time>2012-07-15T08:10:47.000Z</time>
      </trkpt>
      <trkpt lat="46.59009" lon="4.59178">
        <ele>322</ele>
        <time>2012-07-15T08:10:50.000Z</time>
      </trkpt>
      <trkpt lat="46.59018" lon="4.5918">
        <ele>322</ele>
        <time>2012-07-15T08:10:53.000Z</time>
      </trkpt>
      <trkpt lat="46.59023" lon="4.59181">
        <ele>322</ele>
        <time>2012-07-15T08:10:55.000Z</time>
      </trkpt>
      <trkpt lat="46.59032" lon="4.5918">
        <ele>322</ele>
        <time>2012-07-15T08:10:58.000Z</time>
      </trkpt>
      <trkpt lat="46.59042" lon="4.59178">
        <ele>322</ele>
        <time>2012-07-15T08:11:02.000Z</time>
      </trkpt>
      <trkpt lat="46.59046" lon="4.59177">
        <ele>321</ele>
        <time>2012-07-15T08:11:04.000Z</time>
      </trkpt>
      <trkpt lat="46.59055" lon="4.59178">
        <ele>321</ele>
        <time>2012-07-15T08:11:09.000Z</time>
      </trkpt>
      <trkpt lat="46.59058" lon="4.59189">
        <ele>321</ele>
        <time>2012-07-15T08:11:12.000Z</time>
      </trkpt>
      <trkpt lat="46.59058" lon="4.59201">
        <ele>321</ele>
        <time>2012-07-15T08:11:15.000Z</time>
      </trkpt>
      <trkpt lat="46.59063" lon="4.59221">
        <ele>322</ele>
        <time>2012-07-15T08:11:20.000Z</time>
      </trkpt>
      <trkpt lat="46.59066" lon="4.59233">
        <ele>323</ele>
        <time>2012-07-15T08:11:23.000Z</time>
      </trkpt>
      <trkpt lat="46.59071" lon="4.59252">
        <ele>324</ele>
        <time>2012-07-15T08:11:28.000Z</time>
      </trkpt>
      <trkpt lat="46.59077" lon="4.59269">
        <ele>325</ele>
        <time>2012-07-15T08:11:33.000Z</time>
      </trkpt>
      <trkpt lat="46.5908" lon="4.59278">
        <ele>326</ele>
        <time>2012-07-15T08:11:36.000Z</time>
      </trkpt>
      <trkpt lat="46.59081" lon="4.59285">
        <ele>326</ele>
        <time>2012-07-15T08:11:38.000Z</time>
      </trkpt>
      <trkpt lat="46.59081" lon="4.59292">
        <ele>327</ele>
        <time>2012-07-15T08:11:40.000Z</time>
      </trkpt>
      <trkpt lat="46.59082" lon="4.59302">
        <ele>327</ele>
        <time>2012-07-15T08:11:43.000Z</time>
      </trkpt>
      <trkpt lat="46.59086" lon="4.5931">
        <ele>328</ele>
        <time>2012-07-15T08:11:46.000Z</time>
      </trkpt>
      <trkpt lat="46.5909" lon="4.59315">
        <ele>328</ele>
        <time>2012-07-15T08:11:49.000Z</time>
      </trkpt>
      <trkpt lat="46.59096" lon="4.59325">
        <ele>329</ele>
        <time>2012-07-15T08:11:54.000Z</time>
      </trkpt>
      <trkpt lat="46.59109" lon="4.59354">
        <ele>330</ele>
        <time>2012-07-15T08:12:06.000Z</time>
      </trkpt>
      <trkpt lat="46.59114" lon="4.59361">
        <ele>330</ele>
        <time>2012-07-15T08:12:09.000Z</time>
      </trkpt>
      <trkpt lat="46.59119" lon="4.59371">
        <ele>330</ele>
        <time>2012-07-15T08:12:12.000Z</time>
      </trkpt>
      <trkpt lat="46.59137" lon="4.59402">
        <ele>331</ele>
        <time>2012-07-15T08:12:26.000Z</time>
      </trkpt>
      <trkpt lat="46.59142" lon="4.59408">
        <ele>331</ele>
        <time>2012-07-15T08:12:29.000Z</time>
      </trkpt>
      <trkpt lat="46.59145" lon="4.59412">
        <ele>331</ele>
        <time>2012-07-15T08:12:31.000Z</time>
      </trkpt>
      <trkpt lat="46.59148" lon="4.59419">
        <ele>331</ele>
        <time>2012-07-15T08:12:34.000Z</time>
      </trkpt>
      <trkpt lat="46.59156" lon="4.59442">
        <ele>332</ele>
        <time>2012-07-15T08:12:41.000Z</time>
      </trkpt>
      <trkpt lat="46.59163" lon="4.5946">
        <ele>333</ele>
        <time>2012-07-15T08:12:47.000Z</time>
      </trkpt>
      <trkpt lat="46.59173" lon="4.5948">
        <ele>334</ele>
        <time>2012-07-15T08:12:54.000Z</time>
      </trkpt>
      <trkpt lat="46.59175" lon="4.59488">
        <ele>334</ele>
        <time>2012-07-15T08:12:56.000Z</time>
      </trkpt>
      <trkpt lat="46.59177" lon="4.59498">
        <ele>335</ele>
        <time>2012-07-15T08:12:59.000Z</time>
      </trkpt>
      <trkpt lat="46.59181" lon="4.59525">
        <ele>336</ele>
        <time>2012-07-15T08:13:06.000Z</time>
      </trkpt>
      <trkpt lat="46.5918" lon="4.59531">
        <ele>336</ele>
        <time>2012-07-15T08:13:08.000Z</time>
      </trkpt>
      <trkpt lat="46.59182" lon="4.59535">
        <ele>336</ele>
        <time>2012-07-15T08:13:10.000Z</time>
      </trkpt>
      <trkpt lat="46.59194" lon="4.59598">
        <ele>336</ele>
        <time>2012-07-15T08:13:24.000Z</time>
      </trkpt>
      <trkpt lat="46.59202" lon="4.59621">
        <ele>336</ele>
        <time>2012-07-15T08:13:31.000Z</time>
      </trkpt>
      <trkpt lat="46.59206" lon="4.59629">
        <ele>336</ele>
        <time>2012-07-15T08:13:34.000Z</time>
      </trkpt>
      <trkpt lat="46.5921" lon="4.59634">
        <ele>336</ele>
        <time>2012-07-15T08:13:36.000Z</time>
      </trkpt>
      <trkpt lat="46.59222" lon="4.59658">
        <ele>336</ele>
        <time>2012-07-15T08:13:45.000Z</time>
      </trkpt>
      <trkpt lat="46.59224" lon="4.59665">
        <ele>336</ele>
        <time>2012-07-15T08:13:47.000Z</time>
      </trkpt>
      <trkpt lat="46.59227" lon="4.59676">
        <ele>337</ele>
        <time>2012-07-15T08:13:50.000Z</time>
      </trkpt>
      <trkpt lat="46.59232" lon="4.59706">
        <ele>337</ele>
        <time>2012-07-15T08:13:59.000Z</time>
      </trkpt>
      <trkpt lat="46.59232" lon="4.59714">
        <ele>337</ele>
        <time>2012-07-15T08:14:02.000Z</time>
      </trkpt>
      <trkpt lat="46.59245" lon="4.5979">
        <ele>337</ele>
        <time>2012-07-15T08:14:23.000Z</time>
      </trkpt>
      <trkpt lat="46.59249" lon="4.59858">
        <ele>337</ele>
        <time>2012-07-15T08:14:42.000Z</time>
      </trkpt>
      <trkpt lat="46.59254" lon="4.59929">
        <ele>337</ele>
        <time>2012-07-15T08:15:02.000Z</time>
      </trkpt>
      <trkpt lat="46.59258" lon="4.59952">
        <ele>337</ele>
        <time>2012-07-15T08:15:10.000Z</time>
      </trkpt>
      <trkpt lat="46.59258" lon="4.59965">
        <ele>337</ele>
        <time>2012-07-15T08:15:18.000Z</time>
      </trkpt>
      <trkpt lat="46.59258" lon="4.5997">
        <ele>337</ele>
        <time>2012-07-15T08:15:20.000Z</time>
      </trkpt>
      <trkpt lat="46.59258" lon="4.59976">
        <ele>337</ele>
        <time>2012-07-15T08:15:22.000Z</time>
      </trkpt>
      <trkpt lat="46.59261" lon="4.6">
        <ele>337</ele>
        <time>2012-07-15T08:15:39.000Z</time>
      </trkpt>
      <trkpt lat="46.59262" lon="4.59998">
        <ele>337</ele>
        <time>2012-07-15T08:15:42.000Z</time>
      </trkpt>
      <trkpt lat="46.59264" lon="4.59996">
        <ele>337</ele>
        <time>2012-07-15T08:15:45.000Z</time>
      </trkpt>
      <trkpt lat="46.59266" lon="4.59998">
        <ele>337</ele>
        <time>2012-07-15T08:15:51.000Z</time>
      </trkpt>
      <trkpt lat="46.59266" lon="4.60007">
        <ele>337</ele>
        <time>2012-07-15T08:15:54.000Z</time>
      </trkpt>
      <trkpt lat="46.59267" lon="4.6002">
        <ele>337</ele>
        <time>2012-07-15T08:15:59.000Z</time>
      </trkpt>
      <trkpt lat="46.5927" lon="4.60028">
        <ele>338</ele>
        <time>2012-07-15T08:16:02.000Z</time>
      </trkpt>
      <trkpt lat="46.59274" lon="4.60038">
        <ele>338</ele>
        <time>2012-07-15T08:16:07.000Z</time>
      </trkpt>
      <trkpt lat="46.59276" lon="4.60042">
        <ele>339</ele>
        <time>2012-07-15T08:16:09.000Z</time>
      </trkpt>
      <trkpt lat="46.59278" lon="4.60048">
        <ele>339</ele>
        <time>2012-07-15T08:16:12.000Z</time>
      </trkpt>
      <trkpt lat="46.59285" lon="4.60064">
        <ele>340</ele>
        <time>2012-07-15T08:16:18.000Z</time>
      </trkpt>
      <trkpt lat="46.59294" lon="4.6009">
        <ele>341</ele>
        <time>2012-07-15T08:16:24.000Z</time>
      </trkpt>
      <trkpt lat="46.59295" lon="4.60102">
        <ele>341</ele>
        <time>2012-07-15T08:16:27.000Z</time>
      </trkpt>
      <trkpt lat="46.59295" lon="4.60108">
        <ele>341</ele>
        <time>2012-07-15T08:16:29.000Z</time>
      </trkpt>
      <trkpt lat="46.59295" lon="4.60114">
        <ele>342</ele>
        <time>2012-07-15T08:16:31.000Z</time>
      </trkpt>
      <trkpt lat="46.59293" lon="4.60139">
        <ele>343</ele>
        <time>2012-07-15T08:16:39.000Z</time>
      </trkpt>
      <trkpt lat="46.59292" lon="4.60159">
        <ele>344</ele>
        <time>2012-07-15T08:16:47.000Z</time>
      </trkpt>
      <trkpt lat="46.59291" lon="4.60176">
        <ele>345</ele>
        <time>2012-07-15T08:16:52.000Z</time>
      </trkpt>
      <trkpt lat="46.5929" lon="4.60195">
        <ele>346</ele>
        <time>2012-07-15T08:16:58.000Z</time>
      </trkpt>
      <trkpt lat="46.59287" lon="4.60204">
        <ele>346</ele>
        <time>2012-07-15T08:17:01.000Z</time>
      </trkpt>
      <trkpt lat="46.59286" lon="4.60208">
        <ele>347</ele>
        <time>2012-07-15T08:17:03.000Z</time>
      </trkpt>
      <trkpt lat="46.59282" lon="4.6021">
        <ele>347</ele>
        <time>2012-07-15T08:17:05.000Z</time>
      </trkpt>
      <trkpt lat="46.59279" lon="4.60212">
        <ele>348</ele>
        <time>2012-07-15T08:17:07.000Z</time>
      </trkpt>
      <trkpt lat="46.59279" lon="4.60215">
        <ele>348</ele>
        <time>2012-07-15T08:17:09.000Z</time>
      </trkpt>
      <trkpt lat="46.5928" lon="4.60222">
        <ele>348</ele>
        <time>2012-07-15T08:17:12.000Z</time>
      </trkpt>
      <trkpt lat="46.59279" lon="4.60233">
        <ele>348</ele>
        <time>2012-07-15T08:17:15.000Z</time>
      </trkpt>
      <trkpt lat="46.59277" lon="4.6024">
        <ele>349</ele>
        <time>2012-07-15T08:17:17.000Z</time>
      </trkpt>
      <trkpt lat="46.59277" lon="4.60247">
        <ele>349</ele>
        <time>2012-07-15T08:17:19.000Z</time>
      </trkpt>
      <trkpt lat="46.59275" lon="4.60264">
        <ele>350</ele>
        <time>2012-07-15T08:17:24.000Z</time>
      </trkpt>
      <trkpt lat="46.59279" lon="4.6029">
        <ele>351</ele>
        <time>2012-07-15T08:17:34.000Z</time>
      </trkpt>
      <trkpt lat="46.59285" lon="4.60295">
        <ele>351</ele>
        <time>2012-07-15T08:17:36.000Z</time>
      </trkpt>
      <trkpt lat="46.59295" lon="4.6031">
        <ele>351</ele>
        <time>2012-07-15T08:17:42.000Z</time>
      </trkpt>
      <trkpt lat="46.59294" lon="4.60316">
        <ele>352</ele>
        <time>2012-07-15T08:17:44.000Z</time>
      </trkpt>
      <trkpt lat="46.59291" lon="4.60328">
        <ele>352</ele>
        <time>2012-07-15T08:17:50.000Z</time>
      </trkpt>
      <trkpt lat="46.59285" lon="4.60336">
        <ele>353</ele>
        <time>2012-07-15T08:17:53.000Z</time>
      </trkpt>
      <trkpt lat="46.59283" lon="4.60343">
        <ele>353</ele>
        <time>2012-07-15T08:17:55.000Z</time>
      </trkpt>
      <trkpt lat="46.59275" lon="4.60367">
        <ele>354</ele>
        <time>2012-07-15T08:18:03.000Z</time>
      </trkpt>
      <trkpt lat="46.59272" lon="4.60372">
        <ele>354</ele>
        <time>2012-07-15T08:18:05.000Z</time>
      </trkpt>
      <trkpt lat="46.59266" lon="4.60385">
        <ele>355</ele>
        <time>2012-07-15T08:18:10.000Z</time>
      </trkpt>
      <trkpt lat="46.59265" lon="4.60394">
        <ele>355</ele>
        <time>2012-07-15T08:18:13.000Z</time>
      </trkpt>
      <trkpt lat="46.59262" lon="4.60409">
        <ele>356</ele>
        <time>2012-07-15T08:18:18.000Z</time>
      </trkpt>
      <trkpt lat="46.59263" lon="4.60426">
        <ele>357</ele>
        <time>2012-07-15T08:18:23.000Z</time>
      </trkpt>
      <trkpt lat="46.59263" lon="4.60433">
        <ele>358</ele>
        <time>2012-07-15T08:18:26.000Z</time>
      </trkpt>
      <trkpt lat="46.59259" lon="4.60441">
        <ele>358</ele>
        <time>2012-07-15T08:18:29.000Z</time>
      </trkpt>
      <trkpt lat="46.59257" lon="4.60447">
        <ele>359</ele>
        <time>2012-07-15T08:18:31.000Z</time>
      </trkpt>
      <trkpt lat="46.59255" lon="4.60455">
        <ele>359</ele>
        <time>2012-07-15T08:18:34.000Z</time>
      </trkpt>
      <trkpt lat="46.59252" lon="4.60462">
        <ele>360</ele>
        <time>2012-07-15T08:18:37.000Z</time>
      </trkpt>
      <trkpt lat="46.59251" lon="4.60466">
        <ele>360</ele>
        <time>2012-07-15T08:18:39.000Z</time>
      </trkpt>
      <trkpt lat="46.59249" lon="4.60471">
        <ele>361</ele>
        <time>2012-07-15T08:18:42.000Z</time>
      </trkpt>
      <trkpt lat="46.59245" lon="4.6048">
        <ele>362</ele>
        <time>2012-07-15T08:18:46.000Z</time>
      </trkpt>
      <trkpt lat="46.59233" lon="4.60501">
        <ele>363</ele>
        <time>2012-07-15T08:18:56.000Z</time>
      </trkpt>
      <trkpt lat="46.59222" lon="4.60515">
        <ele>364</ele>
        <time>2012-07-15T08:19:02.000Z</time>
      </trkpt>
      <trkpt lat="46.59212" lon="4.60536">
        <ele>364</ele>
        <time>2012-07-15T08:19:10.000Z</time>
      </trkpt>
      <trkpt lat="46.59211" lon="4.60545">
        <ele>365</ele>
        <time>2012-07-15T08:19:13.000Z</time>
      </trkpt>
      <trkpt lat="46.59209" lon="4.60549">
        <ele>365</ele>
        <time>2012-07-15T08:19:15.000Z</time>
      </trkpt>
      <trkpt lat="46.59207" lon="4.60555">
        <ele>365</ele>
        <time>2012-07-15T08:19:18.000Z</time>
      </trkpt>
      <trkpt lat="46.59203" lon="4.60565">
        <ele>366</ele>
        <time>2012-07-15T08:19:23.000Z</time>
      </trkpt>
      <trkpt lat="46.59193" lon="4.60589">
        <ele>367</ele>
        <time>2012-07-15T08:19:33.000Z</time>
      </trkpt>
      <trkpt lat="46.59182" lon="4.60611">
        <ele>367</ele>
        <time>2012-07-15T08:19:43.000Z</time>
      </trkpt>
      <trkpt lat="46.59177" lon="4.60619">
        <ele>368</ele>
        <time>2012-07-15T08:19:46.000Z</time>
      </trkpt>
      <trkpt lat="46.59173" lon="4.60624">
        <ele>368</ele>
        <time>2012-07-15T08:19:48.000Z</time>
      </trkpt>
      <trkpt lat="46.59161" lon="4.60644">
        <ele>368</ele>
        <time>2012-07-15T08:19:53.000Z</time>
      </trkpt>
      <trkpt lat="46.59158" lon="4.60652">
        <ele>368</ele>
        <time>2012-07-15T08:19:55.000Z</time>
      </trkpt>
      <trkpt lat="46.59156" lon="4.6066">
        <ele>369</ele>
        <time>2012-07-15T08:19:58.000Z</time>
      </trkpt>
      <trkpt lat="46.59154" lon="4.60666">
        <ele>369</ele>
        <time>2012-07-15T08:20:00.000Z</time>
      </trkpt>
      <trkpt lat="46.59149" lon="4.60674">
        <ele>369</ele>
        <time>2012-07-15T08:20:03.000Z</time>
      </trkpt>
      <trkpt lat="46.59145" lon="4.60682">
        <ele>370</ele>
        <time>2012-07-15T08:20:06.000Z</time>
      </trkpt>
      <trkpt lat="46.5913" lon="4.60702">
        <ele>370</ele>
        <time>2012-07-15T08:20:15.000Z</time>
      </trkpt>
      <trkpt lat="46.59126" lon="4.60706">
        <ele>370</ele>
        <time>2012-07-15T08:20:18.000Z</time>
      </trkpt>
      <trkpt lat="46.59122" lon="4.60706">
        <ele>370</ele>
        <time>2012-07-15T08:20:20.000Z</time>
      </trkpt>
      <trkpt lat="46.59121" lon="4.60705">
        <ele>370</ele>
        <time>2012-07-15T08:20:23.000Z</time>
      </trkpt>
      <trkpt lat="46.59121" lon="4.60703">
        <ele>370</ele>
        <time>2012-07-15T08:20:25.000Z</time>
      </trkpt>
      <trkpt lat="46.59123" lon="4.60703">
        <ele>370</ele>
        <time>2012-07-15T08:20:28.000Z</time>
      </trkpt>
      <trkpt lat="46.59124" lon="4.60701">
        <ele>370</ele>
        <time>2012-07-15T08:20:33.000Z</time>
      </trkpt>
      <trkpt lat="46.59122" lon="4.60701">
        <ele>370</ele>
        <time>2012-07-15T08:20:36.000Z</time>
      </trkpt>
      <trkpt lat="46.59121" lon="4.60702">
        <ele>370</ele>
        <time>2012-07-15T08:20:42.000Z</time>
      </trkpt>
      <trkpt lat="46.59119" lon="4.60704">
        <ele>370</ele>
        <time>2012-07-15T08:20:44.000Z</time>
      </trkpt>
      <trkpt lat="46.59119" lon="4.60699">
        <ele>370</ele>
        <time>2012-07-15T08:21:18.000Z</time>
      </trkpt>
      <trkpt lat="46.59119" lon="4.60699">
        <ele>370</ele>
        <time>2012-07-15T08:21:38.000Z</time>
      </trkpt>
      <trkpt lat="46.59116" lon="4.60705">
        <ele>370</ele>
        <time>2012-07-15T08:21:58.000Z</time>
      </trkpt>
      <trkpt lat="46.59114" lon="4.60706">
        <ele>370</ele>
        <time>2012-07-15T08:22:00.000Z</time>
      </trkpt>
      <trkpt lat="46.59112" lon="4.60708">
        <ele>370</ele>
        <time>2012-07-15T08:22:07.000Z</time>
      </trkpt>
      <trkpt lat="46.59113" lon="4.60708">
        <ele>370</ele>
        <time>2012-07-15T08:22:09.000Z</time>
      </trkpt>
      <trkpt lat="46.59117" lon="4.60707">
        <ele>370</ele>
        <time>2012-07-15T08:22:12.000Z</time>
      </trkpt>
      <trkpt lat="46.59119" lon="4.60707">
        <ele>370</ele>
        <time>2012-07-15T08:22:14.000Z</time>
      </trkpt>
      <trkpt lat="46.5912" lon="4.60706">
        <ele>370</ele>
        <time>2012-07-15T08:22:16.000Z</time>
      </trkpt>
      <trkpt lat="46.59121" lon="4.60703">
        <ele>370</ele>
        <time>2012-07-15T08:22:19.000Z</time>
      </trkpt>
      <trkpt lat="46.59121" lon="4.60701">
        <ele>370</ele>
        <time>2012-07-15T08:22:22.000Z</time>
      </trkpt>
      <trkpt lat="46.59121" lon="4.60697">
        <ele>370</ele>
        <time>2012-07-15T08:22:27.000Z</time>
      </trkpt>
      <trkpt lat="46.59122" lon="4.60697">
        <ele>370</ele>
        <time>2012-07-15T08:22:30.000Z</time>
      </trkpt>
      <trkpt lat="46.59124" lon="4.60697">
        <ele>370</ele>
        <time>2012-07-15T08:22:32.000Z</time>
      </trkpt>
      <trkpt lat="46.59124" lon="4.60699">
        <ele>370</ele>
        <time>2012-07-15T08:22:42.000Z</time>
      </trkpt>
      <trkpt lat="46.59119" lon="4.60702">
        <ele>370</ele>
        <time>2012-07-15T08:22:47.000Z</time>
      </trkpt>
      <trkpt lat="46.59119" lon="4.60702">
        <ele>370</ele>
        <time>2012-07-15T08:23:07.000Z</time>
      </trkpt>
      <trkpt lat="46.59121" lon="4.60703">
        <ele>370</ele>
        <time>2012-07-15T08:23:11.000Z</time>
      </trkpt>
      <trkpt lat="46.59122" lon="4.60701">
        <ele>370</ele>
        <time>2012-07-15T08:23:14.000Z</time>
      </trkpt>
      <trkpt lat="46.59123" lon="4.60701">
        <ele>370</ele>
        <time>2012-07-15T08:23:16.000Z</time>
      </trkpt>
      <trkpt lat="46.59124" lon="4.60701">
        <ele>370</ele>
        <time>2012-07-15T08:23:19.000Z</time>
      </trkpt>
      <trkpt lat="46.59122" lon="4.60703">
        <ele>370</ele>
        <time>2012-07-15T08:23:36.000Z</time>
      </trkpt>
      <trkpt lat="46.59121" lon="4.60702">
        <ele>370</ele>
        <time>2012-07-15T08:23:38.000Z</time>
      </trkpt>
      <trkpt lat="46.59119" lon="4.60701">
        <ele>370</ele>
        <time>2012-07-15T08:23:41.000Z</time>
      </trkpt>
      <trkpt lat="46.59118" lon="4.607">
        <ele>370</ele>
        <time>2012-07-15T08:23:44.000Z</time>
      </trkpt>
      <trkpt lat="46.59117" lon="4.607">
        <ele>370</ele>
        <time>2012-07-15T08:23:47.000Z</time>
      </trkpt>
      <trkpt lat="46.59114" lon="4.60697">
        <ele>370</ele>
        <time>2012-07-15T08:23:50.000Z</time>
      </trkpt>
      <trkpt lat="46.59112" lon="4.60694">
        <ele>370</ele>
        <time>2012-07-15T08:23:52.000Z</time>
      </trkpt>
      <trkpt lat="46.59112" lon="4.60694">
        <ele>370</ele>
        <time>2012-07-15T08:24:12.000Z</time>
      </trkpt>
      <trkpt lat="46.59113" lon="4.60699">
        <ele>370</ele>
        <time>2012-07-15T08:24:13.000Z</time>
      </trkpt>
      <trkpt lat="46.59113" lon="4.60699">
        <ele>370</ele>
        <time>2012-07-15T08:24:33.000Z</time>
      </trkpt>
      <trkpt lat="46.59117" lon="4.60703">
        <ele>370</ele>
        <time>2012-07-15T08:24:46.000Z</time>
      </trkpt>
      <trkpt lat="46.59119" lon="4.60702">
        <ele>370</ele>
        <time>2012-07-15T08:24:48.000Z</time>
      </trkpt>
      <trkpt lat="46.59123" lon="4.60701">
        <ele>370</ele>
        <time>2012-07-15T08:24:51.000Z</time>
      </trkpt>
      <trkpt lat="46.59158" lon="4.60693">
        <ele>370</ele>
        <time>2012-07-15T08:25:11.000Z</time>
      </trkpt>
      <trkpt lat="46.59175" lon="4.60687">
        <ele>370</ele>
        <time>2012-07-15T08:25:19.000Z</time>
      </trkpt>
      <trkpt lat="46.59177" lon="4.60685">
        <ele>371</ele>
        <time>2012-07-15T08:25:21.000Z</time>
      </trkpt>
      <trkpt lat="46.59183" lon="4.60682">
        <ele>370</ele>
        <time>2012-07-15T08:25:24.000Z</time>
      </trkpt>
      <trkpt lat="46.59193" lon="4.60679">
        <ele>370</ele>
        <time>2012-07-15T08:25:27.000Z</time>
      </trkpt>
      <trkpt lat="46.59201" lon="4.60676">
        <ele>370</ele>
        <time>2012-07-15T08:25:30.000Z</time>
      </trkpt>
      <trkpt lat="46.59206" lon="4.60675">
        <ele>370</ele>
        <time>2012-07-15T08:25:32.000Z</time>
      </trkpt>
      <trkpt lat="46.59212" lon="4.60672">
        <ele>370</ele>
        <time>2012-07-15T08:25:35.000Z</time>
      </trkpt>
      <trkpt lat="46.59217" lon="4.6067">
        <ele>370</ele>
        <time>2012-07-15T08:25:38.000Z</time>
      </trkpt>
      <trkpt lat="46.59222" lon="4.60665">
        <ele>370</ele>
        <time>2012-07-15T08:25:41.000Z</time>
      </trkpt>
      <trkpt lat="46.59229" lon="4.60658">
        <ele>370</ele>
        <time>2012-07-15T08:25:44.000Z</time>
      </trkpt>
      <trkpt lat="46.59249" lon="4.60641">
        <ele>370</ele>
        <time>2012-07-15T08:25:50.000Z</time>
      </trkpt>
      <trkpt lat="46.5927" lon="4.60628">
        <ele>370</ele>
        <time>2012-07-15T08:25:55.000Z</time>
      </trkpt>
      <trkpt lat="46.5928" lon="4.60625">
        <ele>370</ele>
        <time>2012-07-15T08:25:57.000Z</time>
      </trkpt>
      <trkpt lat="46.59307" lon="4.60621">
        <ele>370</ele>
        <time>2012-07-15T08:26:03.000Z</time>
      </trkpt>
      <trkpt lat="46.59315" lon="4.60621">
        <ele>369</ele>
        <time>2012-07-15T08:26:05.000Z</time>
      </trkpt>
      <trkpt lat="46.59324" lon="4.6062">
        <ele>369</ele>
        <time>2012-07-15T08:26:07.000Z</time>
      </trkpt>
      <trkpt lat="46.59354" lon="4.60612">
        <ele>369</ele>
        <time>2012-07-15T08:26:13.000Z</time>
      </trkpt>
      <trkpt lat="46.59389" lon="4.60606">
        <ele>368</ele>
        <time>2012-07-15T08:26:20.000Z</time>
      </trkpt>
      <trkpt lat="46.59401" lon="4.60609">
        <ele>368</ele>
        <time>2012-07-15T08:26:23.000Z</time>
      </trkpt>
      <trkpt lat="46.59408" lon="4.60613">
        <ele>368</ele>
        <time>2012-07-15T08:26:25.000Z</time>
      </trkpt>
      <trkpt lat="46.59415" lon="4.60617">
        <ele>367</ele>
        <time>2012-07-15T08:26:27.000Z</time>
      </trkpt>
      <trkpt lat="46.59428" lon="4.60622">
        <ele>367</ele>
        <time>2012-07-15T08:26:30.000Z</time>
      </trkpt>
      <trkpt lat="46.59438" lon="4.60627">
        <ele>367</ele>
        <time>2012-07-15T08:26:32.000Z</time>
      </trkpt>
      <trkpt lat="46.59452" lon="4.60641">
        <ele>367</ele>
        <time>2012-07-15T08:26:35.000Z</time>
      </trkpt>
      <trkpt lat="46.59489" lon="4.60665">
        <ele>367</ele>
        <time>2012-07-15T08:26:45.000Z</time>
      </trkpt>
      <trkpt lat="46.59516" lon="4.6068">
        <ele>368</ele>
        <time>2012-07-15T08:26:51.000Z</time>
      </trkpt>
      <trkpt lat="46.59528" lon="4.60684">
        <ele>368</ele>
        <time>2012-07-15T08:26:54.000Z</time>
      </trkpt>
      <trkpt lat="46.59575" lon="4.60697">
        <ele>368</ele>
        <time>2012-07-15T08:27:05.000Z</time>
      </trkpt>
      <trkpt lat="46.59587" lon="4.60703">
        <ele>368</ele>
        <time>2012-07-15T08:27:08.000Z</time>
      </trkpt>
      <trkpt lat="46.59596" lon="4.60714">
        <ele>368</ele>
        <time>2012-07-15T08:27:10.000Z</time>
      </trkpt>
      <trkpt lat="46.59624" lon="4.60742">
        <ele>367</ele>
        <time>2012-07-15T08:27:19.000Z</time>
      </trkpt>
      <trkpt lat="46.59632" lon="4.60748">
        <ele>367</ele>
        <time>2012-07-15T08:27:21.000Z</time>
      </trkpt>
      <trkpt lat="46.59645" lon="4.60758">
        <ele>366</ele>
        <time>2012-07-15T08:27:24.000Z</time>
      </trkpt>
      <trkpt lat="46.59663" lon="4.60773">
        <ele>365</ele>
        <time>2012-07-15T08:27:29.000Z</time>
      </trkpt>
      <trkpt lat="46.59668" lon="4.60777">
        <ele>365</ele>
        <time>2012-07-15T08:27:31.000Z</time>
      </trkpt>
      <trkpt lat="46.59681" lon="4.60784">
        <ele>364</ele>
        <time>2012-07-15T08:27:34.000Z</time>
      </trkpt>
      <trkpt lat="46.59689" lon="4.60785">
        <ele>364</ele>
        <time>2012-07-15T08:27:36.000Z</time>
      </trkpt>
      <trkpt lat="46.5974" lon="4.60788">
        <ele>364</ele>
        <time>2012-07-15T08:27:49.000Z</time>
      </trkpt>
      <trkpt lat="46.59748" lon="4.60787">
        <ele>364</ele>
        <time>2012-07-15T08:27:51.000Z</time>
      </trkpt>
      <trkpt lat="46.59772" lon="4.60786">
        <ele>363</ele>
        <time>2012-07-15T08:27:57.000Z</time>
      </trkpt>
      <trkpt lat="46.59819" lon="4.60779">
        <ele>363</ele>
        <time>2012-07-15T08:28:05.000Z</time>
      </trkpt>
      <trkpt lat="46.59877" lon="4.60771">
        <ele>362</ele>
        <time>2012-07-15T08:28:14.000Z</time>
      </trkpt>
      <trkpt lat="46.5991" lon="4.60763">
        <ele>362</ele>
        <time>2012-07-15T08:28:20.000Z</time>
      </trkpt>
      <trkpt lat="46.59921" lon="4.60762">
        <ele>361</ele>
        <time>2012-07-15T08:28:22.000Z</time>
      </trkpt>
      <trkpt lat="46.59971" lon="4.60757">
        <ele>361</ele>
        <time>2012-07-15T08:28:30.000Z</time>
      </trkpt>
      <trkpt lat="46.59997" lon="4.60755">
        <ele>360</ele>
        <time>2012-07-15T08:28:35.000Z</time>
      </trkpt>
      <trkpt lat="46.60011" lon="4.60757">
        <ele>360</ele>
        <time>2012-07-15T08:28:38.000Z</time>
      </trkpt>
      <trkpt lat="46.60046" lon="4.60751">
        <ele>360</ele>
        <time>2012-07-15T08:28:42.000Z</time>
      </trkpt>
      <trkpt lat="46.6008" lon="4.60744">
        <ele>361</ele>
        <time>2012-07-15T08:28:49.000Z</time>
      </trkpt>
      <trkpt lat="46.60096" lon="4.60744">
        <ele>361</ele>
        <time>2012-07-15T08:28:51.000Z</time>
      </trkpt>
      <trkpt lat="46.60125" lon="4.6074">
        <ele>360</ele>
        <time>2012-07-15T08:28:57.000Z</time>
      </trkpt>
      <trkpt lat="46.60182" lon="4.60735">
        <ele>359</ele>
        <time>2012-07-15T08:29:05.000Z</time>
      </trkpt>
      <trkpt lat="46.60214" lon="4.60728">
        <ele>359</ele>
        <time>2012-07-15T08:29:12.000Z</time>
      </trkpt>
      <trkpt lat="46.60219" lon="4.60728">
        <ele>359</ele>
        <time>2012-07-15T08:29:14.000Z</time>
      </trkpt>
      <trkpt lat="46.60227" lon="4.60727">
        <ele>360</ele>
        <time>2012-07-15T08:29:17.000Z</time>
      </trkpt>
      <trkpt lat="46.60237" lon="4.60723">
        <ele>360</ele>
        <time>2012-07-15T08:29:20.000Z</time>
      </trkpt>
      <trkpt lat="46.60287" lon="4.60704">
        <ele>360</ele>
        <time>2012-07-15T08:29:33.000Z</time>
      </trkpt>
      <trkpt lat="46.603" lon="4.60701">
        <ele>360</ele>
        <time>2012-07-15T08:29:36.000Z</time>
      </trkpt>
      <trkpt lat="46.60334" lon="4.60697">
        <ele>359</ele>
        <time>2012-07-15T08:29:40.000Z</time>
      </trkpt>
      <trkpt lat="46.60344" lon="4.60684">
        <ele>359</ele>
        <time>2012-07-15T08:29:43.000Z</time>
      </trkpt>
      <trkpt lat="46.60353" lon="4.60672">
        <ele>358</ele>
        <time>2012-07-15T08:29:45.000Z</time>
      </trkpt>
      <trkpt lat="46.60376" lon="4.60641">
        <ele>357</ele>
        <time>2012-07-15T08:29:50.000Z</time>
      </trkpt>
      <trkpt lat="46.60384" lon="4.60618">
        <ele>356</ele>
        <time>2012-07-15T08:29:53.000Z</time>
      </trkpt>
      <trkpt lat="46.60402" lon="4.60565">
        <ele>354</ele>
        <time>2012-07-15T08:29:59.000Z</time>
      </trkpt>
      <trkpt lat="46.60412" lon="4.60542">
        <ele>353</ele>
        <time>2012-07-15T08:30:02.000Z</time>
      </trkpt>
      <trkpt lat="46.60416" lon="4.60522">
        <ele>352</ele>
        <time>2012-07-15T08:30:04.000Z</time>
      </trkpt>
      <trkpt lat="46.60423" lon="4.60488">
        <ele>351</ele>
        <time>2012-07-15T08:30:07.000Z</time>
      </trkpt>
      <trkpt lat="46.60428" lon="4.60471">
        <ele>350</ele>
        <time>2012-07-15T08:30:09.000Z</time>
      </trkpt>
      <trkpt lat="46.60429" lon="4.60451">
        <ele>349</ele>
        <time>2012-07-15T08:30:12.000Z</time>
      </trkpt>
      <trkpt lat="46.60428" lon="4.60432">
        <ele>348</ele>
        <time>2012-07-15T08:30:14.000Z</time>
      </trkpt>
      <trkpt lat="46.60429" lon="4.60416">
        <ele>348</ele>
        <time>2012-07-15T08:30:16.000Z</time>
      </trkpt>
      <trkpt lat="46.60427" lon="4.60392">
        <ele>348</ele>
        <time>2012-07-15T08:30:19.000Z</time>
      </trkpt>
      <trkpt lat="46.60424" lon="4.6038">
        <ele>347</ele>
        <time>2012-07-15T08:30:21.000Z</time>
      </trkpt>
      <trkpt lat="46.60415" lon="4.60342">
        <ele>346</ele>
        <time>2012-07-15T08:30:27.000Z</time>
      </trkpt>
      <trkpt lat="46.60413" lon="4.60328">
        <ele>345</ele>
        <time>2012-07-15T08:30:29.000Z</time>
      </trkpt>
      <trkpt lat="46.60415" lon="4.60307">
        <ele>344</ele>
        <time>2012-07-15T08:30:32.000Z</time>
      </trkpt>
      <trkpt lat="46.60416" lon="4.60282">
        <ele>343</ele>
        <time>2012-07-15T08:30:37.000Z</time>
      </trkpt>
      <trkpt lat="46.60416" lon="4.60279">
        <ele>342</ele>
        <time>2012-07-15T08:30:39.000Z</time>
      </trkpt>
      <trkpt lat="46.60415" lon="4.60276">
        <ele>341</ele>
        <time>2012-07-15T08:30:41.000Z</time>
      </trkpt>
      <trkpt lat="46.60416" lon="4.60271">
        <ele>341</ele>
        <time>2012-07-15T08:30:44.000Z</time>
      </trkpt>
      <trkpt lat="46.60415" lon="4.60268">
        <ele>341</ele>
        <time>2012-07-15T08:30:46.000Z</time>
      </trkpt>
      <trkpt lat="46.60414" lon="4.60264">
        <ele>340</ele>
        <time>2012-07-15T08:30:48.000Z</time>
      </trkpt>
      <trkpt lat="46.60414" lon="4.60257">
        <ele>340</ele>
        <time>2012-07-15T08:30:51.000Z</time>
      </trkpt>
      <trkpt lat="46.60417" lon="4.60251">
        <ele>340</ele>
        <time>2012-07-15T08:30:54.000Z</time>
      </trkpt>
      <trkpt lat="46.60418" lon="4.60251">
        <ele>340</ele>
        <time>2012-07-15T08:30:56.000Z</time>
      </trkpt>
      <trkpt lat="46.60421" lon="4.60251">
        <ele>339</ele>
        <time>2012-07-15T08:30:58.000Z</time>
      </trkpt>
      <trkpt lat="46.60425" lon="4.60254">
        <ele>339</ele>
        <time>2012-07-15T08:31:01.000Z</time>
      </trkpt>
      <trkpt lat="46.60431" lon="4.60256">
        <ele>339</ele>
        <time>2012-07-15T08:31:03.000Z</time>
      </trkpt>
      <trkpt lat="46.60435" lon="4.6026">
        <ele>339</ele>
        <time>2012-07-15T08:31:06.000Z</time>
      </trkpt>
      <trkpt lat="46.60441" lon="4.60264">
        <ele>339</ele>
        <time>2012-07-15T08:31:11.000Z</time>
      </trkpt>
      <trkpt lat="46.60443" lon="4.60263">
        <ele>339</ele>
        <time>2012-07-15T08:31:14.000Z</time>
      </trkpt>
      <trkpt lat="46.60443" lon="4.60261">
        <ele>339</ele>
        <time>2012-07-15T08:31:16.000Z</time>
      </trkpt>
      <trkpt lat="46.60445" lon="4.6026">
        <ele>339</ele>
        <time>2012-07-15T08:31:18.000Z</time>
      </trkpt>
      <trkpt lat="46.60447" lon="4.60258">
        <ele>339</ele>
        <time>2012-07-15T08:31:20.000Z</time>
      </trkpt>
      <trkpt lat="46.60451" lon="4.60258">
        <ele>338</ele>
        <time>2012-07-15T08:31:22.000Z</time>
      </trkpt>
      <trkpt lat="46.60456" lon="4.60263">
        <ele>338</ele>
        <time>2012-07-15T08:31:25.000Z</time>
      </trkpt>
      <trkpt lat="46.6046" lon="4.6027">
        <ele>338</ele>
        <time>2012-07-15T08:31:27.000Z</time>
      </trkpt>
      <trkpt lat="46.60458" lon="4.60271">
        <ele>338</ele>
        <time>2012-07-15T08:31:30.000Z</time>
      </trkpt>
      <trkpt lat="46.60455" lon="4.6027">
        <ele>338</ele>
        <time>2012-07-15T08:31:32.000Z</time>
      </trkpt>
      <trkpt lat="46.60452" lon="4.60268">
        <ele>338</ele>
        <time>2012-07-15T08:31:35.000Z</time>
      </trkpt>
      <trkpt lat="46.6045" lon="4.60266">
        <ele>338</ele>
        <time>2012-07-15T08:31:38.000Z</time>
      </trkpt>
      <trkpt lat="46.60452" lon="4.60268">
        <ele>338</ele>
        <time>2012-07-15T08:31:44.000Z</time>
      </trkpt>
      <trkpt lat="46.60454" lon="4.60269">
        <ele>339</ele>
        <time>2012-07-15T08:31:46.000Z</time>
      </trkpt>
      <trkpt lat="46.60456" lon="4.60269">
        <ele>338</ele>
        <time>2012-07-15T08:31:49.000Z</time>
      </trkpt>
      <trkpt lat="46.60458" lon="4.60269">
        <ele>338</ele>
        <time>2012-07-15T08:31:57.000Z</time>
      </trkpt>
      <trkpt lat="46.60459" lon="4.6027">
        <ele>338</ele>
        <time>2012-07-15T08:32:00.000Z</time>
      </trkpt>
      <trkpt lat="46.6046" lon="4.60271">
        <ele>338</ele>
        <time>2012-07-15T08:32:02.000Z</time>
      </trkpt>
      <trkpt lat="46.60462" lon="4.60272">
        <ele>338</ele>
        <time>2012-07-15T08:32:04.000Z</time>
      </trkpt>
      <trkpt lat="46.60464" lon="4.60273">
        <ele>338</ele>
        <time>2012-07-15T08:32:06.000Z</time>
      </trkpt>
      <trkpt lat="46.60469" lon="4.60275">
        <ele>338</ele>
        <time>2012-07-15T08:32:12.000Z</time>
      </trkpt>
      <trkpt lat="46.60469" lon="4.60277">
        <ele>338</ele>
        <time>2012-07-15T08:32:17.000Z</time>
      </trkpt>
      <trkpt lat="46.60472" lon="4.60279">
        <ele>338</ele>
        <time>2012-07-15T08:32:20.000Z</time>
      </trkpt>
      <trkpt lat="46.60476" lon="4.60281">
        <ele>338</ele>
        <time>2012-07-15T08:32:22.000Z</time>
      </trkpt>
      <trkpt lat="46.60482" lon="4.60284">
        <ele>338</ele>
        <time>2012-07-15T08:32:25.000Z</time>
      </trkpt>
      <trkpt lat="46.60485" lon="4.60287">
        <ele>338</ele>
        <time>2012-07-15T08:32:27.000Z</time>
      </trkpt>
      <trkpt lat="46.60504" lon="4.60301">
        <ele>337</ele>
        <time>2012-07-15T08:32:35.000Z</time>
      </trkpt>
      <trkpt lat="46.60513" lon="4.60308">
        <ele>338</ele>
        <time>2012-07-15T08:32:38.000Z</time>
      </trkpt>
      <trkpt lat="46.60537" lon="4.60326">
        <ele>339</ele>
        <time>2012-07-15T08:32:47.000Z</time>
      </trkpt>
      <trkpt lat="46.60546" lon="4.60329">
        <ele>339</ele>
        <time>2012-07-15T08:32:50.000Z</time>
      </trkpt>
      <trkpt lat="46.60551" lon="4.60331">
        <ele>340</ele>
        <time>2012-07-15T08:32:52.000Z</time>
      </trkpt>
      <trkpt lat="46.60556" lon="4.60333">
        <ele>340</ele>
        <time>2012-07-15T08:32:54.000Z</time>
      </trkpt>
      <trkpt lat="46.60563" lon="4.60339">
        <ele>341</ele>
        <time>2012-07-15T08:32:57.000Z</time>
      </trkpt>
      <trkpt lat="46.60577" lon="4.60348">
        <ele>342</ele>
        <time>2012-07-15T08:33:03.000Z</time>
      </trkpt>
      <trkpt lat="46.60582" lon="4.6035">
        <ele>342</ele>
        <time>2012-07-15T08:33:05.000Z</time>
      </trkpt>
      <trkpt lat="46.60589" lon="4.60353">
        <ele>343</ele>
        <time>2012-07-15T08:33:08.000Z</time>
      </trkpt>
      <trkpt lat="46.60608" lon="4.60363">
        <ele>344</ele>
        <time>2012-07-15T08:33:16.000Z</time>
      </trkpt>
      <trkpt lat="46.60635" lon="4.60379">
        <ele>345</ele>
        <time>2012-07-15T08:33:27.000Z</time>
      </trkpt>
      <trkpt lat="46.60642" lon="4.60384">
        <ele>345</ele>
        <time>2012-07-15T08:33:30.000Z</time>
      </trkpt>
      <trkpt lat="46.60647" lon="4.60387">
        <ele>345</ele>
        <time>2012-07-15T08:33:32.000Z</time>
      </trkpt>
      <trkpt lat="46.60652" lon="4.6039">
        <ele>346</ele>
        <time>2012-07-15T08:33:34.000Z</time>
      </trkpt>
      <trkpt lat="46.60657" lon="4.6039">
        <ele>346</ele>
        <time>2012-07-15T08:33:36.000Z</time>
      </trkpt>
      <trkpt lat="46.6066" lon="4.60386">
        <ele>346</ele>
        <time>2012-07-15T08:33:39.000Z</time>
      </trkpt>
      <trkpt lat="46.60662" lon="4.60383">
        <ele>347</ele>
        <time>2012-07-15T08:33:41.000Z</time>
      </trkpt>
      <trkpt lat="46.60672" lon="4.60362">
        <ele>346</ele>
        <time>2012-07-15T08:33:49.000Z</time>
      </trkpt>
      <trkpt lat="46.60687" lon="4.60338">
        <ele>346</ele>
        <time>2012-07-15T08:33:57.000Z</time>
      </trkpt>
      <trkpt lat="46.60691" lon="4.60329">
        <ele>346</ele>
        <time>2012-07-15T08:33:59.000Z</time>
      </trkpt>
      <trkpt lat="46.60708" lon="4.60299">
        <ele>345</ele>
        <time>2012-07-15T08:34:05.000Z</time>
      </trkpt>
      <trkpt lat="46.60724" lon="4.60269">
        <ele>344</ele>
        <time>2012-07-15T08:34:10.000Z</time>
      </trkpt>
      <trkpt lat="46.60734" lon="4.60244">
        <ele>344</ele>
        <time>2012-07-15T08:34:13.000Z</time>
      </trkpt>
      <trkpt lat="46.60745" lon="4.60222">
        <ele>343</ele>
        <time>2012-07-15T08:34:16.000Z</time>
      </trkpt>
      <trkpt lat="46.60756" lon="4.60192">
        <ele>341</ele>
        <time>2012-07-15T08:34:19.000Z</time>
      </trkpt>
      <trkpt lat="46.60765" lon="4.60169">
        <ele>340</ele>
        <time>2012-07-15T08:34:21.000Z</time>
      </trkpt>
      <trkpt lat="46.60779" lon="4.60134">
        <ele>338</ele>
        <time>2012-07-15T08:34:24.000Z</time>
      </trkpt>
      <trkpt lat="46.60794" lon="4.60097">
        <ele>336</ele>
        <time>2012-07-15T08:34:27.000Z</time>
      </trkpt>
      <trkpt lat="46.60804" lon="4.60075">
        <ele>334</ele>
        <time>2012-07-15T08:34:29.000Z</time>
      </trkpt>
      <trkpt lat="46.60813" lon="4.60056">
        <ele>333</ele>
        <time>2012-07-15T08:34:31.000Z</time>
      </trkpt>
      <trkpt lat="46.60836" lon="4.60042">
        <ele>331</ele>
        <time>2012-07-15T08:34:34.000Z</time>
      </trkpt>
      <trkpt lat="46.60849" lon="4.60026">
        <ele>330</ele>
        <time>2012-07-15T08:34:36.000Z</time>
      </trkpt>
      <trkpt lat="46.60869" lon="4.6">
        <ele>329</ele>
        <time>2012-07-15T08:34:39.000Z</time>
      </trkpt>
      <trkpt lat="46.60884" lon="4.5998">
        <ele>328</ele>
        <time>2012-07-15T08:34:41.000Z</time>
      </trkpt>
      <trkpt lat="46.60899" lon="4.59969">
        <ele>326</ele>
        <time>2012-07-15T08:34:43.000Z</time>
      </trkpt>
      <trkpt lat="46.6091" lon="4.59965">
        <ele>325</ele>
        <time>2012-07-15T08:34:45.000Z</time>
      </trkpt>
      <trkpt lat="46.60929" lon="4.59961">
        <ele>325</ele>
        <time>2012-07-15T08:34:48.000Z</time>
      </trkpt>
      <trkpt lat="46.60941" lon="4.59955">
        <ele>324</ele>
        <time>2012-07-15T08:34:50.000Z</time>
      </trkpt>
      <trkpt lat="46.60955" lon="4.59933">
        <ele>324</ele>
        <time>2012-07-15T08:34:53.000Z</time>
      </trkpt>
      <trkpt lat="46.60966" lon="4.59922">
        <ele>325</ele>
        <time>2012-07-15T08:34:55.000Z</time>
      </trkpt>
      <trkpt lat="46.60976" lon="4.59902">
        <ele>325</ele>
        <time>2012-07-15T08:34:58.000Z</time>
      </trkpt>
      <trkpt lat="46.60988" lon="4.59867">
        <ele>326</ele>
        <time>2012-07-15T08:35:03.000Z</time>
      </trkpt>
      <trkpt lat="46.60989" lon="4.59857">
        <ele>326</ele>
        <time>2012-07-15T08:35:05.000Z</time>
      </trkpt>
      <trkpt lat="46.60994" lon="4.5985">
        <ele>327</ele>
        <time>2012-07-15T08:35:08.000Z</time>
      </trkpt>
      <trkpt lat="46.60999" lon="4.59857">
        <ele>327</ele>
        <time>2012-07-15T08:35:11.000Z</time>
      </trkpt>
      <trkpt lat="46.61002" lon="4.59867">
        <ele>327</ele>
        <time>2012-07-15T08:35:14.000Z</time>
      </trkpt>
      <trkpt lat="46.61004" lon="4.59874">
        <ele>328</ele>
        <time>2012-07-15T08:35:16.000Z</time>
      </trkpt>
      <trkpt lat="46.61005" lon="4.59884">
        <ele>328</ele>
        <time>2012-07-15T08:35:19.000Z</time>
      </trkpt>
      <trkpt lat="46.6101" lon="4.59901">
        <ele>328</ele>
        <time>2012-07-15T08:35:25.000Z</time>
      </trkpt>
      <trkpt lat="46.61013" lon="4.59912">
        <ele>329</ele>
        <time>2012-07-15T08:35:28.000Z</time>
      </trkpt>
      <trkpt lat="46.61015" lon="4.59924">
        <ele>329</ele>
        <time>2012-07-15T08:35:31.000Z</time>
      </trkpt>
      <trkpt lat="46.61018" lon="4.59946">
        <ele>330</ele>
        <time>2012-07-15T08:35:36.000Z</time>
      </trkpt>
      <trkpt lat="46.6102" lon="4.59961">
        <ele>331</ele>
        <time>2012-07-15T08:35:41.000Z</time>
      </trkpt>
      <trkpt lat="46.6102" lon="4.59958">
        <ele>331</ele>
        <time>2012-07-15T08:35:44.000Z</time>
      </trkpt>
      <trkpt lat="46.6101" lon="4.59955">
        <ele>331</ele>
        <time>2012-07-15T08:35:47.000Z</time>
      </trkpt>
      <trkpt lat="46.61003" lon="4.59939">
        <ele>331</ele>
        <time>2012-07-15T08:35:50.000Z</time>
      </trkpt>
      <trkpt lat="46.61002" lon="4.59925">
        <ele>330</ele>
        <time>2012-07-15T08:35:52.000Z</time>
      </trkpt>
      <trkpt lat="46.61003" lon="4.59916">
        <ele>329</ele>
        <time>2012-07-15T08:35:54.000Z</time>
      </trkpt>
      <trkpt lat="46.61004" lon="4.59909">
        <ele>328</ele>
        <time>2012-07-15T08:35:57.000Z</time>
      </trkpt>
      <trkpt lat="46.61006" lon="4.59905">
        <ele>328</ele>
        <time>2012-07-15T08:36:03.000Z</time>
      </trkpt>
      <trkpt lat="46.61014" lon="4.59927">
        <ele>328</ele>
        <time>2012-07-15T08:36:07.000Z</time>
      </trkpt>
      <trkpt lat="46.61017" lon="4.59942">
        <ele>329</ele>
        <time>2012-07-15T08:36:10.000Z</time>
      </trkpt>
      <trkpt lat="46.6102" lon="4.59956">
        <ele>330</ele>
        <time>2012-07-15T08:36:13.000Z</time>
      </trkpt>
      <trkpt lat="46.61026" lon="4.59986">
        <ele>331</ele>
        <time>2012-07-15T08:36:19.000Z</time>
      </trkpt>
      <trkpt lat="46.61029" lon="4.60001">
        <ele>332</ele>
        <time>2012-07-15T08:36:22.000Z</time>
      </trkpt>
      <trkpt lat="46.61033" lon="4.60014">
        <ele>333</ele>
        <time>2012-07-15T08:36:25.000Z</time>
      </trkpt>
      <trkpt lat="46.6104" lon="4.60042">
        <ele>334</ele>
        <time>2012-07-15T08:36:31.000Z</time>
      </trkpt>
      <trkpt lat="46.6106" lon="4.60113">
        <ele>334</ele>
        <time>2012-07-15T08:36:45.000Z</time>
      </trkpt>
      <trkpt lat="46.61065" lon="4.60128">
        <ele>335</ele>
        <time>2012-07-15T08:36:48.000Z</time>
      </trkpt>
      <trkpt lat="46.6107" lon="4.60149">
        <ele>336</ele>
        <time>2012-07-15T08:36:52.000Z</time>
      </trkpt>
      <trkpt lat="46.61078" lon="4.60176">
        <ele>337</ele>
        <time>2012-07-15T08:36:57.000Z</time>
      </trkpt>
      <trkpt lat="46.61083" lon="4.60205">
        <ele>338</ele>
        <time>2012-07-15T08:37:02.000Z</time>
      </trkpt>
      <trkpt lat="46.61087" lon="4.60254">
        <ele>339</ele>
        <time>2012-07-15T08:37:10.000Z</time>
      </trkpt>
      <trkpt lat="46.61092" lon="4.60313">
        <ele>340</ele>
        <time>2012-07-15T08:37:21.000Z</time>
      </trkpt>
      <trkpt lat="46.61095" lon="4.60363">
        <ele>341</ele>
        <time>2012-07-15T08:37:33.000Z</time>
      </trkpt>
      <trkpt lat="46.61097" lon="4.60394">
        <ele>342</ele>
        <time>2012-07-15T08:37:38.000Z</time>
      </trkpt>
      <trkpt lat="46.61099" lon="4.60413">
        <ele>343</ele>
        <time>2012-07-15T08:37:42.000Z</time>
      </trkpt>
      <trkpt lat="46.61102" lon="4.60445">
        <ele>344</ele>
        <time>2012-07-15T08:37:49.000Z</time>
      </trkpt>
      <trkpt lat="46.61102" lon="4.60469">
        <ele>345</ele>
        <time>2012-07-15T08:37:57.000Z</time>
      </trkpt>
      <trkpt lat="46.611" lon="4.60472">
        <ele>345</ele>
        <time>2012-07-15T08:37:59.000Z</time>
      </trkpt>
      <trkpt lat="46.61097" lon="4.6047">
        <ele>345</ele>
        <time>2012-07-15T08:38:01.000Z</time>
      </trkpt>
      <trkpt lat="46.61095" lon="4.60466">
        <ele>345</ele>
        <time>2012-07-15T08:38:03.000Z</time>
      </trkpt>
      <trkpt lat="46.61094" lon="4.60461">
        <ele>345</ele>
        <time>2012-07-15T08:38:05.000Z</time>
      </trkpt>
      <trkpt lat="46.61096" lon="4.60448">
        <ele>345</ele>
        <time>2012-07-15T08:38:08.000Z</time>
      </trkpt>
      <trkpt lat="46.61097" lon="4.60439">
        <ele>344</ele>
        <time>2012-07-15T08:38:10.000Z</time>
      </trkpt>
      <trkpt lat="46.61098" lon="4.604">
        <ele>343</ele>
        <time>2012-07-15T08:38:23.000Z</time>
      </trkpt>
      <trkpt lat="46.61096" lon="4.60373">
        <ele>343</ele>
        <time>2012-07-15T08:38:29.000Z</time>
      </trkpt>
      <trkpt lat="46.61095" lon="4.60362">
        <ele>342</ele>
        <time>2012-07-15T08:38:31.000Z</time>
      </trkpt>
      <trkpt lat="46.61092" lon="4.60333">
        <ele>341</ele>
        <time>2012-07-15T08:38:36.000Z</time>
      </trkpt>
      <trkpt lat="46.61089" lon="4.60307">
        <ele>340</ele>
        <time>2012-07-15T08:38:40.000Z</time>
      </trkpt>
      <trkpt lat="46.61078" lon="4.60222">
        <ele>339</ele>
        <time>2012-07-15T08:38:51.000Z</time>
      </trkpt>
      <trkpt lat="46.61071" lon="4.60166">
        <ele>338</ele>
        <time>2012-07-15T08:38:57.000Z</time>
      </trkpt>
      <trkpt lat="46.61066" lon="4.60148">
        <ele>338</ele>
        <time>2012-07-15T08:38:59.000Z</time>
      </trkpt>
      <trkpt lat="46.6106" lon="4.6012">
        <ele>337</ele>
        <time>2012-07-15T08:39:02.000Z</time>
      </trkpt>
      <trkpt lat="46.61054" lon="4.60101">
        <ele>336</ele>
        <time>2012-07-15T08:39:04.000Z</time>
      </trkpt>
      <trkpt lat="46.61045" lon="4.60072">
        <ele>335</ele>
        <time>2012-07-15T08:39:07.000Z</time>
      </trkpt>
      <trkpt lat="46.61032" lon="4.60018">
        <ele>334</ele>
        <time>2012-07-15T08:39:12.000Z</time>
      </trkpt>
      <trkpt lat="46.61024" lon="4.5997">
        <ele>333</ele>
        <time>2012-07-15T08:39:16.000Z</time>
      </trkpt>
      <trkpt lat="46.61016" lon="4.59913">
        <ele>332</ele>
        <time>2012-07-15T08:39:22.000Z</time>
      </trkpt>
      <trkpt lat="46.61009" lon="4.59897">
        <ele>331</ele>
        <time>2012-07-15T08:39:24.000Z</time>
      </trkpt>
      <trkpt lat="46.61007" lon="4.59872">
        <ele>330</ele>
        <time>2012-07-15T08:39:27.000Z</time>
      </trkpt>
      <trkpt lat="46.61005" lon="4.59857">
        <ele>329</ele>
        <time>2012-07-15T08:39:29.000Z</time>
      </trkpt>
      <trkpt lat="46.60999" lon="4.59854">
        <ele>329</ele>
        <time>2012-07-15T08:39:31.000Z</time>
      </trkpt>
      <trkpt lat="46.60995" lon="4.59844">
        <ele>328</ele>
        <time>2012-07-15T08:39:34.000Z</time>
      </trkpt>
      <trkpt lat="46.60991" lon="4.59848">
        <ele>328</ele>
        <time>2012-07-15T08:39:36.000Z</time>
      </trkpt>
      <trkpt lat="46.60991" lon="4.59855">
        <ele>328</ele>
        <time>2012-07-15T08:39:39.000Z</time>
      </trkpt>
      <trkpt lat="46.60991" lon="4.59862">
        <ele>327</ele>
        <time>2012-07-15T08:39:41.000Z</time>
      </trkpt>
      <trkpt lat="46.6099" lon="4.59874">
        <ele>327</ele>
        <time>2012-07-15T08:39:44.000Z</time>
      </trkpt>
      <trkpt lat="46.60987" lon="4.5992">
        <ele>326</ele>
        <time>2012-07-15T08:39:55.000Z</time>
      </trkpt>
      <trkpt lat="46.60989" lon="4.59938">
        <ele>327</ele>
        <time>2012-07-15T08:40:03.000Z</time>
      </trkpt>
      <trkpt lat="46.60991" lon="4.59943">
        <ele>327</ele>
        <time>2012-07-15T08:40:05.000Z</time>
      </trkpt>
      <trkpt lat="46.60991" lon="4.59947">
        <ele>327</ele>
        <time>2012-07-15T08:40:07.000Z</time>
      </trkpt>
      <trkpt lat="46.60994" lon="4.59944">
        <ele>327</ele>
        <time>2012-07-15T08:40:10.000Z</time>
      </trkpt>
      <trkpt lat="46.60997" lon="4.5994">
        <ele>327</ele>
        <time>2012-07-15T08:40:13.000Z</time>
      </trkpt>
      <trkpt lat="46.60999" lon="4.59937">
        <ele>328</ele>
        <time>2012-07-15T08:40:16.000Z</time>
      </trkpt>
      <trkpt lat="46.61" lon="4.59937">
        <ele>328</ele>
        <time>2012-07-15T08:40:20.000Z</time>
      </trkpt>
      <trkpt lat="46.61" lon="4.59936">
        <ele>328</ele>
        <time>2012-07-15T08:40:23.000Z</time>
      </trkpt>
      <trkpt lat="46.61001" lon="4.59933">
        <ele>328</ele>
        <time>2012-07-15T08:40:37.000Z</time>
      </trkpt>
      <trkpt lat="46.60999" lon="4.59934">
        <ele>328</ele>
        <time>2012-07-15T08:40:40.000Z</time>
      </trkpt>
      <trkpt lat="46.60997" lon="4.59936">
        <ele>328</ele>
        <time>2012-07-15T08:40:43.000Z</time>
      </trkpt>
      <trkpt lat="46.60998" lon="4.59938">
        <ele>328</ele>
        <time>2012-07-15T08:40:46.000Z</time>
      </trkpt>
      <trkpt lat="46.60999" lon="4.59937">
        <ele>328</ele>
        <time>2012-07-15T08:40:49.000Z</time>
      </trkpt>
      <trkpt lat="46.60999" lon="4.59935">
        <ele>328</ele>
        <time>2012-07-15T08:40:53.000Z</time>
      </trkpt>
      <trkpt lat="46.61" lon="4.59937">
        <ele>328</ele>
        <time>2012-07-15T08:40:58.000Z</time>
      </trkpt>
      <trkpt lat="46.60999" lon="4.59937">
        <ele>328</ele>
        <time>2012-07-15T08:41:03.000Z</time>
      </trkpt>
      <trkpt lat="46.60999" lon="4.59933">
        <ele>328</ele>
        <time>2012-07-15T08:41:18.000Z</time>
      </trkpt>
      <trkpt lat="46.61" lon="4.59932">
        <ele>328</ele>
        <time>2012-07-15T08:41:22.000Z</time>
      </trkpt>
      <trkpt lat="46.60999" lon="4.59933">
        <ele>328</ele>
        <time>2012-07-15T08:41:28.000Z</time>
      </trkpt>
      <trkpt lat="46.60997" lon="4.59934">
        <ele>328</ele>
        <time>2012-07-15T08:41:31.000Z</time>
      </trkpt>
      <trkpt lat="46.60996" lon="4.59936">
        <ele>327</ele>
        <time>2012-07-15T08:41:34.000Z</time>
      </trkpt>
      <trkpt lat="46.61" lon="4.59934">
        <ele>328</ele>
        <time>2012-07-15T08:41:50.000Z</time>
      </trkpt>
      <trkpt lat="46.60998" lon="4.59934">
        <ele>327</ele>
        <time>2012-07-15T08:41:58.000Z</time>
      </trkpt>
      <trkpt lat="46.60999" lon="4.59936">
        <ele>328</ele>
        <time>2012-07-15T08:42:01.000Z</time>
      </trkpt>
      <trkpt lat="46.60999" lon="4.59937">
        <ele>328</ele>
        <time>2012-07-15T08:42:03.000Z</time>
      </trkpt>
      <trkpt lat="46.61" lon="4.59941">
        <ele>328</ele>
        <time>2012-07-15T08:42:06.000Z</time>
      </trkpt>
      <trkpt lat="46.60999" lon="4.59943">
        <ele>328</ele>
        <time>2012-07-15T08:42:11.000Z</time>
      </trkpt>
      <trkpt lat="46.60997" lon="4.59941">
        <ele>328</ele>
        <time>2012-07-15T08:42:29.000Z</time>
      </trkpt>
      <trkpt lat="46.60997" lon="4.59938">
        <ele>328</ele>
        <time>2012-07-15T08:42:35.000Z</time>
      </trkpt>
      <trkpt lat="46.61" lon="4.59939">
        <ele>328</ele>
        <time>2012-07-15T08:42:44.000Z</time>
      </trkpt>
      <trkpt lat="46.61004" lon="4.59938">
        <ele>328</ele>
        <time>2012-07-15T08:43:06.000Z</time>
      </trkpt>
      <trkpt lat="46.61004" lon="4.59938">
        <ele>328</ele>
        <time>2012-07-15T08:43:26.000Z</time>
      </trkpt>
      <trkpt lat="46.61004" lon="4.59937">
        <ele>328</ele>
        <time>2012-07-15T08:54:29.000Z</time>
      </trkpt>
      <trkpt lat="46.61003" lon="4.59939">
        <ele>328</ele>
        <time>2012-07-15T08:54:32.000Z</time>
      </trkpt>
      <trkpt lat="46.61001" lon="4.59942">
        <ele>328</ele>
        <time>2012-07-15T08:54:34.000Z</time>
      </trkpt>
      <trkpt lat="46.60995" lon="4.59948">
        <ele>328</ele>
        <time>2012-07-15T08:54:39.000Z</time>
      </trkpt>
      <trkpt lat="46.60992" lon="4.59948">
        <ele>328</ele>
        <time>2012-07-15T08:54:42.000Z</time>
      </trkpt>
      <trkpt lat="46.60987" lon="4.59943">
        <ele>328</ele>
        <time>2012-07-15T08:54:45.000Z</time>
      </trkpt>
      <trkpt lat="46.60983" lon="4.59939">
        <ele>327</ele>
        <time>2012-07-15T08:54:47.000Z</time>
      </trkpt>
      <trkpt lat="46.6098" lon="4.59931">
        <ele>327</ele>
        <time>2012-07-15T08:54:49.000Z</time>
      </trkpt>
      <trkpt lat="46.6098" lon="4.59917">
        <ele>327</ele>
        <time>2012-07-15T08:54:52.000Z</time>
      </trkpt>
      <trkpt lat="46.60984" lon="4.59901">
        <ele>326</ele>
        <time>2012-07-15T08:54:55.000Z</time>
      </trkpt>
      <trkpt lat="46.60997" lon="4.5986">
        <ele>327</ele>
        <time>2012-07-15T08:55:05.000Z</time>
      </trkpt>
      <trkpt lat="46.60996" lon="4.5986">
        <ele>327</ele>
        <time>2012-07-15T08:55:11.000Z</time>
      </trkpt>
      <trkpt lat="46.60995" lon="4.59859">
        <ele>327</ele>
        <time>2012-07-15T08:55:14.000Z</time>
      </trkpt>
      <trkpt lat="46.60995" lon="4.59856">
        <ele>327</ele>
        <time>2012-07-15T08:55:16.000Z</time>
      </trkpt>
      <trkpt lat="46.60996" lon="4.59847">
        <ele>327</ele>
        <time>2012-07-15T08:55:19.000Z</time>
      </trkpt>
      <trkpt lat="46.60994" lon="4.59825">
        <ele>327</ele>
        <time>2012-07-15T08:55:24.000Z</time>
      </trkpt>
      <trkpt lat="46.60988" lon="4.59811">
        <ele>328</ele>
        <time>2012-07-15T08:55:27.000Z</time>
      </trkpt>
      <trkpt lat="46.60985" lon="4.59801">
        <ele>328</ele>
        <time>2012-07-15T08:55:29.000Z</time>
      </trkpt>
      <trkpt lat="46.60971" lon="4.59766">
        <ele>328</ele>
        <time>2012-07-15T08:55:38.000Z</time>
      </trkpt>
      <trkpt lat="46.60964" lon="4.59747">
        <ele>327</ele>
        <time>2012-07-15T08:55:43.000Z</time>
      </trkpt>
      <trkpt lat="46.60962" lon="4.59736">
        <ele>327</ele>
        <time>2012-07-15T08:55:46.000Z</time>
      </trkpt>
      <trkpt lat="46.60961" lon="4.59726">
        <ele>327</ele>
        <time>2012-07-15T08:55:48.000Z</time>
      </trkpt>
      <trkpt lat="46.60962" lon="4.59712">
        <ele>327</ele>
        <time>2012-07-15T08:55:51.000Z</time>
      </trkpt>
      <trkpt lat="46.60966" lon="4.59702">
        <ele>327</ele>
        <time>2012-07-15T08:55:54.000Z</time>
      </trkpt>
      <trkpt lat="46.60969" lon="4.59696">
        <ele>328</ele>
        <time>2012-07-15T08:55:56.000Z</time>
      </trkpt>
      <trkpt lat="46.60976" lon="4.59688">
        <ele>328</ele>
        <time>2012-07-15T08:55:59.000Z</time>
      </trkpt>
      <trkpt lat="46.6098" lon="4.59684">
        <ele>329</ele>
        <time>2012-07-15T08:56:01.000Z</time>
      </trkpt>
      <trkpt lat="46.60987" lon="4.59679">
        <ele>330</ele>
        <time>2012-07-15T08:56:04.000Z</time>
      </trkpt>
      <trkpt lat="46.60993" lon="4.59676">
        <ele>330</ele>
        <time>2012-07-15T08:56:06.000Z</time>
      </trkpt>
      <trkpt lat="46.60999" lon="4.59673">
        <ele>331</ele>
        <time>2012-07-15T08:56:08.000Z</time>
      </trkpt>
      <trkpt lat="46.61007" lon="4.59668">
        <ele>332</ele>
        <time>2012-07-15T08:56:11.000Z</time>
      </trkpt>
      <trkpt lat="46.61012" lon="4.59665">
        <ele>333</ele>
        <time>2012-07-15T08:56:13.000Z</time>
      </trkpt>
      <trkpt lat="46.61016" lon="4.59663">
        <ele>333</ele>
        <time>2012-07-15T08:56:15.000Z</time>
      </trkpt>
      <trkpt lat="46.61021" lon="4.59662">
        <ele>334</ele>
        <time>2012-07-15T08:56:17.000Z</time>
      </trkpt>
      <trkpt lat="46.61026" lon="4.5966">
        <ele>334</ele>
        <time>2012-07-15T08:56:19.000Z</time>
      </trkpt>
      <trkpt lat="46.61032" lon="4.59656">
        <ele>335</ele>
        <time>2012-07-15T08:56:22.000Z</time>
      </trkpt>
      <trkpt lat="46.61036" lon="4.59653">
        <ele>335</ele>
        <time>2012-07-15T08:56:24.000Z</time>
      </trkpt>
      <trkpt lat="46.6104" lon="4.59652">
        <ele>336</ele>
        <time>2012-07-15T08:56:26.000Z</time>
      </trkpt>
      <trkpt lat="46.61046" lon="4.59648">
        <ele>336</ele>
        <time>2012-07-15T08:56:29.000Z</time>
      </trkpt>
      <trkpt lat="46.6105" lon="4.59644">
        <ele>336</ele>
        <time>2012-07-15T08:56:31.000Z</time>
      </trkpt>
      <trkpt lat="46.61053" lon="4.59637">
        <ele>336</ele>
        <time>2012-07-15T08:56:34.000Z</time>
      </trkpt>
      <trkpt lat="46.61057" lon="4.5963">
        <ele>336</ele>
        <time>2012-07-15T08:56:37.000Z</time>
      </trkpt>
      <trkpt lat="46.61062" lon="4.59628">
        <ele>337</ele>
        <time>2012-07-15T08:56:39.000Z</time>
      </trkpt>
      <trkpt lat="46.61084" lon="4.5962">
        <ele>338</ele>
        <time>2012-07-15T08:56:48.000Z</time>
      </trkpt>
      <trkpt lat="46.61104" lon="4.59612">
        <ele>339</ele>
        <time>2012-07-15T08:56:58.000Z</time>
      </trkpt>
      <trkpt lat="46.61109" lon="4.59612">
        <ele>339</ele>
        <time>2012-07-15T08:57:01.000Z</time>
      </trkpt>
      <trkpt lat="46.61129" lon="4.5961">
        <ele>340</ele>
        <time>2012-07-15T08:57:09.000Z</time>
      </trkpt>
      <trkpt lat="46.61149" lon="4.59612">
        <ele>341</ele>
        <time>2012-07-15T08:57:16.000Z</time>
      </trkpt>
      <trkpt lat="46.61158" lon="4.59614">
        <ele>341</ele>
        <time>2012-07-15T08:57:19.000Z</time>
      </trkpt>
      <trkpt lat="46.61163" lon="4.59615">
        <ele>342</ele>
        <time>2012-07-15T08:57:21.000Z</time>
      </trkpt>
      <trkpt lat="46.61176" lon="4.59617">
        <ele>343</ele>
        <time>2012-07-15T08:57:26.000Z</time>
      </trkpt>
      <trkpt lat="46.61196" lon="4.59617">
        <ele>344</ele>
        <time>2012-07-15T08:57:34.000Z</time>
      </trkpt>
      <trkpt lat="46.61209" lon="4.59617">
        <ele>345</ele>
        <time>2012-07-15T08:57:39.000Z</time>
      </trkpt>
      <trkpt lat="46.61228" lon="4.59616">
        <ele>346</ele>
        <time>2012-07-15T08:57:48.000Z</time>
      </trkpt>
      <trkpt lat="46.61235" lon="4.59617">
        <ele>346</ele>
        <time>2012-07-15T08:57:51.000Z</time>
      </trkpt>
      <trkpt lat="46.61239" lon="4.5962">
        <ele>347</ele>
        <time>2012-07-15T08:58:10.000Z</time>
      </trkpt>
      <trkpt lat="46.6124" lon="4.59622">
        <ele>347</ele>
        <time>2012-07-15T08:58:19.000Z</time>
      </trkpt>
      <trkpt lat="46.61245" lon="4.59619">
        <ele>347</ele>
        <time>2012-07-15T08:58:37.000Z</time>
      </trkpt>
      <trkpt lat="46.61248" lon="4.59616">
        <ele>347</ele>
        <time>2012-07-15T08:58:39.000Z</time>
      </trkpt>
      <trkpt lat="46.61259" lon="4.59611">
        <ele>347</ele>
        <time>2012-07-15T08:58:42.000Z</time>
      </trkpt>
      <trkpt lat="46.61267" lon="4.59608">
        <ele>347</ele>
        <time>2012-07-15T08:58:44.000Z</time>
      </trkpt>
      <trkpt lat="46.61324" lon="4.59592">
        <ele>346</ele>
        <time>2012-07-15T08:58:55.000Z</time>
      </trkpt>
      <trkpt lat="46.61367" lon="4.59576">
        <ele>345</ele>
        <time>2012-07-15T08:59:03.000Z</time>
      </trkpt>
      <trkpt lat="46.61376" lon="4.59559">
        <ele>345</ele>
        <time>2012-07-15T08:59:06.000Z</time>
      </trkpt>
      <trkpt lat="46.61382" lon="4.59546">
        <ele>345</ele>
        <time>2012-07-15T08:59:08.000Z</time>
      </trkpt>
      <trkpt lat="46.61394" lon="4.59522">
        <ele>345</ele>
        <time>2012-07-15T08:59:13.000Z</time>
      </trkpt>
      <trkpt lat="46.61405" lon="4.595">
        <ele>346</ele>
        <time>2012-07-15T08:59:18.000Z</time>
      </trkpt>
      <trkpt lat="46.61422" lon="4.59467">
        <ele>347</ele>
        <time>2012-07-15T08:59:26.000Z</time>
      </trkpt>
      <trkpt lat="46.61443" lon="4.59426">
        <ele>348</ele>
        <time>2012-07-15T08:59:34.000Z</time>
      </trkpt>
      <trkpt lat="46.61445" lon="4.59414">
        <ele>349</ele>
        <time>2012-07-15T08:59:37.000Z</time>
      </trkpt>
      <trkpt lat="46.61445" lon="4.59404">
        <ele>349</ele>
        <time>2012-07-15T08:59:40.000Z</time>
      </trkpt>
      <trkpt lat="46.61442" lon="4.59394">
        <ele>350</ele>
        <time>2012-07-15T08:59:43.000Z</time>
      </trkpt>
      <trkpt lat="46.61438" lon="4.59366">
        <ele>351</ele>
        <time>2012-07-15T08:59:54.000Z</time>
      </trkpt>
      <trkpt lat="46.61438" lon="4.59362">
        <ele>351</ele>
        <time>2012-07-15T08:59:56.000Z</time>
      </trkpt>
      <trkpt lat="46.61438" lon="4.59356">
        <ele>351</ele>
        <time>2012-07-15T08:59:59.000Z</time>
      </trkpt>
      <trkpt lat="46.61437" lon="4.59341">
        <ele>351</ele>
        <time>2012-07-15T09:00:09.000Z</time>
      </trkpt>
      <trkpt lat="46.61439" lon="4.59327">
        <ele>352</ele>
        <time>2012-07-15T09:00:15.000Z</time>
      </trkpt>
      <trkpt lat="46.6144" lon="4.59324">
        <ele>352</ele>
        <time>2012-07-15T09:00:17.000Z</time>
      </trkpt>
      <trkpt lat="46.6144" lon="4.59318">
        <ele>352</ele>
        <time>2012-07-15T09:00:20.000Z</time>
      </trkpt>
      <trkpt lat="46.6144" lon="4.59312">
        <ele>353</ele>
        <time>2012-07-15T09:00:23.000Z</time>
      </trkpt>
      <trkpt lat="46.61441" lon="4.59309">
        <ele>353</ele>
        <time>2012-07-15T09:00:25.000Z</time>
      </trkpt>
      <trkpt lat="46.61443" lon="4.59304">
        <ele>354</ele>
        <time>2012-07-15T09:00:28.000Z</time>
      </trkpt>
      <trkpt lat="46.61445" lon="4.59297">
        <ele>355</ele>
        <time>2012-07-15T09:00:31.000Z</time>
      </trkpt>
      <trkpt lat="46.61451" lon="4.5928">
        <ele>356</ele>
        <time>2012-07-15T09:00:37.000Z</time>
      </trkpt>
      <trkpt lat="46.61452" lon="4.59276">
        <ele>357</ele>
        <time>2012-07-15T09:00:39.000Z</time>
      </trkpt>
      <trkpt lat="46.61451" lon="4.59272">
        <ele>358</ele>
        <time>2012-07-15T09:00:41.000Z</time>
      </trkpt>
      <trkpt lat="46.61452" lon="4.59268">
        <ele>359</ele>
        <time>2012-07-15T09:00:43.000Z</time>
      </trkpt>
      <trkpt lat="46.61453" lon="4.59259">
        <ele>360</ele>
        <time>2012-07-15T09:00:47.000Z</time>
      </trkpt>
      <trkpt lat="46.61453" lon="4.59252">
        <ele>360</ele>
        <time>2012-07-15T09:00:50.000Z</time>
      </trkpt>
      <trkpt lat="46.61454" lon="4.59243">
        <ele>361</ele>
        <time>2012-07-15T09:00:53.000Z</time>
      </trkpt>
      <trkpt lat="46.61457" lon="4.59233">
        <ele>362</ele>
        <time>2012-07-15T09:00:58.000Z</time>
      </trkpt>
      <trkpt lat="46.61456" lon="4.59226">
        <ele>363</ele>
        <time>2012-07-15T09:01:01.000Z</time>
      </trkpt>
      <trkpt lat="46.61456" lon="4.59222">
        <ele>364</ele>
        <time>2012-07-15T09:01:03.000Z</time>
      </trkpt>
      <trkpt lat="46.61456" lon="4.59208">
        <ele>365</ele>
        <time>2012-07-15T09:01:07.000Z</time>
      </trkpt>
      <trkpt lat="46.61456" lon="4.59202">
        <ele>365</ele>
        <time>2012-07-15T09:01:10.000Z</time>
      </trkpt>
      <trkpt lat="46.61457" lon="4.592">
        <ele>366</ele>
        <time>2012-07-15T09:01:12.000Z</time>
      </trkpt>
      <trkpt lat="46.61459" lon="4.59195">
        <ele>366</ele>
        <time>2012-07-15T09:01:15.000Z</time>
      </trkpt>
      <trkpt lat="46.61459" lon="4.59189">
        <ele>367</ele>
        <time>2012-07-15T09:01:18.000Z</time>
      </trkpt>
      <trkpt lat="46.61458" lon="4.59186">
        <ele>367</ele>
        <time>2012-07-15T09:01:20.000Z</time>
      </trkpt>
      <trkpt lat="46.61457" lon="4.59181">
        <ele>368</ele>
        <time>2012-07-15T09:01:23.000Z</time>
      </trkpt>
      <trkpt lat="46.61457" lon="4.59176">
        <ele>368</ele>
        <time>2012-07-15T09:01:25.000Z</time>
      </trkpt>
      <trkpt lat="46.61459" lon="4.59171">
        <ele>369</ele>
        <time>2012-07-15T09:01:28.000Z</time>
      </trkpt>
      <trkpt lat="46.61459" lon="4.59168">
        <ele>369</ele>
        <time>2012-07-15T09:01:30.000Z</time>
      </trkpt>
      <trkpt lat="46.6146" lon="4.59164">
        <ele>370</ele>
        <time>2012-07-15T09:01:32.000Z</time>
      </trkpt>
      <trkpt lat="46.61461" lon="4.59153">
        <ele>371</ele>
        <time>2012-07-15T09:01:37.000Z</time>
      </trkpt>
      <trkpt lat="46.61461" lon="4.5915">
        <ele>371</ele>
        <time>2012-07-15T09:01:39.000Z</time>
      </trkpt>
      <trkpt lat="46.6146" lon="4.59148">
        <ele>371</ele>
        <time>2012-07-15T09:01:41.000Z</time>
      </trkpt>
      <trkpt lat="46.61461" lon="4.59144">
        <ele>372</ele>
        <time>2012-07-15T09:01:44.000Z</time>
      </trkpt>
      <trkpt lat="46.61461" lon="4.59141">
        <ele>372</ele>
        <time>2012-07-15T09:01:47.000Z</time>
      </trkpt>
      <trkpt lat="46.61458" lon="4.59136">
        <ele>372</ele>
        <time>2012-07-15T09:01:50.000Z</time>
      </trkpt>
      <trkpt lat="46.61449" lon="4.59108">
        <ele>372</ele>
        <time>2012-07-15T09:02:02.000Z</time>
      </trkpt>
      <trkpt lat="46.61451" lon="4.59101">
        <ele>372</ele>
        <time>2012-07-15T09:02:05.000Z</time>
      </trkpt>
      <trkpt lat="46.61453" lon="4.59095">
        <ele>373</ele>
        <time>2012-07-15T09:02:09.000Z</time>
      </trkpt>
      <trkpt lat="46.61453" lon="4.59085">
        <ele>373</ele>
        <time>2012-07-15T09:02:12.000Z</time>
      </trkpt>
      <trkpt lat="46.61452" lon="4.59077">
        <ele>374</ele>
        <time>2012-07-15T09:02:15.000Z</time>
      </trkpt>
      <trkpt lat="46.61452" lon="4.59071">
        <ele>374</ele>
        <time>2012-07-15T09:02:18.000Z</time>
      </trkpt>
      <trkpt lat="46.61452" lon="4.59066">
        <ele>375</ele>
        <time>2012-07-15T09:02:20.000Z</time>
      </trkpt>
      <trkpt lat="46.61451" lon="4.5905">
        <ele>375</ele>
        <time>2012-07-15T09:02:25.000Z</time>
      </trkpt>
      <trkpt lat="46.61449" lon="4.59044">
        <ele>376</ele>
        <time>2012-07-15T09:02:27.000Z</time>
      </trkpt>
      <trkpt lat="46.61448" lon="4.59029">
        <ele>376</ele>
        <time>2012-07-15T09:02:33.000Z</time>
      </trkpt>
      <trkpt lat="46.61449" lon="4.59022">
        <ele>376</ele>
        <time>2012-07-15T09:02:36.000Z</time>
      </trkpt>
      <trkpt lat="46.61449" lon="4.59018">
        <ele>377</ele>
        <time>2012-07-15T09:02:38.000Z</time>
      </trkpt>
      <trkpt lat="46.61451" lon="4.59002">
        <ele>378</ele>
        <time>2012-07-15T09:02:43.000Z</time>
      </trkpt>
      <trkpt lat="46.61452" lon="4.58988">
        <ele>379</ele>
        <time>2012-07-15T09:02:47.000Z</time>
      </trkpt>
      <trkpt lat="46.61453" lon="4.58985">
        <ele>380</ele>
        <time>2012-07-15T09:02:49.000Z</time>
      </trkpt>
      <trkpt lat="46.61454" lon="4.58981">
        <ele>380</ele>
        <time>2012-07-15T09:02:52.000Z</time>
      </trkpt>
      <trkpt lat="46.61456" lon="4.58976">
        <ele>381</ele>
        <time>2012-07-15T09:02:54.000Z</time>
      </trkpt>
      <trkpt lat="46.61459" lon="4.58969">
        <ele>382</ele>
        <time>2012-07-15T09:02:57.000Z</time>
      </trkpt>
      <trkpt lat="46.61461" lon="4.58956">
        <ele>383</ele>
        <time>2012-07-15T09:03:00.000Z</time>
      </trkpt>
      <trkpt lat="46.6146" lon="4.58947">
        <ele>384</ele>
        <time>2012-07-15T09:03:03.000Z</time>
      </trkpt>
      <trkpt lat="46.61459" lon="4.58941">
        <ele>385</ele>
        <time>2012-07-15T09:03:06.000Z</time>
      </trkpt>
      <trkpt lat="46.61455" lon="4.58933">
        <ele>386</ele>
        <time>2012-07-15T09:03:11.000Z</time>
      </trkpt>
      <trkpt lat="46.61454" lon="4.58929">
        <ele>386</ele>
        <time>2012-07-15T09:03:14.000Z</time>
      </trkpt>
      <trkpt lat="46.61454" lon="4.58925">
        <ele>385</ele>
        <time>2012-07-15T09:03:17.000Z</time>
      </trkpt>
      <trkpt lat="46.61455" lon="4.58921">
        <ele>386</ele>
        <time>2012-07-15T09:03:19.000Z</time>
      </trkpt>
      <trkpt lat="46.61455" lon="4.58914">
        <ele>386</ele>
        <time>2012-07-15T09:03:22.000Z</time>
      </trkpt>
      <trkpt lat="46.61454" lon="4.5889">
        <ele>387</ele>
        <time>2012-07-15T09:03:31.000Z</time>
      </trkpt>
      <trkpt lat="46.61454" lon="4.58864">
        <ele>388</ele>
        <time>2012-07-15T09:03:37.000Z</time>
      </trkpt>
      <trkpt lat="46.61454" lon="4.5885">
        <ele>388</ele>
        <time>2012-07-15T09:03:40.000Z</time>
      </trkpt>
      <trkpt lat="46.61454" lon="4.58842">
        <ele>388</ele>
        <time>2012-07-15T09:03:42.000Z</time>
      </trkpt>
      <trkpt lat="46.61451" lon="4.58834">
        <ele>389</ele>
        <time>2012-07-15T09:03:45.000Z</time>
      </trkpt>
      <trkpt lat="46.61449" lon="4.58817">
        <ele>389</ele>
        <time>2012-07-15T09:03:54.000Z</time>
      </trkpt>
      <trkpt lat="46.61449" lon="4.58812">
        <ele>388</ele>
        <time>2012-07-15T09:03:57.000Z</time>
      </trkpt>
      <trkpt lat="46.61452" lon="4.58804">
        <ele>388</ele>
        <time>2012-07-15T09:04:00.000Z</time>
      </trkpt>
      <trkpt lat="46.61456" lon="4.58795">
        <ele>389</ele>
        <time>2012-07-15T09:04:03.000Z</time>
      </trkpt>
      <trkpt lat="46.61462" lon="4.58783">
        <ele>390</ele>
        <time>2012-07-15T09:04:08.000Z</time>
      </trkpt>
      <trkpt lat="46.61463" lon="4.58775">
        <ele>390</ele>
        <time>2012-07-15T09:04:11.000Z</time>
      </trkpt>
      <trkpt lat="46.6146" lon="4.58768">
        <ele>390</ele>
        <time>2012-07-15T09:04:14.000Z</time>
      </trkpt>
      <trkpt lat="46.61461" lon="4.58767">
        <ele>390</ele>
        <time>2012-07-15T09:04:53.000Z</time>
      </trkpt>
      <trkpt lat="46.61461" lon="4.58767">
        <ele>390</ele>
        <time>2012-07-15T09:05:13.000Z</time>
      </trkpt>
      <trkpt lat="46.6146" lon="4.58763">
        <ele>390</ele>
        <time>2012-07-15T09:06:15.000Z</time>
      </trkpt>
      <trkpt lat="46.61462" lon="4.58763">
        <ele>390</ele>
        <time>2012-07-15T09:06:17.000Z</time>
      </trkpt>
      <trkpt lat="46.61462" lon="4.58761">
        <ele>390</ele>
        <time>2012-07-15T09:06:30.000Z</time>
      </trkpt>
      <trkpt lat="46.61459" lon="4.58758">
        <ele>390</ele>
        <time>2012-07-15T09:06:42.000Z</time>
      </trkpt>
      <trkpt lat="46.61458" lon="4.58761">
        <ele>390</ele>
        <time>2012-07-15T09:07:08.000Z</time>
      </trkpt>
      <trkpt lat="46.61456" lon="4.58763">
        <ele>390</ele>
        <time>2012-07-15T09:07:11.000Z</time>
      </trkpt>
      <trkpt lat="46.61456" lon="4.58765">
        <ele>389</ele>
        <time>2012-07-15T09:07:13.000Z</time>
      </trkpt>
      <trkpt lat="46.61457" lon="4.58765">
        <ele>389</ele>
        <time>2012-07-15T09:07:16.000Z</time>
      </trkpt>
      <trkpt lat="46.61457" lon="4.58765">
        <ele>389</ele>
        <time>2012-07-15T09:07:36.000Z</time>
      </trkpt>
      <trkpt lat="46.6146" lon="4.5876">
        <ele>390</ele>
        <time>2012-07-15T09:07:51.000Z</time>
      </trkpt>
      <trkpt lat="46.61458" lon="4.58762">
        <ele>390</ele>
        <time>2012-07-15T09:08:00.000Z</time>
      </trkpt>
      <trkpt lat="46.61459" lon="4.5876">
        <ele>390</ele>
        <time>2012-07-15T09:08:04.000Z</time>
      </trkpt>
      <trkpt lat="46.61459" lon="4.58756">
        <ele>390</ele>
        <time>2012-07-15T09:08:06.000Z</time>
      </trkpt>
      <trkpt lat="46.61464" lon="4.58743">
        <ele>390</ele>
        <time>2012-07-15T09:08:11.000Z</time>
      </trkpt>
      <trkpt lat="46.61472" lon="4.58727">
        <ele>391</ele>
        <time>2012-07-15T09:08:17.000Z</time>
      </trkpt>
      <trkpt lat="46.6148" lon="4.58716">
        <ele>392</ele>
        <time>2012-07-15T09:08:21.000Z</time>
      </trkpt>
      <trkpt lat="46.61486" lon="4.58703">
        <ele>392</ele>
        <time>2012-07-15T09:08:24.000Z</time>
      </trkpt>
      <trkpt lat="46.61489" lon="4.58696">
        <ele>393</ele>
        <time>2012-07-15T09:08:26.000Z</time>
      </trkpt>
      <trkpt lat="46.61494" lon="4.58685">
        <ele>394</ele>
        <time>2012-07-15T09:08:29.000Z</time>
      </trkpt>
      <trkpt lat="46.61501" lon="4.58679">
        <ele>395</ele>
        <time>2012-07-15T09:08:32.000Z</time>
      </trkpt>
      <trkpt lat="46.61506" lon="4.58671">
        <ele>395</ele>
        <time>2012-07-15T09:08:35.000Z</time>
      </trkpt>
      <trkpt lat="46.61509" lon="4.58664">
        <ele>396</ele>
        <time>2012-07-15T09:08:38.000Z</time>
      </trkpt>
      <trkpt lat="46.61511" lon="4.58658">
        <ele>397</ele>
        <time>2012-07-15T09:08:40.000Z</time>
      </trkpt>
      <trkpt lat="46.61528" lon="4.58597">
        <ele>397</ele>
        <time>2012-07-15T09:09:01.000Z</time>
      </trkpt>
      <trkpt lat="46.61544" lon="4.58548">
        <ele>398</ele>
        <time>2012-07-15T09:09:16.000Z</time>
      </trkpt>
      <trkpt lat="46.61555" lon="4.58519">
        <ele>399</ele>
        <time>2012-07-15T09:09:26.000Z</time>
      </trkpt>
      <trkpt lat="46.61561" lon="4.5851">
        <ele>399</ele>
        <time>2012-07-15T09:09:29.000Z</time>
      </trkpt>
      <trkpt lat="46.61563" lon="4.58505">
        <ele>400</ele>
        <time>2012-07-15T09:09:31.000Z</time>
      </trkpt>
      <trkpt lat="46.61567" lon="4.58501">
        <ele>400</ele>
        <time>2012-07-15T09:09:33.000Z</time>
      </trkpt>
      <trkpt lat="46.6157" lon="4.58499">
        <ele>401</ele>
        <time>2012-07-15T09:09:35.000Z</time>
      </trkpt>
      <trkpt lat="46.61577" lon="4.58499">
        <ele>401</ele>
        <time>2012-07-15T09:09:38.000Z</time>
      </trkpt>
      <trkpt lat="46.61583" lon="4.58499">
        <ele>402</ele>
        <time>2012-07-15T09:09:40.000Z</time>
      </trkpt>
      <trkpt lat="46.61592" lon="4.585">
        <ele>403</ele>
        <time>2012-07-15T09:09:43.000Z</time>
      </trkpt>
      <trkpt lat="46.61597" lon="4.58499">
        <ele>403</ele>
        <time>2012-07-15T09:09:45.000Z</time>
      </trkpt>
      <trkpt lat="46.61604" lon="4.58497">
        <ele>404</ele>
        <time>2012-07-15T09:09:48.000Z</time>
      </trkpt>
      <trkpt lat="46.61608" lon="4.58495">
        <ele>404</ele>
        <time>2012-07-15T09:09:50.000Z</time>
      </trkpt>
      <trkpt lat="46.61615" lon="4.58491">
        <ele>404</ele>
        <time>2012-07-15T09:09:53.000Z</time>
      </trkpt>
      <trkpt lat="46.61618" lon="4.58492">
        <ele>403</ele>
        <time>2012-07-15T09:09:55.000Z</time>
      </trkpt>
      <trkpt lat="46.61619" lon="4.58497">
        <ele>403</ele>
        <time>2012-07-15T09:09:57.000Z</time>
      </trkpt>
      <trkpt lat="46.61619" lon="4.58506">
        <ele>403</ele>
        <time>2012-07-15T09:10:00.000Z</time>
      </trkpt>
      <trkpt lat="46.6162" lon="4.58513">
        <ele>404</ele>
        <time>2012-07-15T09:10:03.000Z</time>
      </trkpt>
      <trkpt lat="46.61622" lon="4.58517">
        <ele>404</ele>
        <time>2012-07-15T09:10:05.000Z</time>
      </trkpt>
      <trkpt lat="46.61626" lon="4.58523">
        <ele>404</ele>
        <time>2012-07-15T09:10:08.000Z</time>
      </trkpt>
      <trkpt lat="46.61633" lon="4.58533">
        <ele>405</ele>
        <time>2012-07-15T09:10:12.000Z</time>
      </trkpt>
      <trkpt lat="46.61638" lon="4.58539">
        <ele>405</ele>
        <time>2012-07-15T09:10:15.000Z</time>
      </trkpt>
      <trkpt lat="46.61646" lon="4.58546">
        <ele>406</ele>
        <time>2012-07-15T09:10:19.000Z</time>
      </trkpt>
      <trkpt lat="46.61656" lon="4.58557">
        <ele>407</ele>
        <time>2012-07-15T09:10:24.000Z</time>
      </trkpt>
      <trkpt lat="46.61668" lon="4.5857">
        <ele>408</ele>
        <time>2012-07-15T09:10:31.000Z</time>
      </trkpt>
      <trkpt lat="46.61677" lon="4.5858">
        <ele>409</ele>
        <time>2012-07-15T09:10:36.000Z</time>
      </trkpt>
      <trkpt lat="46.61686" lon="4.58592">
        <ele>410</ele>
        <time>2012-07-15T09:10:41.000Z</time>
      </trkpt>
      <trkpt lat="46.61696" lon="4.58603">
        <ele>411</ele>
        <time>2012-07-15T09:10:46.000Z</time>
      </trkpt>
      <trkpt lat="46.6171" lon="4.58619">
        <ele>412</ele>
        <time>2012-07-15T09:10:54.000Z</time>
      </trkpt>
      <trkpt lat="46.61719" lon="4.58629">
        <ele>413</ele>
        <time>2012-07-15T09:10:59.000Z</time>
      </trkpt>
      <trkpt lat="46.61729" lon="4.5864">
        <ele>414</ele>
        <time>2012-07-15T09:11:05.000Z</time>
      </trkpt>
      <trkpt lat="46.61746" lon="4.58654">
        <ele>415</ele>
        <time>2012-07-15T09:11:15.000Z</time>
      </trkpt>
      <trkpt lat="46.61759" lon="4.58668">
        <ele>415</ele>
        <time>2012-07-15T09:11:21.000Z</time>
      </trkpt>
      <trkpt lat="46.61769" lon="4.58677">
        <ele>416</ele>
        <time>2012-07-15T09:11:26.000Z</time>
      </trkpt>
      <trkpt lat="46.618" lon="4.58704">
        <ele>417</ele>
        <time>2012-07-15T09:11:42.000Z</time>
      </trkpt>
      <trkpt lat="46.61839" lon="4.58735">
        <ele>418</ele>
        <time>2012-07-15T09:11:58.000Z</time>
      </trkpt>
      <trkpt lat="46.6189" lon="4.58775">
        <ele>418</ele>
        <time>2012-07-15T09:12:14.000Z</time>
      </trkpt>
      <trkpt lat="46.61928" lon="4.58805">
        <ele>417</ele>
        <time>2012-07-15T09:12:24.000Z</time>
      </trkpt>
      <trkpt lat="46.61966" lon="4.5884">
        <ele>417</ele>
        <time>2012-07-15T09:12:35.000Z</time>
      </trkpt>
      <trkpt lat="46.61986" lon="4.5886">
        <ele>418</ele>
        <time>2012-07-15T09:12:40.000Z</time>
      </trkpt>
      <trkpt lat="46.62037" lon="4.58907">
        <ele>418</ele>
        <time>2012-07-15T09:12:52.000Z</time>
      </trkpt>
      <trkpt lat="46.62077" lon="4.58941">
        <ele>418</ele>
        <time>2012-07-15T09:13:00.000Z</time>
      </trkpt>
      <trkpt lat="46.62092" lon="4.58948">
        <ele>417</ele>
        <time>2012-07-15T09:13:03.000Z</time>
      </trkpt>
      <trkpt lat="46.62103" lon="4.58947">
        <ele>416</ele>
        <time>2012-07-15T09:13:05.000Z</time>
      </trkpt>
      <trkpt lat="46.62143" lon="4.5894">
        <ele>415</ele>
        <time>2012-07-15T09:13:10.000Z</time>
      </trkpt>
      <trkpt lat="46.6216" lon="4.58939">
        <ele>414</ele>
        <time>2012-07-15T09:13:12.000Z</time>
      </trkpt>
      <trkpt lat="46.62179" lon="4.5894">
        <ele>413</ele>
        <time>2012-07-15T09:13:14.000Z</time>
      </trkpt>
      <trkpt lat="46.62194" lon="4.58937">
        <ele>412</ele>
        <time>2012-07-15T09:13:16.000Z</time>
      </trkpt>
      <trkpt lat="46.62219" lon="4.58938">
        <ele>410</ele>
        <time>2012-07-15T09:13:19.000Z</time>
      </trkpt>
      <trkpt lat="46.62241" lon="4.5893">
        <ele>409</ele>
        <time>2012-07-15T09:13:22.000Z</time>
      </trkpt>
      <trkpt lat="46.62254" lon="4.58923">
        <ele>408</ele>
        <time>2012-07-15T09:13:24.000Z</time>
      </trkpt>
      <trkpt lat="46.62274" lon="4.58917">
        <ele>408</ele>
        <time>2012-07-15T09:13:27.000Z</time>
      </trkpt>
      <trkpt lat="46.62292" lon="4.58908">
        <ele>407</ele>
        <time>2012-07-15T09:13:30.000Z</time>
      </trkpt>
      <trkpt lat="46.62342" lon="4.58883">
        <ele>406</ele>
        <time>2012-07-15T09:13:39.000Z</time>
      </trkpt>
      <trkpt lat="46.6235" lon="4.58875">
        <ele>406</ele>
        <time>2012-07-15T09:13:41.000Z</time>
      </trkpt>
      <trkpt lat="46.62363" lon="4.58868">
        <ele>406</ele>
        <time>2012-07-15T09:13:44.000Z</time>
      </trkpt>
      <trkpt lat="46.62393" lon="4.58855">
        <ele>405</ele>
        <time>2012-07-15T09:13:48.000Z</time>
      </trkpt>
      <trkpt lat="46.62416" lon="4.58839">
        <ele>404</ele>
        <time>2012-07-15T09:13:52.000Z</time>
      </trkpt>
      <trkpt lat="46.62438" lon="4.58829">
        <ele>404</ele>
        <time>2012-07-15T09:13:55.000Z</time>
      </trkpt>
      <trkpt lat="46.62475" lon="4.58813">
        <ele>403</ele>
        <time>2012-07-15T09:14:00.000Z</time>
      </trkpt>
      <trkpt lat="46.62495" lon="4.58799">
        <ele>403</ele>
        <time>2012-07-15T09:14:03.000Z</time>
      </trkpt>
      <trkpt lat="46.62517" lon="4.58786">
        <ele>402</ele>
        <time>2012-07-15T09:14:06.000Z</time>
      </trkpt>
      <trkpt lat="46.6253" lon="4.58778">
        <ele>401</ele>
        <time>2012-07-15T09:14:08.000Z</time>
      </trkpt>
      <trkpt lat="46.62548" lon="4.58769">
        <ele>400</ele>
        <time>2012-07-15T09:14:11.000Z</time>
      </trkpt>
      <trkpt lat="46.62572" lon="4.58771">
        <ele>399</ele>
        <time>2012-07-15T09:14:14.000Z</time>
      </trkpt>
      <trkpt lat="46.62587" lon="4.58767">
        <ele>398</ele>
        <time>2012-07-15T09:14:16.000Z</time>
      </trkpt>
      <trkpt lat="46.62601" lon="4.58764">
        <ele>397</ele>
        <time>2012-07-15T09:14:18.000Z</time>
      </trkpt>
      <trkpt lat="46.62657" lon="4.58753">
        <ele>397</ele>
        <time>2012-07-15T09:14:26.000Z</time>
      </trkpt>
      <trkpt lat="46.62691" lon="4.58755">
        <ele>396</ele>
        <time>2012-07-15T09:14:31.000Z</time>
      </trkpt>
      <trkpt lat="46.62705" lon="4.58753">
        <ele>396</ele>
        <time>2012-07-15T09:14:33.000Z</time>
      </trkpt>
      <trkpt lat="46.62733" lon="4.58745">
        <ele>395</ele>
        <time>2012-07-15T09:14:38.000Z</time>
      </trkpt>
      <trkpt lat="46.6276" lon="4.58729">
        <ele>395</ele>
        <time>2012-07-15T09:14:43.000Z</time>
      </trkpt>
      <trkpt lat="46.62771" lon="4.58719">
        <ele>394</ele>
        <time>2012-07-15T09:14:45.000Z</time>
      </trkpt>
      <trkpt lat="46.62822" lon="4.58687">
        <ele>394</ele>
        <time>2012-07-15T09:14:53.000Z</time>
      </trkpt>
      <trkpt lat="46.62835" lon="4.58683">
        <ele>395</ele>
        <time>2012-07-15T09:14:55.000Z</time>
      </trkpt>
      <trkpt lat="46.62873" lon="4.58668">
        <ele>395</ele>
        <time>2012-07-15T09:15:03.000Z</time>
      </trkpt>
      <trkpt lat="46.62879" lon="4.58667">
        <ele>394</ele>
        <time>2012-07-15T09:15:05.000Z</time>
      </trkpt>
      <trkpt lat="46.62881" lon="4.58665">
        <ele>394</ele>
        <time>2012-07-15T09:15:07.000Z</time>
      </trkpt>
      <trkpt lat="46.62886" lon="4.58665">
        <ele>394</ele>
        <time>2012-07-15T09:15:10.000Z</time>
      </trkpt>
      <trkpt lat="46.62885" lon="4.58664">
        <ele>394</ele>
        <time>2012-07-15T09:15:13.000Z</time>
      </trkpt>
      <trkpt lat="46.62886" lon="4.58665">
        <ele>394</ele>
        <time>2012-07-15T09:15:16.000Z</time>
      </trkpt>
      <trkpt lat="46.62891" lon="4.58665">
        <ele>394</ele>
        <time>2012-07-15T09:15:22.000Z</time>
      </trkpt>
      <trkpt lat="46.62891" lon="4.58665">
        <ele>394</ele>
        <time>2012-07-15T09:15:42.000Z</time>
      </trkpt>
      <trkpt lat="46.62893" lon="4.58668">
        <ele>393</ele>
        <time>2012-07-15T09:15:59.000Z</time>
      </trkpt>
      <trkpt lat="46.62896" lon="4.58665">
        <ele>393</ele>
        <time>2012-07-15T09:16:08.000Z</time>
      </trkpt>
      <trkpt lat="46.62902" lon="4.58662">
        <ele>393</ele>
        <time>2012-07-15T09:16:11.000Z</time>
      </trkpt>
      <trkpt lat="46.62915" lon="4.58656">
        <ele>392</ele>
        <time>2012-07-15T09:16:15.000Z</time>
      </trkpt>
      <trkpt lat="46.62951" lon="4.58637">
        <ele>391</ele>
        <time>2012-07-15T09:16:23.000Z</time>
      </trkpt>
      <trkpt lat="46.62971" lon="4.58621">
        <ele>390</ele>
        <time>2012-07-15T09:16:28.000Z</time>
      </trkpt>
      <trkpt lat="46.62994" lon="4.58605">
        <ele>391</ele>
        <time>2012-07-15T09:16:33.000Z</time>
      </trkpt>
      <trkpt lat="46.63016" lon="4.58589">
        <ele>392</ele>
        <time>2012-07-15T09:16:38.000Z</time>
      </trkpt>
      <trkpt lat="46.63022" lon="4.58585">
        <ele>392</ele>
        <time>2012-07-15T09:16:40.000Z</time>
      </trkpt>
      <trkpt lat="46.63047" lon="4.58564">
        <ele>392</ele>
        <time>2012-07-15T09:16:44.000Z</time>
      </trkpt>
      <trkpt lat="46.6306" lon="4.58554">
        <ele>391</ele>
        <time>2012-07-15T09:16:46.000Z</time>
      </trkpt>
      <trkpt lat="46.63088" lon="4.58534">
        <ele>390</ele>
        <time>2012-07-15T09:16:51.000Z</time>
      </trkpt>
      <trkpt lat="46.63099" lon="4.58526">
        <ele>389</ele>
        <time>2012-07-15T09:16:53.000Z</time>
      </trkpt>
      <trkpt lat="46.63113" lon="4.58515">
        <ele>388</ele>
        <time>2012-07-15T09:16:56.000Z</time>
      </trkpt>
      <trkpt lat="46.6312" lon="4.58508">
        <ele>388</ele>
        <time>2012-07-15T09:16:58.000Z</time>
      </trkpt>
      <trkpt lat="46.6315" lon="4.58498">
        <ele>388</ele>
        <time>2012-07-15T09:17:02.000Z</time>
      </trkpt>
      <trkpt lat="46.63171" lon="4.58491">
        <ele>387</ele>
        <time>2012-07-15T09:17:05.000Z</time>
      </trkpt>
      <trkpt lat="46.63201" lon="4.58464">
        <ele>386</ele>
        <time>2012-07-15T09:17:10.000Z</time>
      </trkpt>
      <trkpt lat="46.6321" lon="4.5845">
        <ele>385</ele>
        <time>2012-07-15T09:17:12.000Z</time>
      </trkpt>
      <trkpt lat="46.63228" lon="4.58434">
        <ele>384</ele>
        <time>2012-07-15T09:17:15.000Z</time>
      </trkpt>
      <trkpt lat="46.63245" lon="4.5843">
        <ele>383</ele>
        <time>2012-07-15T09:17:17.000Z</time>
      </trkpt>
      <trkpt lat="46.63257" lon="4.58422">
        <ele>382</ele>
        <time>2012-07-15T09:17:19.000Z</time>
      </trkpt>
      <trkpt lat="46.63274" lon="4.58411">
        <ele>381</ele>
        <time>2012-07-15T09:17:22.000Z</time>
      </trkpt>
      <trkpt lat="46.63288" lon="4.58406">
        <ele>381</ele>
        <time>2012-07-15T09:17:24.000Z</time>
      </trkpt>
      <trkpt lat="46.63305" lon="4.58393">
        <ele>380</ele>
        <time>2012-07-15T09:17:27.000Z</time>
      </trkpt>
      <trkpt lat="46.63317" lon="4.5839">
        <ele>379</ele>
        <time>2012-07-15T09:17:29.000Z</time>
      </trkpt>
      <trkpt lat="46.63329" lon="4.58385">
        <ele>378</ele>
        <time>2012-07-15T09:17:31.000Z</time>
      </trkpt>
      <trkpt lat="46.63346" lon="4.58384">
        <ele>377</ele>
        <time>2012-07-15T09:17:34.000Z</time>
      </trkpt>
      <trkpt lat="46.63358" lon="4.58382">
        <ele>377</ele>
        <time>2012-07-15T09:17:36.000Z</time>
      </trkpt>
      <trkpt lat="46.63377" lon="4.58375">
        <ele>376</ele>
        <time>2012-07-15T09:17:39.000Z</time>
      </trkpt>
      <trkpt lat="46.63391" lon="4.58368">
        <ele>375</ele>
        <time>2012-07-15T09:17:41.000Z</time>
      </trkpt>
      <trkpt lat="46.6341" lon="4.58365">
        <ele>374</ele>
        <time>2012-07-15T09:17:44.000Z</time>
      </trkpt>
      <trkpt lat="46.63443" lon="4.58363">
        <ele>373</ele>
        <time>2012-07-15T09:17:49.000Z</time>
      </trkpt>
      <trkpt lat="46.63454" lon="4.58358">
        <ele>372</ele>
        <time>2012-07-15T09:17:51.000Z</time>
      </trkpt>
      <trkpt lat="46.63474" lon="4.58348">
        <ele>371</ele>
        <time>2012-07-15T09:17:54.000Z</time>
      </trkpt>
      <trkpt lat="46.63486" lon="4.58343">
        <ele>370</ele>
        <time>2012-07-15T09:17:56.000Z</time>
      </trkpt>
      <trkpt lat="46.63535" lon="4.5832">
        <ele>369</ele>
        <time>2012-07-15T09:18:04.000Z</time>
      </trkpt>
      <trkpt lat="46.63569" lon="4.58302">
        <ele>368</ele>
        <time>2012-07-15T09:18:09.000Z</time>
      </trkpt>
      <trkpt lat="46.63582" lon="4.58298">
        <ele>368</ele>
        <time>2012-07-15T09:18:11.000Z</time>
      </trkpt>
      <trkpt lat="46.63602" lon="4.58287">
        <ele>367</ele>
        <time>2012-07-15T09:18:14.000Z</time>
      </trkpt>
      <trkpt lat="46.63621" lon="4.58279">
        <ele>366</ele>
        <time>2012-07-15T09:18:17.000Z</time>
      </trkpt>
      <trkpt lat="46.63631" lon="4.58273">
        <ele>365</ele>
        <time>2012-07-15T09:18:19.000Z</time>
      </trkpt>
      <trkpt lat="46.63644" lon="4.58262">
        <ele>364</ele>
        <time>2012-07-15T09:18:21.000Z</time>
      </trkpt>
      <trkpt lat="46.63652" lon="4.58251">
        <ele>363</ele>
        <time>2012-07-15T09:18:23.000Z</time>
      </trkpt>
      <trkpt lat="46.63673" lon="4.58241">
        <ele>363</ele>
        <time>2012-07-15T09:18:26.000Z</time>
      </trkpt>
      <trkpt lat="46.63692" lon="4.58232">
        <ele>362</ele>
        <time>2012-07-15T09:18:29.000Z</time>
      </trkpt>
      <trkpt lat="46.63705" lon="4.58232">
        <ele>361</ele>
        <time>2012-07-15T09:18:31.000Z</time>
      </trkpt>
      <trkpt lat="46.63725" lon="4.58223">
        <ele>359</ele>
        <time>2012-07-15T09:18:34.000Z</time>
      </trkpt>
      <trkpt lat="46.63738" lon="4.58214">
        <ele>357</ele>
        <time>2012-07-15T09:18:36.000Z</time>
      </trkpt>
      <trkpt lat="46.63749" lon="4.58205">
        <ele>356</ele>
        <time>2012-07-15T09:18:38.000Z</time>
      </trkpt>
      <trkpt lat="46.63764" lon="4.58204">
        <ele>354</ele>
        <time>2012-07-15T09:18:41.000Z</time>
      </trkpt>
      <trkpt lat="46.63765" lon="4.58205">
        <ele>353</ele>
        <time>2012-07-15T09:18:44.000Z</time>
      </trkpt>
      <trkpt lat="46.63771" lon="4.58204">
        <ele>352</ele>
        <time>2012-07-15T09:18:46.000Z</time>
      </trkpt>
      <trkpt lat="46.6377" lon="4.58203">
        <ele>351</ele>
        <time>2012-07-15T09:18:48.000Z</time>
      </trkpt>
      <trkpt lat="46.63768" lon="4.58204">
        <ele>351</ele>
        <time>2012-07-15T09:18:51.000Z</time>
      </trkpt>
      <trkpt lat="46.63763" lon="4.58206">
        <ele>351</ele>
        <time>2012-07-15T09:18:54.000Z</time>
      </trkpt>
      <trkpt lat="46.63758" lon="4.58205">
        <ele>351</ele>
        <time>2012-07-15T09:18:57.000Z</time>
      </trkpt>
      <trkpt lat="46.63755" lon="4.58204">
        <ele>352</ele>
        <time>2012-07-15T09:18:59.000Z</time>
      </trkpt>
      <trkpt lat="46.63748" lon="4.58204">
        <ele>352</ele>
        <time>2012-07-15T09:19:02.000Z</time>
      </trkpt>
      <trkpt lat="46.63743" lon="4.58203">
        <ele>353</ele>
        <time>2012-07-15T09:19:04.000Z</time>
      </trkpt>
      <trkpt lat="46.63734" lon="4.582">
        <ele>354</ele>
        <time>2012-07-15T09:19:07.000Z</time>
      </trkpt>
      <trkpt lat="46.63726" lon="4.58194">
        <ele>355</ele>
        <time>2012-07-15T09:19:10.000Z</time>
      </trkpt>
      <trkpt lat="46.63723" lon="4.58187">
        <ele>356</ele>
        <time>2012-07-15T09:19:13.000Z</time>
      </trkpt>
      <trkpt lat="46.63721" lon="4.5818">
        <ele>357</ele>
        <time>2012-07-15T09:19:16.000Z</time>
      </trkpt>
      <trkpt lat="46.63719" lon="4.58174">
        <ele>358</ele>
        <time>2012-07-15T09:19:18.000Z</time>
      </trkpt>
      <trkpt lat="46.63717" lon="4.58167">
        <ele>359</ele>
        <time>2012-07-15T09:19:20.000Z</time>
      </trkpt>
      <trkpt lat="46.63714" lon="4.58158">
        <ele>360</ele>
        <time>2012-07-15T09:19:23.000Z</time>
      </trkpt>
      <trkpt lat="46.63711" lon="4.58154">
        <ele>361</ele>
        <time>2012-07-15T09:19:25.000Z</time>
      </trkpt>
      <trkpt lat="46.63693" lon="4.58124">
        <ele>362</ele>
        <time>2012-07-15T09:19:36.000Z</time>
      </trkpt>
      <trkpt lat="46.63662" lon="4.58065">
        <ele>362</ele>
        <time>2012-07-15T09:19:50.000Z</time>
      </trkpt>
      <trkpt lat="46.63638" lon="4.58029">
        <ele>361</ele>
        <time>2012-07-15T09:19:58.000Z</time>
      </trkpt>
      <trkpt lat="46.63624" lon="4.58006">
        <ele>360</ele>
        <time>2012-07-15T09:20:04.000Z</time>
      </trkpt>
      <trkpt lat="46.63627" lon="4.57991">
        <ele>360</ele>
        <time>2012-07-15T09:20:07.000Z</time>
      </trkpt>
      <trkpt lat="46.63663" lon="4.57932">
        <ele>358</ele>
        <time>2012-07-15T09:20:13.000Z</time>
      </trkpt>
      <trkpt lat="46.63675" lon="4.57905">
        <ele>357</ele>
        <time>2012-07-15T09:20:16.000Z</time>
      </trkpt>
      <trkpt lat="46.63687" lon="4.57888">
        <ele>355</ele>
        <time>2012-07-15T09:20:19.000Z</time>
      </trkpt>
      <trkpt lat="46.63697" lon="4.5787">
        <ele>354</ele>
        <time>2012-07-15T09:20:21.000Z</time>
      </trkpt>
      <trkpt lat="46.63698" lon="4.57863">
        <ele>352</ele>
        <time>2012-07-15T09:20:23.000Z</time>
      </trkpt>
      <trkpt lat="46.63699" lon="4.57856">
        <ele>351</ele>
        <time>2012-07-15T09:20:26.000Z</time>
      </trkpt>
      <trkpt lat="46.63696" lon="4.57852">
        <ele>351</ele>
        <time>2012-07-15T09:20:29.000Z</time>
      </trkpt>
      <trkpt lat="46.63696" lon="4.57854">
        <ele>350</ele>
        <time>2012-07-15T09:20:32.000Z</time>
      </trkpt>
      <trkpt lat="46.63697" lon="4.57857">
        <ele>350</ele>
        <time>2012-07-15T09:20:34.000Z</time>
      </trkpt>
      <trkpt lat="46.63699" lon="4.57857">
        <ele>350</ele>
        <time>2012-07-15T09:20:36.000Z</time>
      </trkpt>
      <trkpt lat="46.63702" lon="4.57856">
        <ele>350</ele>
        <time>2012-07-15T09:20:39.000Z</time>
      </trkpt>
      <trkpt lat="46.63705" lon="4.57856">
        <ele>350</ele>
        <time>2012-07-15T09:20:41.000Z</time>
      </trkpt>
      <trkpt lat="46.63707" lon="4.57853">
        <ele>350</ele>
        <time>2012-07-15T09:20:44.000Z</time>
      </trkpt>
      <trkpt lat="46.63707" lon="4.57851">
        <ele>350</ele>
        <time>2012-07-15T09:20:46.000Z</time>
      </trkpt>
      <trkpt lat="46.63707" lon="4.57848">
        <ele>350</ele>
        <time>2012-07-15T09:20:49.000Z</time>
      </trkpt>
      <trkpt lat="46.63705" lon="4.57845">
        <ele>350</ele>
        <time>2012-07-15T09:20:51.000Z</time>
      </trkpt>
      <trkpt lat="46.63701" lon="4.57841">
        <ele>350</ele>
        <time>2012-07-15T09:20:55.000Z</time>
      </trkpt>
      <trkpt lat="46.63698" lon="4.57836">
        <ele>350</ele>
        <time>2012-07-15T09:20:58.000Z</time>
      </trkpt>
      <trkpt lat="46.63696" lon="4.57833">
        <ele>349</ele>
        <time>2012-07-15T09:21:00.000Z</time>
      </trkpt>
      <trkpt lat="46.63695" lon="4.57832">
        <ele>349</ele>
        <time>2012-07-15T09:21:02.000Z</time>
      </trkpt>
      <trkpt lat="46.63692" lon="4.57825">
        <ele>349</ele>
        <time>2012-07-15T09:21:22.000Z</time>
      </trkpt>
      <trkpt lat="46.63699" lon="4.57818">
        <ele>349</ele>
        <time>2012-07-15T09:21:25.000Z</time>
      </trkpt>
      <trkpt lat="46.63712" lon="4.57808">
        <ele>348</ele>
        <time>2012-07-15T09:21:28.000Z</time>
      </trkpt>
      <trkpt lat="46.63718" lon="4.578">
        <ele>348</ele>
        <time>2012-07-15T09:21:30.000Z</time>
      </trkpt>
      <trkpt lat="46.63721" lon="4.57789">
        <ele>347</ele>
        <time>2012-07-15T09:21:33.000Z</time>
      </trkpt>
      <trkpt lat="46.63722" lon="4.57777">
        <ele>346</ele>
        <time>2012-07-15T09:21:35.000Z</time>
      </trkpt>
      <trkpt lat="46.63721" lon="4.57764">
        <ele>345</ele>
        <time>2012-07-15T09:21:37.000Z</time>
      </trkpt>
      <trkpt lat="46.63717" lon="4.57732">
        <ele>344</ele>
        <time>2012-07-15T09:21:42.000Z</time>
      </trkpt>
      <trkpt lat="46.63717" lon="4.57716">
        <ele>343</ele>
        <time>2012-07-15T09:21:44.000Z</time>
      </trkpt>
      <trkpt lat="46.6372" lon="4.5766">
        <ele>341</ele>
        <time>2012-07-15T09:21:48.000Z</time>
      </trkpt>
      <trkpt lat="46.6372" lon="4.57638">
        <ele>340</ele>
        <time>2012-07-15T09:21:51.000Z</time>
      </trkpt>
      <trkpt lat="46.63717" lon="4.57626">
        <ele>338</ele>
        <time>2012-07-15T09:21:53.000Z</time>
      </trkpt>
      <trkpt lat="46.63708" lon="4.57609">
        <ele>337</ele>
        <time>2012-07-15T09:21:56.000Z</time>
      </trkpt>
      <trkpt lat="46.63673" lon="4.5757">
        <ele>336</ele>
        <time>2012-07-15T09:22:01.000Z</time>
      </trkpt>
      <trkpt lat="46.63661" lon="4.5756">
        <ele>336</ele>
        <time>2012-07-15T09:22:03.000Z</time>
      </trkpt>
      <trkpt lat="46.63649" lon="4.5755">
        <ele>335</ele>
        <time>2012-07-15T09:22:05.000Z</time>
      </trkpt>
      <trkpt lat="46.63633" lon="4.57538">
        <ele>335</ele>
        <time>2012-07-15T09:22:08.000Z</time>
      </trkpt>
      <trkpt lat="46.6362" lon="4.57536">
        <ele>335</ele>
        <time>2012-07-15T09:22:10.000Z</time>
      </trkpt>
      <trkpt lat="46.63601" lon="4.5753">
        <ele>334</ele>
        <time>2012-07-15T09:22:13.000Z</time>
      </trkpt>
      <trkpt lat="46.63588" lon="4.57528">
        <ele>333</ele>
        <time>2012-07-15T09:22:15.000Z</time>
      </trkpt>
      <trkpt lat="46.63575" lon="4.57524">
        <ele>333</ele>
        <time>2012-07-15T09:22:17.000Z</time>
      </trkpt>
      <trkpt lat="46.63566" lon="4.57519">
        <ele>332</ele>
        <time>2012-07-15T09:22:19.000Z</time>
      </trkpt>
      <trkpt lat="46.63554" lon="4.57512">
        <ele>331</ele>
        <time>2012-07-15T09:22:21.000Z</time>
      </trkpt>
      <trkpt lat="46.63538" lon="4.57505">
        <ele>330</ele>
        <time>2012-07-15T09:22:24.000Z</time>
      </trkpt>
      <trkpt lat="46.63528" lon="4.57504">
        <ele>328</ele>
        <time>2012-07-15T09:22:26.000Z</time>
      </trkpt>
      <trkpt lat="46.63511" lon="4.57492">
        <ele>326</ele>
        <time>2012-07-15T09:22:29.000Z</time>
      </trkpt>
      <trkpt lat="46.63496" lon="4.57489">
        <ele>325</ele>
        <time>2012-07-15T09:22:32.000Z</time>
      </trkpt>
      <trkpt lat="46.63483" lon="4.5749">
        <ele>323</ele>
        <time>2012-07-15T09:22:35.000Z</time>
      </trkpt>
      <trkpt lat="46.63475" lon="4.57492">
        <ele>323</ele>
        <time>2012-07-15T09:22:37.000Z</time>
      </trkpt>
      <trkpt lat="46.63461" lon="4.57493">
        <ele>322</ele>
        <time>2012-07-15T09:22:40.000Z</time>
      </trkpt>
      <trkpt lat="46.63445" lon="4.57487">
        <ele>322</ele>
        <time>2012-07-15T09:22:43.000Z</time>
      </trkpt>
      <trkpt lat="46.63428" lon="4.57477">
        <ele>322</ele>
        <time>2012-07-15T09:22:47.000Z</time>
      </trkpt>
      <trkpt lat="46.63398" lon="4.57468">
        <ele>322</ele>
        <time>2012-07-15T09:22:56.000Z</time>
      </trkpt>
      <trkpt lat="46.63372" lon="4.57456">
        <ele>322</ele>
        <time>2012-07-15T09:23:00.000Z</time>
      </trkpt>
      <trkpt lat="46.6335" lon="4.57452">
        <ele>322</ele>
        <time>2012-07-15T09:23:05.000Z</time>
      </trkpt>
      <trkpt lat="46.63338" lon="4.57446">
        <ele>323</ele>
        <time>2012-07-15T09:23:08.000Z</time>
      </trkpt>
      <trkpt lat="46.63331" lon="4.57444">
        <ele>323</ele>
        <time>2012-07-15T09:23:10.000Z</time>
      </trkpt>
      <trkpt lat="46.63282" lon="4.57429">
        <ele>323</ele>
        <time>2012-07-15T09:23:22.000Z</time>
      </trkpt>
      <trkpt lat="46.63243" lon="4.5742">
        <ele>322</ele>
        <time>2012-07-15T09:23:32.000Z</time>
      </trkpt>
      <trkpt lat="46.63234" lon="4.57425">
        <ele>322</ele>
        <time>2012-07-15T09:23:35.000Z</time>
      </trkpt>
      <trkpt lat="46.63227" lon="4.5743">
        <ele>322</ele>
        <time>2012-07-15T09:23:37.000Z</time>
      </trkpt>
      <trkpt lat="46.6319" lon="4.57441">
        <ele>322</ele>
        <time>2012-07-15T09:23:43.000Z</time>
      </trkpt>
      <trkpt lat="46.63177" lon="4.57443">
        <ele>322</ele>
        <time>2012-07-15T09:23:45.000Z</time>
      </trkpt>
      <trkpt lat="46.63118" lon="4.57443">
        <ele>322</ele>
        <time>2012-07-15T09:23:59.000Z</time>
      </trkpt>
      <trkpt lat="46.63111" lon="4.57439">
        <ele>322</ele>
        <time>2012-07-15T09:24:01.000Z</time>
      </trkpt>
      <trkpt lat="46.631" lon="4.5744">
        <ele>323</ele>
        <time>2012-07-15T09:24:04.000Z</time>
      </trkpt>
      <trkpt lat="46.6308" lon="4.57437">
        <ele>324</ele>
        <time>2012-07-15T09:24:09.000Z</time>
      </trkpt>
      <trkpt lat="46.63064" lon="4.57435">
        <ele>325</ele>
        <time>2012-07-15T09:24:16.000Z</time>
      </trkpt>
      <trkpt lat="46.63057" lon="4.57434">
        <ele>326</ele>
        <time>2012-07-15T09:24:22.000Z</time>
      </trkpt>
      <trkpt lat="46.63053" lon="4.57435">
        <ele>326</ele>
        <time>2012-07-15T09:24:24.000Z</time>
      </trkpt>
      <trkpt lat="46.6305" lon="4.57436">
        <ele>326</ele>
        <time>2012-07-15T09:24:26.000Z</time>
      </trkpt>
      <trkpt lat="46.63047" lon="4.57436">
        <ele>327</ele>
        <time>2012-07-15T09:24:28.000Z</time>
      </trkpt>
      <trkpt lat="46.63041" lon="4.57433">
        <ele>327</ele>
        <time>2012-07-15T09:24:31.000Z</time>
      </trkpt>
      <trkpt lat="46.63031" lon="4.57428">
        <ele>328</ele>
        <time>2012-07-15T09:24:36.000Z</time>
      </trkpt>
      <trkpt lat="46.63026" lon="4.57427">
        <ele>328</ele>
        <time>2012-07-15T09:24:38.000Z</time>
      </trkpt>
      <trkpt lat="46.6302" lon="4.57427">
        <ele>329</ele>
        <time>2012-07-15T09:24:41.000Z</time>
      </trkpt>
      <trkpt lat="46.63004" lon="4.57426">
        <ele>330</ele>
        <time>2012-07-15T09:24:50.000Z</time>
      </trkpt>
      <trkpt lat="46.62995" lon="4.57427">
        <ele>331</ele>
        <time>2012-07-15T09:24:53.000Z</time>
      </trkpt>
      <trkpt lat="46.6299" lon="4.57426">
        <ele>331</ele>
        <time>2012-07-15T09:24:55.000Z</time>
      </trkpt>
      <trkpt lat="46.62978" lon="4.57424">
        <ele>331</ele>
        <time>2012-07-15T09:25:00.000Z</time>
      </trkpt>
      <trkpt lat="46.6297" lon="4.5742">
        <ele>331</ele>
        <time>2012-07-15T09:25:03.000Z</time>
      </trkpt>
      <trkpt lat="46.62964" lon="4.57418">
        <ele>331</ele>
        <time>2012-07-15T09:25:05.000Z</time>
      </trkpt>
      <trkpt lat="46.62946" lon="4.5741">
        <ele>331</ele>
        <time>2012-07-15T09:25:12.000Z</time>
      </trkpt>
      <trkpt lat="46.62943" lon="4.57408">
        <ele>331</ele>
        <time>2012-07-15T09:25:14.000Z</time>
      </trkpt>
      <trkpt lat="46.62941" lon="4.57407">
        <ele>330</ele>
        <time>2012-07-15T09:25:17.000Z</time>
      </trkpt>
      <trkpt lat="46.62939" lon="4.57407">
        <ele>330</ele>
        <time>2012-07-15T09:25:20.000Z</time>
      </trkpt>
      <trkpt lat="46.6294" lon="4.57407">
        <ele>330</ele>
        <time>2012-07-15T09:25:23.000Z</time>
      </trkpt>
      <trkpt lat="46.6294" lon="4.57407">
        <ele>330</ele>
        <time>2012-07-15T09:25:43.000Z</time>
      </trkpt>
      <trkpt lat="46.62939" lon="4.57408">
        <ele>330</ele>
        <time>2012-07-15T09:26:14.000Z</time>
      </trkpt>
      <trkpt lat="46.62938" lon="4.57408">
        <ele>330</ele>
        <time>2012-07-15T09:26:16.000Z</time>
      </trkpt>
      <trkpt lat="46.62938" lon="4.57408">
        <ele>330</ele>
        <time>2012-07-15T09:26:36.000Z</time>
      </trkpt>
      <trkpt lat="46.62941" lon="4.57405">
        <ele>330</ele>
        <time>2012-07-15T09:27:10.000Z</time>
      </trkpt>
      <trkpt lat="46.62942" lon="4.57403">
        <ele>330</ele>
        <time>2012-07-15T09:27:18.000Z</time>
      </trkpt>
      <trkpt lat="46.62942" lon="4.57402">
        <ele>330</ele>
        <time>2012-07-15T09:27:21.000Z</time>
      </trkpt>
      <trkpt lat="46.62941" lon="4.57401">
        <ele>330</ele>
        <time>2012-07-15T09:27:32.000Z</time>
      </trkpt>
      <trkpt lat="46.62941" lon="4.57399">
        <ele>330</ele>
        <time>2012-07-15T09:27:47.000Z</time>
      </trkpt>
      <trkpt lat="46.62941" lon="4.574">
        <ele>329</ele>
        <time>2012-07-15T09:27:49.000Z</time>
      </trkpt>
      <trkpt lat="46.6294" lon="4.57399">
        <ele>329</ele>
        <time>2012-07-15T09:27:51.000Z</time>
      </trkpt>
      <trkpt lat="46.62919" lon="4.57382">
        <ele>328</ele>
        <time>2012-07-15T09:28:01.000Z</time>
      </trkpt>
      <trkpt lat="46.62909" lon="4.57382">
        <ele>328</ele>
        <time>2012-07-15T09:28:04.000Z</time>
      </trkpt>
      <trkpt lat="46.62893" lon="4.5738">
        <ele>328</ele>
        <time>2012-07-15T09:28:07.000Z</time>
      </trkpt>
      <trkpt lat="46.6288" lon="4.57375">
        <ele>328</ele>
        <time>2012-07-15T09:28:09.000Z</time>
      </trkpt>
      <trkpt lat="46.62861" lon="4.57358">
        <ele>327</ele>
        <time>2012-07-15T09:28:12.000Z</time>
      </trkpt>
      <trkpt lat="46.62845" lon="4.57343">
        <ele>326</ele>
        <time>2012-07-15T09:28:14.000Z</time>
      </trkpt>
      <trkpt lat="46.62831" lon="4.57327">
        <ele>325</ele>
        <time>2012-07-15T09:28:16.000Z</time>
      </trkpt>
      <trkpt lat="46.62816" lon="4.57301">
        <ele>324</ele>
        <time>2012-07-15T09:28:19.000Z</time>
      </trkpt>
      <trkpt lat="46.62805" lon="4.57269">
        <ele>322</ele>
        <time>2012-07-15T09:28:22.000Z</time>
      </trkpt>
      <trkpt lat="46.62798" lon="4.57247">
        <ele>320</ele>
        <time>2012-07-15T09:28:24.000Z</time>
      </trkpt>
      <trkpt lat="46.6279" lon="4.57205">
        <ele>318</ele>
        <time>2012-07-15T09:28:27.000Z</time>
      </trkpt>
      <trkpt lat="46.62781" lon="4.57164">
        <ele>315</ele>
        <time>2012-07-15T09:28:30.000Z</time>
      </trkpt>
      <trkpt lat="46.62774" lon="4.57139">
        <ele>312</ele>
        <time>2012-07-15T09:28:32.000Z</time>
      </trkpt>
      <trkpt lat="46.62764" lon="4.57092">
        <ele>308</ele>
        <time>2012-07-15T09:28:35.000Z</time>
      </trkpt>
      <trkpt lat="46.62753" lon="4.57051">
        <ele>304</ele>
        <time>2012-07-15T09:28:38.000Z</time>
      </trkpt>
      <trkpt lat="46.62739" lon="4.57033">
        <ele>300</ele>
        <time>2012-07-15T09:28:41.000Z</time>
      </trkpt>
      <trkpt lat="46.62721" lon="4.57008">
        <ele>297</ele>
        <time>2012-07-15T09:28:44.000Z</time>
      </trkpt>
      <trkpt lat="46.62706" lon="4.56993">
        <ele>294</ele>
        <time>2012-07-15T09:28:46.000Z</time>
      </trkpt>
      <trkpt lat="46.62691" lon="4.56983">
        <ele>291</ele>
        <time>2012-07-15T09:28:48.000Z</time>
      </trkpt>
      <trkpt lat="46.62675" lon="4.56969">
        <ele>288</ele>
        <time>2012-07-15T09:28:50.000Z</time>
      </trkpt>
      <trkpt lat="46.62663" lon="4.56961">
        <ele>286</ele>
        <time>2012-07-15T09:28:53.000Z</time>
      </trkpt>
      <trkpt lat="46.6265" lon="4.56954">
        <ele>283</ele>
        <time>2012-07-15T09:28:56.000Z</time>
      </trkpt>
      <trkpt lat="46.62638" lon="4.56956">
        <ele>281</ele>
        <time>2012-07-15T09:28:58.000Z</time>
      </trkpt>
      <trkpt lat="46.62623" lon="4.56955">
        <ele>280</ele>
        <time>2012-07-15T09:29:00.000Z</time>
      </trkpt>
      <trkpt lat="46.62602" lon="4.56942">
        <ele>278</ele>
        <time>2012-07-15T09:29:03.000Z</time>
      </trkpt>
      <trkpt lat="46.6259" lon="4.5693">
        <ele>277</ele>
        <time>2012-07-15T09:29:05.000Z</time>
      </trkpt>
      <trkpt lat="46.62581" lon="4.56917">
        <ele>275</ele>
        <time>2012-07-15T09:29:08.000Z</time>
      </trkpt>
      <trkpt lat="46.62575" lon="4.5691">
        <ele>274</ele>
        <time>2012-07-15T09:29:10.000Z</time>
      </trkpt>
      <trkpt lat="46.62569" lon="4.569">
        <ele>272</ele>
        <time>2012-07-15T09:29:12.000Z</time>
      </trkpt>
      <trkpt lat="46.62574" lon="4.56907">
        <ele>271</ele>
        <time>2012-07-15T09:29:15.000Z</time>
      </trkpt>
      <trkpt lat="46.62575" lon="4.56905">
        <ele>270</ele>
        <time>2012-07-15T09:29:18.000Z</time>
      </trkpt>
      <trkpt lat="46.62572" lon="4.56902">
        <ele>270</ele>
        <time>2012-07-15T09:29:20.000Z</time>
      </trkpt>
      <trkpt lat="46.62572" lon="4.56904">
        <ele>270</ele>
        <time>2012-07-15T09:29:28.000Z</time>
      </trkpt>
      <trkpt lat="46.62571" lon="4.56904">
        <ele>270</ele>
        <time>2012-07-15T09:29:34.000Z</time>
      </trkpt>
      <trkpt lat="46.62571" lon="4.56906">
        <ele>270</ele>
        <time>2012-07-15T09:29:37.000Z</time>
      </trkpt>
      <trkpt lat="46.6257" lon="4.56907">
        <ele>270</ele>
        <time>2012-07-15T09:29:39.000Z</time>
      </trkpt>
      <trkpt lat="46.62568" lon="4.56908">
        <ele>270</ele>
        <time>2012-07-15T09:29:42.000Z</time>
      </trkpt>
      <trkpt lat="46.62567" lon="4.5691">
        <ele>271</ele>
        <time>2012-07-15T09:29:44.000Z</time>
      </trkpt>
      <trkpt lat="46.62567" lon="4.56911">
        <ele>271</ele>
        <time>2012-07-15T09:29:46.000Z</time>
      </trkpt>
      <trkpt lat="46.62565" lon="4.56913">
        <ele>271</ele>
        <time>2012-07-15T09:29:48.000Z</time>
      </trkpt>
      <trkpt lat="46.62564" lon="4.56917">
        <ele>271</ele>
        <time>2012-07-15T09:29:51.000Z</time>
      </trkpt>
      <trkpt lat="46.62564" lon="4.56919">
        <ele>272</ele>
        <time>2012-07-15T09:29:54.000Z</time>
      </trkpt>
      <trkpt lat="46.62566" lon="4.56926">
        <ele>272</ele>
        <time>2012-07-15T09:29:57.000Z</time>
      </trkpt>
      <trkpt lat="46.62566" lon="4.56929">
        <ele>273</ele>
        <time>2012-07-15T09:29:59.000Z</time>
      </trkpt>
      <trkpt lat="46.62566" lon="4.56933">
        <ele>273</ele>
        <time>2012-07-15T09:30:47.000Z</time>
      </trkpt>
      <trkpt lat="46.62567" lon="4.56925">
        <ele>273</ele>
        <time>2012-07-15T09:30:50.000Z</time>
      </trkpt>
      <trkpt lat="46.62566" lon="4.56924">
        <ele>273</ele>
        <time>2012-07-15T09:30:58.000Z</time>
      </trkpt>
      <trkpt lat="46.62566" lon="4.56924">
        <ele>273</ele>
        <time>2012-07-15T09:31:18.000Z</time>
      </trkpt>
      <trkpt lat="46.62561" lon="4.56925">
        <ele>273</ele>
        <time>2012-07-15T09:31:39.000Z</time>
      </trkpt>
      <trkpt lat="46.62559" lon="4.56918">
        <ele>273</ele>
        <time>2012-07-15T09:31:46.000Z</time>
      </trkpt>
      <trkpt lat="46.6256" lon="4.56915">
        <ele>273</ele>
        <time>2012-07-15T09:31:52.000Z</time>
      </trkpt>
      <trkpt lat="46.6256" lon="4.56916">
        <ele>273</ele>
        <time>2012-07-15T09:31:56.000Z</time>
      </trkpt>
      <trkpt lat="46.62561" lon="4.56915">
        <ele>273</ele>
        <time>2012-07-15T09:31:59.000Z</time>
      </trkpt>
      <trkpt lat="46.6256" lon="4.56917">
        <ele>272</ele>
        <time>2012-07-15T09:32:03.000Z</time>
      </trkpt>
      <trkpt lat="46.62562" lon="4.56918">
        <ele>272</ele>
        <time>2012-07-15T09:32:08.000Z</time>
      </trkpt>
      <trkpt lat="46.62564" lon="4.56919">
        <ele>272</ele>
        <time>2012-07-15T09:32:11.000Z</time>
      </trkpt>
      <trkpt lat="46.62562" lon="4.56916">
        <ele>272</ele>
        <time>2012-07-15T09:32:20.000Z</time>
      </trkpt>
      <trkpt lat="46.62561" lon="4.56917">
        <ele>272</ele>
        <time>2012-07-15T09:32:22.000Z</time>
      </trkpt>
      <trkpt lat="46.62561" lon="4.56917">
        <ele>272</ele>
        <time>2012-07-15T09:32:42.000Z</time>
      </trkpt>
      <trkpt lat="46.6256" lon="4.56924">
        <ele>273</ele>
        <time>2012-07-15T09:32:50.000Z</time>
      </trkpt>
      <trkpt lat="46.62562" lon="4.56924">
        <ele>273</ele>
        <time>2012-07-15T09:32:56.000Z</time>
      </trkpt>
      <trkpt lat="46.62564" lon="4.56921">
        <ele>273</ele>
        <time>2012-07-15T09:33:05.000Z</time>
      </trkpt>
      <trkpt lat="46.62563" lon="4.56923">
        <ele>273</ele>
        <time>2012-07-15T09:33:10.000Z</time>
      </trkpt>
      <trkpt lat="46.62562" lon="4.56922">
        <ele>273</ele>
        <time>2012-07-15T09:33:13.000Z</time>
      </trkpt>
      <trkpt lat="46.62562" lon="4.5692">
        <ele>273</ele>
        <time>2012-07-15T09:33:16.000Z</time>
      </trkpt>
      <trkpt lat="46.62564" lon="4.56922">
        <ele>273</ele>
        <time>2012-07-15T09:33:25.000Z</time>
      </trkpt>
      <trkpt lat="46.62566" lon="4.56922">
        <ele>273</ele>
        <time>2012-07-15T09:33:27.000Z</time>
      </trkpt>
      <trkpt lat="46.62566" lon="4.56921">
        <ele>273</ele>
        <time>2012-07-15T09:33:30.000Z</time>
      </trkpt>
      <trkpt lat="46.62567" lon="4.56919">
        <ele>273</ele>
        <time>2012-07-15T09:33:33.000Z</time>
      </trkpt>
      <trkpt lat="46.62567" lon="4.56919">
        <ele>273</ele>
        <time>2012-07-15T09:33:53.000Z</time>
      </trkpt>
      <trkpt lat="46.62565" lon="4.56914">
        <ele>272</ele>
        <time>2012-07-15T09:35:45.000Z</time>
      </trkpt>
      <trkpt lat="46.62564" lon="4.56913">
        <ele>272</ele>
        <time>2012-07-15T09:35:48.000Z</time>
      </trkpt>
      <trkpt lat="46.62564" lon="4.56913">
        <ele>272</ele>
        <time>2012-07-15T09:36:08.000Z</time>
      </trkpt>
      <trkpt lat="46.62563" lon="4.56911">
        <ele>272</ele>
        <time>2012-07-15T09:36:11.000Z</time>
      </trkpt>
      <trkpt lat="46.62564" lon="4.56915">
        <ele>272</ele>
        <time>2012-07-15T09:36:21.000Z</time>
      </trkpt>
      <trkpt lat="46.62564" lon="4.56916">
        <ele>272</ele>
        <time>2012-07-15T09:36:29.000Z</time>
      </trkpt>
      <trkpt lat="46.62564" lon="4.56919">
        <ele>272</ele>
        <time>2012-07-15T09:36:32.000Z</time>
      </trkpt>
      <trkpt lat="46.62564" lon="4.56922">
        <ele>272</ele>
        <time>2012-07-15T09:36:35.000Z</time>
      </trkpt>
      <trkpt lat="46.62563" lon="4.5692">
        <ele>272</ele>
        <time>2012-07-15T09:36:39.000Z</time>
      </trkpt>
      <trkpt lat="46.62562" lon="4.5692">
        <ele>273</ele>
        <time>2012-07-15T09:36:47.000Z</time>
      </trkpt>
      <trkpt lat="46.6256" lon="4.5692">
        <ele>273</ele>
        <time>2012-07-15T09:36:50.000Z</time>
      </trkpt>
      <trkpt lat="46.6256" lon="4.56919">
        <ele>273</ele>
        <time>2012-07-15T09:36:53.000Z</time>
      </trkpt>
      <trkpt lat="46.62561" lon="4.56916">
        <ele>273</ele>
        <time>2012-07-15T09:36:55.000Z</time>
      </trkpt>
      <trkpt lat="46.62563" lon="4.56914">
        <ele>272</ele>
        <time>2012-07-15T09:36:58.000Z</time>
      </trkpt>
      <trkpt lat="46.62563" lon="4.56914">
        <ele>272</ele>
        <time>2012-07-15T09:37:18.000Z</time>
      </trkpt>
      <trkpt lat="46.62564" lon="4.56916">
        <ele>272</ele>
        <time>2012-07-15T09:37:35.000Z</time>
      </trkpt>
      <trkpt lat="46.62562" lon="4.56918">
        <ele>272</ele>
        <time>2012-07-15T09:37:44.000Z</time>
      </trkpt>
      <trkpt lat="46.62558" lon="4.56923">
        <ele>273</ele>
        <time>2012-07-15T09:37:49.000Z</time>
      </trkpt>
      <trkpt lat="46.62558" lon="4.56926">
        <ele>273</ele>
        <time>2012-07-15T09:37:51.000Z</time>
      </trkpt>
      <trkpt lat="46.6256" lon="4.56926">
        <ele>273</ele>
        <time>2012-07-15T09:37:54.000Z</time>
      </trkpt>
      <trkpt lat="46.62561" lon="4.56926">
        <ele>273</ele>
        <time>2012-07-15T09:37:56.000Z</time>
      </trkpt>
      <trkpt lat="46.62562" lon="4.56924">
        <ele>274</ele>
        <time>2012-07-15T09:38:01.000Z</time>
      </trkpt>
      <trkpt lat="46.62562" lon="4.56922">
        <ele>273</ele>
        <time>2012-07-15T09:38:04.000Z</time>
      </trkpt>
      <trkpt lat="46.62562" lon="4.56921">
        <ele>273</ele>
        <time>2012-07-15T09:38:06.000Z</time>
      </trkpt>
      <trkpt lat="46.62562" lon="4.5692">
        <ele>273</ele>
        <time>2012-07-15T09:38:09.000Z</time>
      </trkpt>
      <trkpt lat="46.62562" lon="4.56918">
        <ele>273</ele>
        <time>2012-07-15T09:38:11.000Z</time>
      </trkpt>
      <trkpt lat="46.62562" lon="4.56916">
        <ele>273</ele>
        <time>2012-07-15T09:38:14.000Z</time>
      </trkpt>
      <trkpt lat="46.62563" lon="4.5691">
        <ele>272</ele>
        <time>2012-07-15T09:38:30.000Z</time>
      </trkpt>
      <trkpt lat="46.62563" lon="4.56909">
        <ele>272</ele>
        <time>2012-07-15T09:38:33.000Z</time>
      </trkpt>
      <trkpt lat="46.62563" lon="4.56909">
        <ele>272</ele>
        <time>2012-07-15T09:38:53.000Z</time>
      </trkpt>
      <trkpt lat="46.6256" lon="4.56901">
        <ele>272</ele>
        <time>2012-07-15T09:39:36.000Z</time>
      </trkpt>
      <trkpt lat="46.6256" lon="4.569">
        <ele>271</ele>
        <time>2012-07-15T09:39:39.000Z</time>
      </trkpt>
      <trkpt lat="46.62561" lon="4.56905">
        <ele>271</ele>
        <time>2012-07-15T09:39:58.000Z</time>
      </trkpt>
      <trkpt lat="46.62563" lon="4.56903">
        <ele>271</ele>
        <time>2012-07-15T09:40:03.000Z</time>
      </trkpt>
      <trkpt lat="46.62565" lon="4.56901">
        <ele>270</ele>
        <time>2012-07-15T09:40:05.000Z</time>
      </trkpt>
      <trkpt lat="46.62568" lon="4.56901">
        <ele>270</ele>
        <time>2012-07-15T09:40:08.000Z</time>
      </trkpt>
      <trkpt lat="46.62567" lon="4.56902">
        <ele>270</ele>
        <time>2012-07-15T09:40:14.000Z</time>
      </trkpt>
      <trkpt lat="46.62565" lon="4.56902">
        <ele>270</ele>
        <time>2012-07-15T09:40:16.000Z</time>
      </trkpt>
      <trkpt lat="46.6256" lon="4.56901">
        <ele>270</ele>
        <time>2012-07-15T09:40:21.000Z</time>
      </trkpt>
      <trkpt lat="46.62566" lon="4.56893">
        <ele>270</ele>
        <time>2012-07-15T09:40:24.000Z</time>
      </trkpt>
      <trkpt lat="46.62573" lon="4.56898">
        <ele>270</ele>
        <time>2012-07-15T09:40:27.000Z</time>
      </trkpt>
      <trkpt lat="46.62579" lon="4.56905">
        <ele>270</ele>
        <time>2012-07-15T09:40:30.000Z</time>
      </trkpt>
      <trkpt lat="46.62597" lon="4.56928">
        <ele>271</ele>
        <time>2012-07-15T09:40:38.000Z</time>
      </trkpt>
      <trkpt lat="46.62602" lon="4.56934">
        <ele>272</ele>
        <time>2012-07-15T09:40:40.000Z</time>
      </trkpt>
      <trkpt lat="46.62611" lon="4.5694">
        <ele>273</ele>
        <time>2012-07-15T09:40:43.000Z</time>
      </trkpt>
      <trkpt lat="46.62617" lon="4.56944">
        <ele>274</ele>
        <time>2012-07-15T09:40:45.000Z</time>
      </trkpt>
      <trkpt lat="46.62626" lon="4.56946">
        <ele>275</ele>
        <time>2012-07-15T09:40:48.000Z</time>
      </trkpt>
      <trkpt lat="46.62635" lon="4.56944">
        <ele>276</ele>
        <time>2012-07-15T09:40:51.000Z</time>
      </trkpt>
      <trkpt lat="46.6264" lon="4.56942">
        <ele>277</ele>
        <time>2012-07-15T09:40:53.000Z</time>
      </trkpt>
      <trkpt lat="46.62646" lon="4.56932">
        <ele>277</ele>
        <time>2012-07-15T09:40:56.000Z</time>
      </trkpt>
      <trkpt lat="46.62651" lon="4.56912">
        <ele>277</ele>
        <time>2012-07-15T09:40:59.000Z</time>
      </trkpt>
      <trkpt lat="46.62656" lon="4.56888">
        <ele>276</ele>
        <time>2012-07-15T09:41:02.000Z</time>
      </trkpt>
      <trkpt lat="46.62664" lon="4.56861">
        <ele>275</ele>
        <time>2012-07-15T09:41:05.000Z</time>
      </trkpt>
      <trkpt lat="46.62675" lon="4.56833">
        <ele>273</ele>
        <time>2012-07-15T09:41:08.000Z</time>
      </trkpt>
      <trkpt lat="46.62682" lon="4.56818">
        <ele>271</ele>
        <time>2012-07-15T09:41:10.000Z</time>
      </trkpt>
      <trkpt lat="46.62689" lon="4.568">
        <ele>269</ele>
        <time>2012-07-15T09:41:12.000Z</time>
      </trkpt>
      <trkpt lat="46.62699" lon="4.56773">
        <ele>267</ele>
        <time>2012-07-15T09:41:15.000Z</time>
      </trkpt>
      <trkpt lat="46.62706" lon="4.56755">
        <ele>266</ele>
        <time>2012-07-15T09:41:17.000Z</time>
      </trkpt>
      <trkpt lat="46.62732" lon="4.5671">
        <ele>264</ele>
        <time>2012-07-15T09:41:21.000Z</time>
      </trkpt>
      <trkpt lat="46.62756" lon="4.56677">
        <ele>261</ele>
        <time>2012-07-15T09:41:24.000Z</time>
      </trkpt>
      <trkpt lat="46.62781" lon="4.56648">
        <ele>259</ele>
        <time>2012-07-15T09:41:27.000Z</time>
      </trkpt>
      <trkpt lat="46.62801" lon="4.56634">
        <ele>258</ele>
        <time>2012-07-15T09:41:30.000Z</time>
      </trkpt>
      <trkpt lat="46.62806" lon="4.56621">
        <ele>257</ele>
        <time>2012-07-15T09:41:32.000Z</time>
      </trkpt>
      <trkpt lat="46.62815" lon="4.56612">
        <ele>257</ele>
        <time>2012-07-15T09:41:34.000Z</time>
      </trkpt>
      <trkpt lat="46.62823" lon="4.56607">
        <ele>258</ele>
        <time>2012-07-15T09:41:36.000Z</time>
      </trkpt>
      <trkpt lat="46.62833" lon="4.566">
        <ele>259</ele>
        <time>2012-07-15T09:41:39.000Z</time>
      </trkpt>
      <trkpt lat="46.62839" lon="4.56592">
        <ele>259</ele>
        <time>2012-07-15T09:41:42.000Z</time>
      </trkpt>
      <trkpt lat="46.62843" lon="4.56582">
        <ele>260</ele>
        <time>2012-07-15T09:41:44.000Z</time>
      </trkpt>
      <trkpt lat="46.62857" lon="4.56561">
        <ele>260</ele>
        <time>2012-07-15T09:41:50.000Z</time>
      </trkpt>
      <trkpt lat="46.62892" lon="4.56515">
        <ele>260</ele>
        <time>2012-07-15T09:42:03.000Z</time>
      </trkpt>
      <trkpt lat="46.62909" lon="4.56499">
        <ele>260</ele>
        <time>2012-07-15T09:42:08.000Z</time>
      </trkpt>
      <trkpt lat="46.62928" lon="4.56475">
        <ele>260</ele>
        <time>2012-07-15T09:42:14.000Z</time>
      </trkpt>
      <trkpt lat="46.62933" lon="4.56465">
        <ele>260</ele>
        <time>2012-07-15T09:42:16.000Z</time>
      </trkpt>
      <trkpt lat="46.62941" lon="4.56441">
        <ele>260</ele>
        <time>2012-07-15T09:42:19.000Z</time>
      </trkpt>
      <trkpt lat="46.62945" lon="4.56428">
        <ele>259</ele>
        <time>2012-07-15T09:42:21.000Z</time>
      </trkpt>
      <trkpt lat="46.62949" lon="4.56422">
        <ele>259</ele>
        <time>2012-07-15T09:42:24.000Z</time>
      </trkpt>
      <trkpt lat="46.62951" lon="4.56419">
        <ele>258</ele>
        <time>2012-07-15T09:42:26.000Z</time>
      </trkpt>
      <trkpt lat="46.62955" lon="4.56416">
        <ele>257</ele>
        <time>2012-07-15T09:42:28.000Z</time>
      </trkpt>
      <trkpt lat="46.62962" lon="4.56409">
        <ele>257</ele>
        <time>2012-07-15T09:42:31.000Z</time>
      </trkpt>
      <trkpt lat="46.62974" lon="4.56394">
        <ele>256</ele>
        <time>2012-07-15T09:42:34.000Z</time>
      </trkpt>
      <trkpt lat="46.62999" lon="4.5636">
        <ele>254</ele>
        <time>2012-07-15T09:42:40.000Z</time>
      </trkpt>
      <trkpt lat="46.63014" lon="4.56339">
        <ele>253</ele>
        <time>2012-07-15T09:42:43.000Z</time>
      </trkpt>
      <trkpt lat="46.63029" lon="4.56322">
        <ele>250</ele>
        <time>2012-07-15T09:42:46.000Z</time>
      </trkpt>
      <trkpt lat="46.63038" lon="4.56312">
        <ele>248</ele>
        <time>2012-07-15T09:42:48.000Z</time>
      </trkpt>
      <trkpt lat="46.63055" lon="4.56297">
        <ele>246</ele>
        <time>2012-07-15T09:42:51.000Z</time>
      </trkpt>
      <trkpt lat="46.6307" lon="4.56287">
        <ele>243</ele>
        <time>2012-07-15T09:42:53.000Z</time>
      </trkpt>
      <trkpt lat="46.63091" lon="4.5627">
        <ele>241</ele>
        <time>2012-07-15T09:42:56.000Z</time>
      </trkpt>
      <trkpt lat="46.63111" lon="4.56249">
        <ele>239</ele>
        <time>2012-07-15T09:42:59.000Z</time>
      </trkpt>
      <trkpt lat="46.63127" lon="4.5622">
        <ele>237</ele>
        <time>2012-07-15T09:43:02.000Z</time>
      </trkpt>
      <trkpt lat="46.63137" lon="4.56194">
        <ele>235</ele>
        <time>2012-07-15T09:43:05.000Z</time>
      </trkpt>
      <trkpt lat="46.63144" lon="4.5618">
        <ele>234</ele>
        <time>2012-07-15T09:43:07.000Z</time>
      </trkpt>
      <trkpt lat="46.63152" lon="4.56169">
        <ele>232</ele>
        <time>2012-07-15T09:43:09.000Z</time>
      </trkpt>
      <trkpt lat="46.63162" lon="4.56158">
        <ele>231</ele>
        <time>2012-07-15T09:43:12.000Z</time>
      </trkpt>
      <trkpt lat="46.63173" lon="4.56151">
        <ele>231</ele>
        <time>2012-07-15T09:43:15.000Z</time>
      </trkpt>
      <trkpt lat="46.6318" lon="4.56147">
        <ele>231</ele>
        <time>2012-07-15T09:43:17.000Z</time>
      </trkpt>
      <trkpt lat="46.63189" lon="4.56146">
        <ele>231</ele>
        <time>2012-07-15T09:43:20.000Z</time>
      </trkpt>
      <trkpt lat="46.63194" lon="4.56144">
        <ele>231</ele>
        <time>2012-07-15T09:43:23.000Z</time>
      </trkpt>
      <trkpt lat="46.63198" lon="4.56142">
        <ele>231</ele>
        <time>2012-07-15T09:43:27.000Z</time>
      </trkpt>
      <trkpt lat="46.63199" lon="4.56142">
        <ele>231</ele>
        <time>2012-07-15T09:43:30.000Z</time>
      </trkpt>
      <trkpt lat="46.632" lon="4.56142">
        <ele>231</ele>
        <time>2012-07-15T09:43:32.000Z</time>
      </trkpt>
      <trkpt lat="46.63201" lon="4.5614">
        <ele>231</ele>
        <time>2012-07-15T09:43:35.000Z</time>
      </trkpt>
      <trkpt lat="46.632" lon="4.5614">
        <ele>231</ele>
        <time>2012-07-15T09:43:42.000Z</time>
      </trkpt>
      <trkpt lat="46.63198" lon="4.56139">
        <ele>231</ele>
        <time>2012-07-15T09:43:48.000Z</time>
      </trkpt>
      <trkpt lat="46.63197" lon="4.56138">
        <ele>232</ele>
        <time>2012-07-15T09:43:52.000Z</time>
      </trkpt>
      <trkpt lat="46.63196" lon="4.56138">
        <ele>232</ele>
        <time>2012-07-15T09:43:54.000Z</time>
      </trkpt>
      <trkpt lat="46.63197" lon="4.56137">
        <ele>232</ele>
        <time>2012-07-15T09:43:58.000Z</time>
      </trkpt>
      <trkpt lat="46.63197" lon="4.56136">
        <ele>232</ele>
        <time>2012-07-15T09:44:01.000Z</time>
      </trkpt>
      <trkpt lat="46.63198" lon="4.56135">
        <ele>232</ele>
        <time>2012-07-15T09:44:04.000Z</time>
      </trkpt>
      <trkpt lat="46.63197" lon="4.56135">
        <ele>232</ele>
        <time>2012-07-15T09:44:10.000Z</time>
      </trkpt>
      <trkpt lat="46.63195" lon="4.56136">
        <ele>232</ele>
        <time>2012-07-15T09:44:13.000Z</time>
      </trkpt>
      <trkpt lat="46.63194" lon="4.56134">
        <ele>232</ele>
        <time>2012-07-15T09:44:15.000Z</time>
      </trkpt>
      <trkpt lat="46.63193" lon="4.56133">
        <ele>232</ele>
        <time>2012-07-15T09:44:17.000Z</time>
      </trkpt>
      <trkpt lat="46.63192" lon="4.56126">
        <ele>232</ele>
        <time>2012-07-15T09:44:20.000Z</time>
      </trkpt>
      <trkpt lat="46.63192" lon="4.56125">
        <ele>232</ele>
        <time>2012-07-15T09:44:23.000Z</time>
      </trkpt>
      <trkpt lat="46.63192" lon="4.56125">
        <ele>232</ele>
        <time>2012-07-15T09:44:43.000Z</time>
      </trkpt>
      <trkpt lat="46.63193" lon="4.56126">
        <ele>232</ele>
        <time>2012-07-15T09:44:53.000Z</time>
      </trkpt>
      <trkpt lat="46.63193" lon="4.56132">
        <ele>232</ele>
        <time>2012-07-15T09:44:58.000Z</time>
      </trkpt>
      <trkpt lat="46.63195" lon="4.56133">
        <ele>232</ele>
        <time>2012-07-15T09:45:04.000Z</time>
      </trkpt>
      <trkpt lat="46.63195" lon="4.5613">
        <ele>232</ele>
        <time>2012-07-15T09:45:08.000Z</time>
      </trkpt>
      <trkpt lat="46.63193" lon="4.56128">
        <ele>232</ele>
        <time>2012-07-15T09:45:10.000Z</time>
      </trkpt>
      <trkpt lat="46.63192" lon="4.56127">
        <ele>232</ele>
        <time>2012-07-15T09:45:12.000Z</time>
      </trkpt>
      <trkpt lat="46.63192" lon="4.56125">
        <ele>232</ele>
        <time>2012-07-15T09:45:15.000Z</time>
      </trkpt>
      <trkpt lat="46.63193" lon="4.56124">
        <ele>232</ele>
        <time>2012-07-15T09:45:18.000Z</time>
      </trkpt>
      <trkpt lat="46.63194" lon="4.56122">
        <ele>232</ele>
        <time>2012-07-15T09:45:21.000Z</time>
      </trkpt>
      <trkpt lat="46.63195" lon="4.56119">
        <ele>232</ele>
        <time>2012-07-15T09:45:23.000Z</time>
      </trkpt>
      <trkpt lat="46.63203" lon="4.56086">
        <ele>232</ele>
        <time>2012-07-15T09:45:33.000Z</time>
      </trkpt>
      <trkpt lat="46.63205" lon="4.5608">
        <ele>233</ele>
        <time>2012-07-15T09:45:35.000Z</time>
      </trkpt>
      <trkpt lat="46.63211" lon="4.56052">
        <ele>234</ele>
        <time>2012-07-15T09:45:43.000Z</time>
      </trkpt>
      <trkpt lat="46.63215" lon="4.5604">
        <ele>235</ele>
        <time>2012-07-15T09:45:47.000Z</time>
      </trkpt>
      <trkpt lat="46.63219" lon="4.56027">
        <ele>236</ele>
        <time>2012-07-15T09:45:52.000Z</time>
      </trkpt>
      <trkpt lat="46.63225" lon="4.56007">
        <ele>237</ele>
        <time>2012-07-15T09:46:00.000Z</time>
      </trkpt>
      <trkpt lat="46.63231" lon="4.55984">
        <ele>238</ele>
        <time>2012-07-15T09:46:09.000Z</time>
      </trkpt>
      <trkpt lat="46.63232" lon="4.55972">
        <ele>239</ele>
        <time>2012-07-15T09:46:14.000Z</time>
      </trkpt>
      <trkpt lat="46.63234" lon="4.55962">
        <ele>240</ele>
        <time>2012-07-15T09:46:19.000Z</time>
      </trkpt>
      <trkpt lat="46.63237" lon="4.55955">
        <ele>240</ele>
        <time>2012-07-15T09:46:22.000Z</time>
      </trkpt>
      <trkpt lat="46.63239" lon="4.5595">
        <ele>241</ele>
        <time>2012-07-15T09:46:24.000Z</time>
      </trkpt>
      <trkpt lat="46.63243" lon="4.55934">
        <ele>242</ele>
        <time>2012-07-15T09:46:32.000Z</time>
      </trkpt>
      <trkpt lat="46.63246" lon="4.55926">
        <ele>243</ele>
        <time>2012-07-15T09:46:36.000Z</time>
      </trkpt>
      <trkpt lat="46.6325" lon="4.55911">
        <ele>244</ele>
        <time>2012-07-15T09:46:44.000Z</time>
      </trkpt>
      <trkpt lat="46.63256" lon="4.55888">
        <ele>245</ele>
        <time>2012-07-15T09:46:55.000Z</time>
      </trkpt>
      <trkpt lat="46.63261" lon="4.5586">
        <ele>246</ele>
        <time>2012-07-15T09:47:06.000Z</time>
      </trkpt>
      <trkpt lat="46.63263" lon="4.55855">
        <ele>246</ele>
        <time>2012-07-15T09:47:09.000Z</time>
      </trkpt>
      <trkpt lat="46.63266" lon="4.55841">
        <ele>246</ele>
        <time>2012-07-15T09:47:15.000Z</time>
      </trkpt>
      <trkpt lat="46.63266" lon="4.55837">
        <ele>247</ele>
        <time>2012-07-15T09:47:17.000Z</time>
      </trkpt>
      <trkpt lat="46.63281" lon="4.5577">
        <ele>247</ele>
        <time>2012-07-15T09:47:39.000Z</time>
      </trkpt>
      <trkpt lat="46.63305" lon="4.557">
        <ele>247</ele>
        <time>2012-07-15T09:47:54.000Z</time>
      </trkpt>
      <trkpt lat="46.6331" lon="4.55693">
        <ele>247</ele>
        <time>2012-07-15T09:47:56.000Z</time>
      </trkpt>
      <trkpt lat="46.63317" lon="4.55682">
        <ele>246</ele>
        <time>2012-07-15T09:47:59.000Z</time>
      </trkpt>
      <trkpt lat="46.63321" lon="4.55675">
        <ele>246</ele>
        <time>2012-07-15T09:48:01.000Z</time>
      </trkpt>
      <trkpt lat="46.63357" lon="4.55618">
        <ele>246</ele>
        <time>2012-07-15T09:48:14.000Z</time>
      </trkpt>
      <trkpt lat="46.63364" lon="4.5561">
        <ele>245</ele>
        <time>2012-07-15T09:48:16.000Z</time>
      </trkpt>
      <trkpt lat="46.63373" lon="4.55595">
        <ele>245</ele>
        <time>2012-07-15T09:48:19.000Z</time>
      </trkpt>
      <trkpt lat="46.63406" lon="4.55547">
        <ele>245</ele>
        <time>2012-07-15T09:48:31.000Z</time>
      </trkpt>
      <trkpt lat="46.63406" lon="4.55536">
        <ele>245</ele>
        <time>2012-07-15T09:48:34.000Z</time>
      </trkpt>
      <trkpt lat="46.63401" lon="4.55531">
        <ele>245</ele>
        <time>2012-07-15T09:48:36.000Z</time>
      </trkpt>
      <trkpt lat="46.63385" lon="4.55531">
        <ele>246</ele>
        <time>2012-07-15T09:48:39.000Z</time>
      </trkpt>
      <trkpt lat="46.63327" lon="4.55523">
        <ele>246</ele>
        <time>2012-07-15T09:48:50.000Z</time>
      </trkpt>
      <trkpt lat="46.63298" lon="4.55518">
        <ele>245</ele>
        <time>2012-07-15T09:48:54.000Z</time>
      </trkpt>
      <trkpt lat="46.63259" lon="4.55515">
        <ele>244</ele>
        <time>2012-07-15T09:48:59.000Z</time>
      </trkpt>
      <trkpt lat="46.63242" lon="4.55513">
        <ele>243</ele>
        <time>2012-07-15T09:49:01.000Z</time>
      </trkpt>
      <trkpt lat="46.63225" lon="4.55511">
        <ele>242</ele>
        <time>2012-07-15T09:49:03.000Z</time>
      </trkpt>
      <trkpt lat="46.632" lon="4.55506">
        <ele>241</ele>
        <time>2012-07-15T09:49:06.000Z</time>
      </trkpt>
      <trkpt lat="46.63184" lon="4.55504">
        <ele>240</ele>
        <time>2012-07-15T09:49:08.000Z</time>
      </trkpt>
      <trkpt lat="46.63161" lon="4.55501">
        <ele>238</ele>
        <time>2012-07-15T09:49:11.000Z</time>
      </trkpt>
      <trkpt lat="46.63146" lon="4.555">
        <ele>237</ele>
        <time>2012-07-15T09:49:13.000Z</time>
      </trkpt>
      <trkpt lat="46.63109" lon="4.55493">
        <ele>236</ele>
        <time>2012-07-15T09:49:19.000Z</time>
      </trkpt>
      <trkpt lat="46.6306" lon="4.55478">
        <ele>236</ele>
        <time>2012-07-15T09:49:31.000Z</time>
      </trkpt>
      <trkpt lat="46.63057" lon="4.5547">
        <ele>237</ele>
        <time>2012-07-15T09:49:34.000Z</time>
      </trkpt>
      <trkpt lat="46.63058" lon="4.5547">
        <ele>237</ele>
        <time>2012-07-15T09:49:56.000Z</time>
      </trkpt>
      <trkpt lat="46.6306" lon="4.5547">
        <ele>237</ele>
        <time>2012-07-15T09:50:00.000Z</time>
      </trkpt>
      <trkpt lat="46.6306" lon="4.55469">
        <ele>237</ele>
        <time>2012-07-15T09:50:07.000Z</time>
      </trkpt>
      <trkpt lat="46.63061" lon="4.55469">
        <ele>237</ele>
        <time>2012-07-15T09:50:09.000Z</time>
      </trkpt>
      <trkpt lat="46.63062" lon="4.5547">
        <ele>237</ele>
        <time>2012-07-15T09:50:12.000Z</time>
      </trkpt>
      <trkpt lat="46.63063" lon="4.5547">
        <ele>237</ele>
        <time>2012-07-15T09:50:15.000Z</time>
      </trkpt>
      <trkpt lat="46.63064" lon="4.5547">
        <ele>237</ele>
        <time>2012-07-15T09:50:17.000Z</time>
      </trkpt>
      <trkpt lat="46.63063" lon="4.55468">
        <ele>237</ele>
        <time>2012-07-15T09:50:28.000Z</time>
      </trkpt>
      <trkpt lat="46.63063" lon="4.55457">
        <ele>237</ele>
        <time>2012-07-15T09:50:33.000Z</time>
      </trkpt>
      <trkpt lat="46.63066" lon="4.55449">
        <ele>237</ele>
        <time>2012-07-15T09:50:35.000Z</time>
      </trkpt>
      <trkpt lat="46.63072" lon="4.55437">
        <ele>237</ele>
        <time>2012-07-15T09:50:37.000Z</time>
      </trkpt>
      <trkpt lat="46.63088" lon="4.55409">
        <ele>238</ele>
        <time>2012-07-15T09:50:42.000Z</time>
      </trkpt>
      <trkpt lat="46.63095" lon="4.55389">
        <ele>238</ele>
        <time>2012-07-15T09:50:45.000Z</time>
      </trkpt>
      <trkpt lat="46.63096" lon="4.55356">
        <ele>238</ele>
        <time>2012-07-15T09:50:48.000Z</time>
      </trkpt>
      <trkpt lat="46.63099" lon="4.55338">
        <ele>238</ele>
        <time>2012-07-15T09:50:50.000Z</time>
      </trkpt>
      <trkpt lat="46.63096" lon="4.55325">
        <ele>238</ele>
        <time>2012-07-15T09:50:52.000Z</time>
      </trkpt>
      <trkpt lat="46.63087" lon="4.55306">
        <ele>239</ele>
        <time>2012-07-15T09:50:55.000Z</time>
      </trkpt>
      <trkpt lat="46.63082" lon="4.55289">
        <ele>239</ele>
        <time>2012-07-15T09:50:58.000Z</time>
      </trkpt>
      <trkpt lat="46.63073" lon="4.55261">
        <ele>240</ele>
        <time>2012-07-15T09:51:02.000Z</time>
      </trkpt>
      <trkpt lat="46.63065" lon="4.55243">
        <ele>241</ele>
        <time>2012-07-15T09:51:05.000Z</time>
      </trkpt>
      <trkpt lat="46.63062" lon="4.55232">
        <ele>241</ele>
        <time>2012-07-15T09:51:07.000Z</time>
      </trkpt>
      <trkpt lat="46.6305" lon="4.55187">
        <ele>242</ele>
        <time>2012-07-15T09:51:16.000Z</time>
      </trkpt>
      <trkpt lat="46.63043" lon="4.55173">
        <ele>242</ele>
        <time>2012-07-15T09:51:21.000Z</time>
      </trkpt>
      <trkpt lat="46.63021" lon="4.55122">
        <ele>243</ele>
        <time>2012-07-15T09:51:31.000Z</time>
      </trkpt>
      <trkpt lat="46.63009" lon="4.55091">
        <ele>244</ele>
        <time>2012-07-15T09:51:38.000Z</time>
      </trkpt>
      <trkpt lat="46.63006" lon="4.55077">
        <ele>244</ele>
        <time>2012-07-15T09:51:41.000Z</time>
      </trkpt>
      <trkpt lat="46.63004" lon="4.55067">
        <ele>245</ele>
        <time>2012-07-15T09:51:43.000Z</time>
      </trkpt>
      <trkpt lat="46.63001" lon="4.55057">
        <ele>245</ele>
        <time>2012-07-15T09:51:45.000Z</time>
      </trkpt>
      <trkpt lat="46.62994" lon="4.55043">
        <ele>245</ele>
        <time>2012-07-15T09:51:48.000Z</time>
      </trkpt>
      <trkpt lat="46.62987" lon="4.55028">
        <ele>246</ele>
        <time>2012-07-15T09:51:51.000Z</time>
      </trkpt>
      <trkpt lat="46.62984" lon="4.55019">
        <ele>246</ele>
        <time>2012-07-15T09:51:53.000Z</time>
      </trkpt>
      <trkpt lat="46.62978" lon="4.55002">
        <ele>247</ele>
        <time>2012-07-15T09:51:57.000Z</time>
      </trkpt>
      <trkpt lat="46.62966" lon="4.54968">
        <ele>248</ele>
        <time>2012-07-15T09:52:04.000Z</time>
      </trkpt>
      <trkpt lat="46.62956" lon="4.54949">
        <ele>248</ele>
        <time>2012-07-15T09:52:09.000Z</time>
      </trkpt>
      <trkpt lat="46.62953" lon="4.5494">
        <ele>249</ele>
        <time>2012-07-15T09:52:11.000Z</time>
      </trkpt>
      <trkpt lat="46.62941" lon="4.54905">
        <ele>250</ele>
        <time>2012-07-15T09:52:17.000Z</time>
      </trkpt>
      <trkpt lat="46.62929" lon="4.5488">
        <ele>251</ele>
        <time>2012-07-15T09:52:22.000Z</time>
      </trkpt>
      <trkpt lat="46.62917" lon="4.54855">
        <ele>252</ele>
        <time>2012-07-15T09:52:27.000Z</time>
      </trkpt>
      <trkpt lat="46.62891" lon="4.54798">
        <ele>252</ele>
        <time>2012-07-15T09:52:40.000Z</time>
      </trkpt>
      <trkpt lat="46.62866" lon="4.54736">
        <ele>252</ele>
        <time>2012-07-15T09:52:52.000Z</time>
      </trkpt>
      <trkpt lat="46.62856" lon="4.5471">
        <ele>253</ele>
        <time>2012-07-15T09:52:58.000Z</time>
      </trkpt>
      <trkpt lat="46.62842" lon="4.54679">
        <ele>254</ele>
        <time>2012-07-15T09:53:05.000Z</time>
      </trkpt>
      <trkpt lat="46.62826" lon="4.54642">
        <ele>255</ele>
        <time>2012-07-15T09:53:14.000Z</time>
      </trkpt>
      <trkpt lat="46.62812" lon="4.54595">
        <ele>255</ele>
        <time>2012-07-15T09:53:23.000Z</time>
      </trkpt>
      <trkpt lat="46.62809" lon="4.54585">
        <ele>256</ele>
        <time>2012-07-15T09:53:25.000Z</time>
      </trkpt>
      <trkpt lat="46.62788" lon="4.54518">
        <ele>257</ele>
        <time>2012-07-15T09:53:37.000Z</time>
      </trkpt>
      <trkpt lat="46.62777" lon="4.54488">
        <ele>258</ele>
        <time>2012-07-15T09:53:43.000Z</time>
      </trkpt>
      <trkpt lat="46.62754" lon="4.54449">
        <ele>258</ele>
        <time>2012-07-15T09:53:52.000Z</time>
      </trkpt>
      <trkpt lat="46.62735" lon="4.54474">
        <ele>258</ele>
        <time>2012-07-15T09:53:56.000Z</time>
      </trkpt>
      <trkpt lat="46.62728" lon="4.54482">
        <ele>259</ele>
        <time>2012-07-15T09:53:58.000Z</time>
      </trkpt>
      <trkpt lat="46.6269" lon="4.54518">
        <ele>258</ele>
        <time>2012-07-15T09:54:08.000Z</time>
      </trkpt>
      <trkpt lat="46.62651" lon="4.54557">
        <ele>258</ele>
        <time>2012-07-15T09:54:18.000Z</time>
      </trkpt>
      <trkpt lat="46.62602" lon="4.54601">
        <ele>258</ele>
        <time>2012-07-15T09:54:29.000Z</time>
      </trkpt>
      <trkpt lat="46.62561" lon="4.54634">
        <ele>258</ele>
        <time>2012-07-15T09:54:38.000Z</time>
      </trkpt>
      <trkpt lat="46.62546" lon="4.54642">
        <ele>258</ele>
        <time>2012-07-15T09:54:41.000Z</time>
      </trkpt>
      <trkpt lat="46.62534" lon="4.54645">
        <ele>258</ele>
        <time>2012-07-15T09:54:43.000Z</time>
      </trkpt>
      <trkpt lat="46.62517" lon="4.54653">
        <ele>258</ele>
        <time>2012-07-15T09:54:46.000Z</time>
      </trkpt>
      <trkpt lat="46.62507" lon="4.5466">
        <ele>258</ele>
        <time>2012-07-15T09:54:48.000Z</time>
      </trkpt>
      <trkpt lat="46.62467" lon="4.54679">
        <ele>258</ele>
        <time>2012-07-15T09:54:56.000Z</time>
      </trkpt>
      <trkpt lat="46.62439" lon="4.54688">
        <ele>257</ele>
        <time>2012-07-15T09:55:01.000Z</time>
      </trkpt>
      <trkpt lat="46.62428" lon="4.5469">
        <ele>257</ele>
        <time>2012-07-15T09:55:03.000Z</time>
      </trkpt>
      <trkpt lat="46.62376" lon="4.54703">
        <ele>256</ele>
        <time>2012-07-15T09:55:11.000Z</time>
      </trkpt>
      <trkpt lat="46.62341" lon="4.54716">
        <ele>255</ele>
        <time>2012-07-15T09:55:16.000Z</time>
      </trkpt>
      <trkpt lat="46.62325" lon="4.54726">
        <ele>254</ele>
        <time>2012-07-15T09:55:18.000Z</time>
      </trkpt>
      <trkpt lat="46.62302" lon="4.54741">
        <ele>253</ele>
        <time>2012-07-15T09:55:21.000Z</time>
      </trkpt>
      <trkpt lat="46.62277" lon="4.54762">
        <ele>252</ele>
        <time>2012-07-15T09:55:24.000Z</time>
      </trkpt>
      <trkpt lat="46.62262" lon="4.54771">
        <ele>251</ele>
        <time>2012-07-15T09:55:26.000Z</time>
      </trkpt>
      <trkpt lat="46.62244" lon="4.54782">
        <ele>249</ele>
        <time>2012-07-15T09:55:28.000Z</time>
      </trkpt>
      <trkpt lat="46.62216" lon="4.54798">
        <ele>248</ele>
        <time>2012-07-15T09:55:31.000Z</time>
      </trkpt>
      <trkpt lat="46.62191" lon="4.54811">
        <ele>247</ele>
        <time>2012-07-15T09:55:34.000Z</time>
      </trkpt>
      <trkpt lat="46.62169" lon="4.54827">
        <ele>246</ele>
        <time>2012-07-15T09:55:37.000Z</time>
      </trkpt>
      <trkpt lat="46.62144" lon="4.54841">
        <ele>245</ele>
        <time>2012-07-15T09:55:40.000Z</time>
      </trkpt>
      <trkpt lat="46.6213" lon="4.54846">
        <ele>245</ele>
        <time>2012-07-15T09:55:42.000Z</time>
      </trkpt>
      <trkpt lat="46.62109" lon="4.54853">
        <ele>244</ele>
        <time>2012-07-15T09:55:45.000Z</time>
      </trkpt>
      <trkpt lat="46.62075" lon="4.54856">
        <ele>245</ele>
        <time>2012-07-15T09:55:50.000Z</time>
      </trkpt>
      <trkpt lat="46.62063" lon="4.54854">
        <ele>245</ele>
        <time>2012-07-15T09:55:52.000Z</time>
      </trkpt>
      <trkpt lat="46.62047" lon="4.5485">
        <ele>245</ele>
        <time>2012-07-15T09:55:55.000Z</time>
      </trkpt>
      <trkpt lat="46.62033" lon="4.54842">
        <ele>246</ele>
        <time>2012-07-15T09:55:58.000Z</time>
      </trkpt>
      <trkpt lat="46.62024" lon="4.54833">
        <ele>247</ele>
        <time>2012-07-15T09:56:00.000Z</time>
      </trkpt>
      <trkpt lat="46.62018" lon="4.54814">
        <ele>248</ele>
        <time>2012-07-15T09:56:03.000Z</time>
      </trkpt>
      <trkpt lat="46.62014" lon="4.54793">
        <ele>249</ele>
        <time>2012-07-15T09:56:06.000Z</time>
      </trkpt>
      <trkpt lat="46.62011" lon="4.54773">
        <ele>250</ele>
        <time>2012-07-15T09:56:09.000Z</time>
      </trkpt>
      <trkpt lat="46.62011" lon="4.54752">
        <ele>251</ele>
        <time>2012-07-15T09:56:14.000Z</time>
      </trkpt>
      <trkpt lat="46.62011" lon="4.54745">
        <ele>251</ele>
        <time>2012-07-15T09:56:16.000Z</time>
      </trkpt>
      <trkpt lat="46.62011" lon="4.54737">
        <ele>252</ele>
        <time>2012-07-15T09:56:19.000Z</time>
      </trkpt>
      <trkpt lat="46.62012" lon="4.54733">
        <ele>252</ele>
        <time>2012-07-15T09:56:22.000Z</time>
      </trkpt>
      <trkpt lat="46.62009" lon="4.54733">
        <ele>252</ele>
        <time>2012-07-15T09:56:24.000Z</time>
      </trkpt>
      <trkpt lat="46.62004" lon="4.54736">
        <ele>252</ele>
        <time>2012-07-15T09:56:27.000Z</time>
      </trkpt>
      <trkpt lat="46.61999" lon="4.54744">
        <ele>253</ele>
        <time>2012-07-15T09:56:30.000Z</time>
      </trkpt>
      <trkpt lat="46.61996" lon="4.5475">
        <ele>253</ele>
        <time>2012-07-15T09:56:32.000Z</time>
      </trkpt>
      <trkpt lat="46.61987" lon="4.54751">
        <ele>253</ele>
        <time>2012-07-15T09:56:35.000Z</time>
      </trkpt>
      <trkpt lat="46.61977" lon="4.54746">
        <ele>253</ele>
        <time>2012-07-15T09:56:38.000Z</time>
      </trkpt>
      <trkpt lat="46.61969" lon="4.54744">
        <ele>253</ele>
        <time>2012-07-15T09:56:40.000Z</time>
      </trkpt>
      <trkpt lat="46.61956" lon="4.54741">
        <ele>253</ele>
        <time>2012-07-15T09:56:43.000Z</time>
      </trkpt>
      <trkpt lat="46.61913" lon="4.54738">
        <ele>252</ele>
        <time>2012-07-15T09:56:53.000Z</time>
      </trkpt>
      <trkpt lat="46.61903" lon="4.5474">
        <ele>252</ele>
        <time>2012-07-15T09:56:56.000Z</time>
      </trkpt>
      <trkpt lat="46.61895" lon="4.5474">
        <ele>252</ele>
        <time>2012-07-15T09:56:58.000Z</time>
      </trkpt>
      <trkpt lat="46.61874" lon="4.54743">
        <ele>252</ele>
        <time>2012-07-15T09:57:03.000Z</time>
      </trkpt>
      <trkpt lat="46.61861" lon="4.54745">
        <ele>251</ele>
        <time>2012-07-15T09:57:06.000Z</time>
      </trkpt>
      <trkpt lat="46.61813" lon="4.54751">
        <ele>250</ele>
        <time>2012-07-15T09:57:16.000Z</time>
      </trkpt>
      <trkpt lat="46.61757" lon="4.54756">
        <ele>250</ele>
        <time>2012-07-15T09:57:27.000Z</time>
      </trkpt>
      <trkpt lat="46.61708" lon="4.5476">
        <ele>251</ele>
        <time>2012-07-15T09:57:42.000Z</time>
      </trkpt>
      <trkpt lat="46.61697" lon="4.54759">
        <ele>251</ele>
        <time>2012-07-15T09:57:45.000Z</time>
      </trkpt>
      <trkpt lat="46.61691" lon="4.54756">
        <ele>251</ele>
        <time>2012-07-15T09:57:47.000Z</time>
      </trkpt>
      <trkpt lat="46.61667" lon="4.54748">
        <ele>252</ele>
        <time>2012-07-15T09:57:54.000Z</time>
      </trkpt>
      <trkpt lat="46.6166" lon="4.54747">
        <ele>252</ele>
        <time>2012-07-15T09:57:56.000Z</time>
      </trkpt>
      <trkpt lat="46.61646" lon="4.5474">
        <ele>252</ele>
        <time>2012-07-15T09:57:59.000Z</time>
      </trkpt>
      <trkpt lat="46.61633" lon="4.54736">
        <ele>252</ele>
        <time>2012-07-15T09:58:02.000Z</time>
      </trkpt>
      <trkpt lat="46.6161" lon="4.54728">
        <ele>251</ele>
        <time>2012-07-15T09:58:07.000Z</time>
      </trkpt>
      <trkpt lat="46.61576" lon="4.5472">
        <ele>250</ele>
        <time>2012-07-15T09:58:13.000Z</time>
      </trkpt>
      <trkpt lat="46.61539" lon="4.54706">
        <ele>250</ele>
        <time>2012-07-15T09:58:21.000Z</time>
      </trkpt>
      <trkpt lat="46.61528" lon="4.547">
        <ele>249</ele>
        <time>2012-07-15T09:58:24.000Z</time>
      </trkpt>
      <trkpt lat="46.61515" lon="4.54696">
        <ele>249</ele>
        <time>2012-07-15T09:58:27.000Z</time>
      </trkpt>
      <trkpt lat="46.61496" lon="4.54686">
        <ele>249</ele>
        <time>2012-07-15T09:58:32.000Z</time>
      </trkpt>
      <trkpt lat="46.61485" lon="4.54678">
        <ele>249</ele>
        <time>2012-07-15T09:58:35.000Z</time>
      </trkpt>
      <trkpt lat="46.61456" lon="4.54663">
        <ele>249</ele>
        <time>2012-07-15T09:58:43.000Z</time>
      </trkpt>
      <trkpt lat="46.61438" lon="4.54651">
        <ele>250</ele>
        <time>2012-07-15T09:58:48.000Z</time>
      </trkpt>
      <trkpt lat="46.61429" lon="4.54641">
        <ele>250</ele>
        <time>2012-07-15T09:58:51.000Z</time>
      </trkpt>
      <trkpt lat="46.6141" lon="4.54621">
        <ele>251</ele>
        <time>2012-07-15T09:58:58.000Z</time>
      </trkpt>
      <trkpt lat="46.61391" lon="4.54603">
        <ele>252</ele>
        <time>2012-07-15T09:59:06.000Z</time>
      </trkpt>
      <trkpt lat="46.61378" lon="4.54592">
        <ele>253</ele>
        <time>2012-07-15T09:59:13.000Z</time>
      </trkpt>
      <trkpt lat="46.61358" lon="4.54578">
        <ele>254</ele>
        <time>2012-07-15T09:59:22.000Z</time>
      </trkpt>
      <trkpt lat="46.6134" lon="4.54566">
        <ele>255</ele>
        <time>2012-07-15T09:59:32.000Z</time>
      </trkpt>
      <trkpt lat="46.6133" lon="4.54555">
        <ele>255</ele>
        <time>2012-07-15T09:59:40.000Z</time>
      </trkpt>
      <trkpt lat="46.61315" lon="4.54545">
        <ele>255</ele>
        <time>2012-07-15T09:59:46.000Z</time>
      </trkpt>
      <trkpt lat="46.61309" lon="4.54542">
        <ele>255</ele>
        <time>2012-07-15T09:59:48.000Z</time>
      </trkpt>
      <trkpt lat="46.61299" lon="4.54539">
        <ele>254</ele>
        <time>2012-07-15T09:59:51.000Z</time>
      </trkpt>
      <trkpt lat="46.61263" lon="4.54529">
        <ele>253</ele>
        <time>2012-07-15T09:59:58.000Z</time>
      </trkpt>
      <trkpt lat="46.6125" lon="4.54526">
        <ele>252</ele>
        <time>2012-07-15T10:00:00.000Z</time>
      </trkpt>
      <trkpt lat="46.61214" lon="4.54516">
        <ele>251</ele>
        <time>2012-07-15T10:00:06.000Z</time>
      </trkpt>
      <trkpt lat="46.61203" lon="4.54513">
        <ele>250</ele>
        <time>2012-07-15T10:00:08.000Z</time>
      </trkpt>
      <trkpt lat="46.61169" lon="4.54503">
        <ele>249</ele>
        <time>2012-07-15T10:00:15.000Z</time>
      </trkpt>
      <trkpt lat="46.61138" lon="4.54496">
        <ele>250</ele>
        <time>2012-07-15T10:00:23.000Z</time>
      </trkpt>
      <trkpt lat="46.61105" lon="4.54486">
        <ele>251</ele>
        <time>2012-07-15T10:00:31.000Z</time>
      </trkpt>
      <trkpt lat="46.61097" lon="4.54482">
        <ele>252</ele>
        <time>2012-07-15T10:00:33.000Z</time>
      </trkpt>
      <trkpt lat="46.61084" lon="4.54479">
        <ele>252</ele>
        <time>2012-07-15T10:00:36.000Z</time>
      </trkpt>
      <trkpt lat="46.61072" lon="4.54477">
        <ele>253</ele>
        <time>2012-07-15T10:00:39.000Z</time>
      </trkpt>
      <trkpt lat="46.61065" lon="4.54478">
        <ele>253</ele>
        <time>2012-07-15T10:00:41.000Z</time>
      </trkpt>
      <trkpt lat="46.61059" lon="4.54483">
        <ele>253</ele>
        <time>2012-07-15T10:00:43.000Z</time>
      </trkpt>
      <trkpt lat="46.61057" lon="4.54494">
        <ele>253</ele>
        <time>2012-07-15T10:00:45.000Z</time>
      </trkpt>
      <trkpt lat="46.61053" lon="4.54552">
        <ele>252</ele>
        <time>2012-07-15T10:00:50.000Z</time>
      </trkpt>
      <trkpt lat="46.6105" lon="4.54572">
        <ele>251</ele>
        <time>2012-07-15T10:00:52.000Z</time>
      </trkpt>
      <trkpt lat="46.61042" lon="4.54612">
        <ele>250</ele>
        <time>2012-07-15T10:00:57.000Z</time>
      </trkpt>
      <trkpt lat="46.61027" lon="4.54625">
        <ele>249</ele>
        <time>2012-07-15T10:01:00.000Z</time>
      </trkpt>
      <trkpt lat="46.61014" lon="4.54636">
        <ele>248</ele>
        <time>2012-07-15T10:01:03.000Z</time>
      </trkpt>
      <trkpt lat="46.61" lon="4.54641">
        <ele>248</ele>
        <time>2012-07-15T10:01:05.000Z</time>
      </trkpt>
      <trkpt lat="46.60991" lon="4.54652">
        <ele>248</ele>
        <time>2012-07-15T10:01:08.000Z</time>
      </trkpt>
      <trkpt lat="46.60971" lon="4.54676">
        <ele>247</ele>
        <time>2012-07-15T10:01:13.000Z</time>
      </trkpt>
      <trkpt lat="46.60945" lon="4.54698">
        <ele>247</ele>
        <time>2012-07-15T10:01:18.000Z</time>
      </trkpt>
      <trkpt lat="46.60938" lon="4.54705">
        <ele>246</ele>
        <time>2012-07-15T10:01:20.000Z</time>
      </trkpt>
      <trkpt lat="46.60929" lon="4.54716">
        <ele>246</ele>
        <time>2012-07-15T10:01:23.000Z</time>
      </trkpt>
      <trkpt lat="46.60915" lon="4.54742">
        <ele>245</ele>
        <time>2012-07-15T10:01:29.000Z</time>
      </trkpt>
      <trkpt lat="46.60898" lon="4.54768">
        <ele>245</ele>
        <time>2012-07-15T10:01:35.000Z</time>
      </trkpt>
      <trkpt lat="46.60892" lon="4.54782">
        <ele>245</ele>
        <time>2012-07-15T10:01:37.000Z</time>
      </trkpt>
      <trkpt lat="46.60884" lon="4.54798">
        <ele>244</ele>
        <time>2012-07-15T10:01:40.000Z</time>
      </trkpt>
      <trkpt lat="46.60878" lon="4.54808">
        <ele>245</ele>
        <time>2012-07-15T10:01:42.000Z</time>
      </trkpt>
      <trkpt lat="46.60859" lon="4.54828">
        <ele>245</ele>
        <time>2012-07-15T10:01:48.000Z</time>
      </trkpt>
      <trkpt lat="46.60819" lon="4.54886">
        <ele>245</ele>
        <time>2012-07-15T10:02:01.000Z</time>
      </trkpt>
      <trkpt lat="46.6078" lon="4.5494">
        <ele>245</ele>
        <time>2012-07-15T10:02:13.000Z</time>
      </trkpt>
      <trkpt lat="46.60755" lon="4.54976">
        <ele>246</ele>
        <time>2012-07-15T10:02:21.000Z</time>
      </trkpt>
      <trkpt lat="46.60717" lon="4.55029">
        <ele>246</ele>
        <time>2012-07-15T10:02:33.000Z</time>
      </trkpt>
      <trkpt lat="46.60711" lon="4.55038">
        <ele>247</ele>
        <time>2012-07-15T10:02:35.000Z</time>
      </trkpt>
      <trkpt lat="46.60696" lon="4.55083">
        <ele>247</ele>
        <time>2012-07-15T10:02:46.000Z</time>
      </trkpt>
      <trkpt lat="46.60702" lon="4.55094">
        <ele>246</ele>
        <time>2012-07-15T10:02:48.000Z</time>
      </trkpt>
      <trkpt lat="46.60725" lon="4.55153">
        <ele>245</ele>
        <time>2012-07-15T10:02:58.000Z</time>
      </trkpt>
      <trkpt lat="46.60726" lon="4.55167">
        <ele>245</ele>
        <time>2012-07-15T10:03:01.000Z</time>
      </trkpt>
      <trkpt lat="46.60728" lon="4.55178">
        <ele>245</ele>
        <time>2012-07-15T10:03:03.000Z</time>
      </trkpt>
      <trkpt lat="46.60745" lon="4.55252">
        <ele>245</ele>
        <time>2012-07-15T10:03:14.000Z</time>
      </trkpt>
      <trkpt lat="46.60758" lon="4.55291">
        <ele>244</ele>
        <time>2012-07-15T10:03:21.000Z</time>
      </trkpt>
      <trkpt lat="46.6076" lon="4.55317">
        <ele>243</ele>
        <time>2012-07-15T10:03:28.000Z</time>
      </trkpt>
      <trkpt lat="46.60754" lon="4.55319">
        <ele>243</ele>
        <time>2012-07-15T10:03:31.000Z</time>
      </trkpt>
      <trkpt lat="46.6075" lon="4.55319">
        <ele>243</ele>
        <time>2012-07-15T10:03:33.000Z</time>
      </trkpt>
      <trkpt lat="46.60739" lon="4.5531">
        <ele>243</ele>
        <time>2012-07-15T10:03:36.000Z</time>
      </trkpt>
      <trkpt lat="46.60689" lon="4.55276">
        <ele>243</ele>
        <time>2012-07-15T10:03:47.000Z</time>
      </trkpt>
      <trkpt lat="46.6068" lon="4.55265">
        <ele>243</ele>
        <time>2012-07-15T10:03:50.000Z</time>
      </trkpt>
      <trkpt lat="46.6067" lon="4.5526">
        <ele>243</ele>
        <time>2012-07-15T10:03:52.000Z</time>
      </trkpt>
      <trkpt lat="46.60659" lon="4.55266">
        <ele>243</ele>
        <time>2012-07-15T10:03:55.000Z</time>
      </trkpt>
      <trkpt lat="46.60654" lon="4.5529">
        <ele>243</ele>
        <time>2012-07-15T10:03:58.000Z</time>
      </trkpt>
      <trkpt lat="46.60651" lon="4.55305">
        <ele>242</ele>
        <time>2012-07-15T10:04:00.000Z</time>
      </trkpt>
      <trkpt lat="46.60653" lon="4.55327">
        <ele>242</ele>
        <time>2012-07-15T10:04:03.000Z</time>
      </trkpt>
      <trkpt lat="46.60656" lon="4.55364">
        <ele>241</ele>
        <time>2012-07-15T10:04:07.000Z</time>
      </trkpt>
      <trkpt lat="46.6066" lon="4.55415">
        <ele>240</ele>
        <time>2012-07-15T10:04:13.000Z</time>
      </trkpt>
      <trkpt lat="46.60658" lon="4.55429">
        <ele>240</ele>
        <time>2012-07-15T10:04:15.000Z</time>
      </trkpt>
      <trkpt lat="46.6065" lon="4.55453">
        <ele>239</ele>
        <time>2012-07-15T10:04:18.000Z</time>
      </trkpt>
      <trkpt lat="46.60649" lon="4.55472">
        <ele>238</ele>
        <time>2012-07-15T10:04:21.000Z</time>
      </trkpt>
      <trkpt lat="46.60646" lon="4.55515">
        <ele>237</ele>
        <time>2012-07-15T10:04:27.000Z</time>
      </trkpt>
      <trkpt lat="46.60646" lon="4.55533">
        <ele>236</ele>
        <time>2012-07-15T10:04:30.000Z</time>
      </trkpt>
      <trkpt lat="46.60645" lon="4.5557">
        <ele>235</ele>
        <time>2012-07-15T10:04:36.000Z</time>
      </trkpt>
      <trkpt lat="46.60644" lon="4.5558">
        <ele>234</ele>
        <time>2012-07-15T10:04:38.000Z</time>
      </trkpt>
      <trkpt lat="46.60638" lon="4.55594">
        <ele>234</ele>
        <time>2012-07-15T10:04:43.000Z</time>
      </trkpt>
      <trkpt lat="46.60632" lon="4.55595">
        <ele>233</ele>
        <time>2012-07-15T10:04:45.000Z</time>
      </trkpt>
      <trkpt lat="46.60627" lon="4.55596">
        <ele>233</ele>
        <time>2012-07-15T10:04:47.000Z</time>
      </trkpt>
      <trkpt lat="46.60612" lon="4.55602">
        <ele>233</ele>
        <time>2012-07-15T10:04:53.000Z</time>
      </trkpt>
      <trkpt lat="46.6061" lon="4.55608">
        <ele>233</ele>
        <time>2012-07-15T10:04:55.000Z</time>
      </trkpt>
      <trkpt lat="46.60609" lon="4.55618">
        <ele>233</ele>
        <time>2012-07-15T10:04:58.000Z</time>
      </trkpt>
      <trkpt lat="46.60612" lon="4.55637">
        <ele>233</ele>
        <time>2012-07-15T10:05:03.000Z</time>
      </trkpt>
      <trkpt lat="46.60618" lon="4.55648">
        <ele>233</ele>
        <time>2012-07-15T10:05:06.000Z</time>
      </trkpt>
      <trkpt lat="46.60624" lon="4.55653">
        <ele>232</ele>
        <time>2012-07-15T10:05:08.000Z</time>
      </trkpt>
      <trkpt lat="46.60636" lon="4.55658">
        <ele>232</ele>
        <time>2012-07-15T10:05:11.000Z</time>
      </trkpt>
      <trkpt lat="46.60655" lon="4.55674">
        <ele>231</ele>
        <time>2012-07-15T10:05:19.000Z</time>
      </trkpt>
      <trkpt lat="46.60654" lon="4.5569">
        <ele>231</ele>
        <time>2012-07-15T10:05:22.000Z</time>
      </trkpt>
      <trkpt lat="46.60652" lon="4.55726">
        <ele>230</ele>
        <time>2012-07-15T10:05:29.000Z</time>
      </trkpt>
      <trkpt lat="46.60652" lon="4.55762">
        <ele>229</ele>
        <time>2012-07-15T10:05:37.000Z</time>
      </trkpt>
      <trkpt lat="46.60648" lon="4.55793">
        <ele>229</ele>
        <time>2012-07-15T10:05:43.000Z</time>
      </trkpt>
      <trkpt lat="46.60641" lon="4.55864">
        <ele>228</ele>
        <time>2012-07-15T10:05:53.000Z</time>
      </trkpt>
      <trkpt lat="46.60641" lon="4.55915">
        <ele>228</ele>
        <time>2012-07-15T10:06:01.000Z</time>
      </trkpt>
      <trkpt lat="46.60638" lon="4.55934">
        <ele>228</ele>
        <time>2012-07-15T10:06:04.000Z</time>
      </trkpt>
      <trkpt lat="46.60634" lon="4.55947">
        <ele>227</ele>
        <time>2012-07-15T10:06:06.000Z</time>
      </trkpt>
      <trkpt lat="46.60622" lon="4.56005">
        <ele>227</ele>
        <time>2012-07-15T10:06:18.000Z</time>
      </trkpt>
      <trkpt lat="46.60623" lon="4.56011">
        <ele>227</ele>
        <time>2012-07-15T10:06:20.000Z</time>
      </trkpt>
      <trkpt lat="46.60627" lon="4.56015">
        <ele>226</ele>
        <time>2012-07-15T10:06:23.000Z</time>
      </trkpt>
      <trkpt lat="46.60635" lon="4.56016">
        <ele>226</ele>
        <time>2012-07-15T10:06:26.000Z</time>
      </trkpt>
      <trkpt lat="46.60639" lon="4.56019">
        <ele>226</ele>
        <time>2012-07-15T10:06:28.000Z</time>
      </trkpt>
      <trkpt lat="46.60641" lon="4.56026">
        <ele>226</ele>
        <time>2012-07-15T10:06:31.000Z</time>
      </trkpt>
      <trkpt lat="46.60641" lon="4.56038">
        <ele>226</ele>
        <time>2012-07-15T10:06:35.000Z</time>
      </trkpt>
      <trkpt lat="46.6064" lon="4.56046">
        <ele>226</ele>
        <time>2012-07-15T10:06:37.000Z</time>
      </trkpt>
      <trkpt lat="46.60633" lon="4.56061">
        <ele>226</ele>
        <time>2012-07-15T10:06:43.000Z</time>
      </trkpt>
      <trkpt lat="46.6063" lon="4.56062">
        <ele>226</ele>
        <time>2012-07-15T10:06:45.000Z</time>
      </trkpt>
      <trkpt lat="46.60629" lon="4.56063">
        <ele>226</ele>
        <time>2012-07-15T10:06:47.000Z</time>
      </trkpt>
      <trkpt lat="46.60629" lon="4.56064">
        <ele>226</ele>
        <time>2012-07-15T10:06:50.000Z</time>
      </trkpt>
      <trkpt lat="46.60631" lon="4.56063">
        <ele>226</ele>
        <time>2012-07-15T10:06:54.000Z</time>
      </trkpt>
      <trkpt lat="46.60631" lon="4.56061">
        <ele>226</ele>
        <time>2012-07-15T10:06:56.000Z</time>
      </trkpt>
      <trkpt lat="46.60631" lon="4.56057">
        <ele>226</ele>
        <time>2012-07-15T10:06:58.000Z</time>
      </trkpt>
      <trkpt lat="46.6063" lon="4.56055">
        <ele>226</ele>
        <time>2012-07-15T10:07:01.000Z</time>
      </trkpt>
      <trkpt lat="46.6063" lon="4.56057">
        <ele>226</ele>
        <time>2012-07-15T10:07:04.000Z</time>
      </trkpt>
      <trkpt lat="46.60629" lon="4.56059">
        <ele>226</ele>
        <time>2012-07-15T10:07:07.000Z</time>
      </trkpt>
      <trkpt lat="46.60628" lon="4.56059">
        <ele>226</ele>
        <time>2012-07-15T10:07:10.000Z</time>
      </trkpt>
      <trkpt lat="46.60628" lon="4.5606">
        <ele>226</ele>
        <time>2012-07-15T10:07:13.000Z</time>
      </trkpt>
      <trkpt lat="46.60627" lon="4.56066">
        <ele>226</ele>
        <time>2012-07-15T10:07:16.000Z</time>
      </trkpt>
      <trkpt lat="46.60628" lon="4.56068">
        <ele>226</ele>
        <time>2012-07-15T10:07:18.000Z</time>
      </trkpt>
      <trkpt lat="46.60629" lon="4.56069">
        <ele>226</ele>
        <time>2012-07-15T10:07:20.000Z</time>
      </trkpt>
      <trkpt lat="46.60629" lon="4.5607">
        <ele>226</ele>
        <time>2012-07-15T10:07:23.000Z</time>
      </trkpt>
      <trkpt lat="46.60629" lon="4.5607">
        <ele>226</ele>
        <time>2012-07-15T10:07:27.000Z</time>
      </trkpt>
    </trkseg>
  </trk>
</gpx>